[[{"header":{"parameterUnit":"m.s-1","parameterCategory":1,"la1":30.6,"la2":29.2853,"lo1":-89.7004,"lo2":-87.6739,"dy":0.0162,"dx":0.0183,"nx":112,"ny":82,"refTime":"2025-08-07T00:00:00:Z","depth":0,"parameterNumber":2,"parameterNumberName":"U-component_of_WINDS"},"data":[0.0,0.0,0.0,0.0,0.0,0.0,0.0,0.0,0.0,0.0,0.0,0.0,0.0,0.0,0.0,0.0,0.0,0.0,0.0,0.0,0.0,0.0,0.0,0.0,0.0,0.0,0.0,0.0,0.0,0.0,0.0,0.0,0.0,0.0,0.0,0.0,0.0,0.0,0.0,0.0,0.0,0.0,0.0,0.0,0.0,0.0,0.0,0.0,0.0,0.0,0.0,0.0,0.0,0.0,0.0,0.0,0.0,0.0,0.0,0.0,0.0,0.0,0.0,0.0,0.0,0.0,0.0,0.0,0.0,0.0,0.0,0.0,0.0,0.0,0.0,0.0,0.0,0.0,0.0,0.0,0.0,0.0,0.0,0.0,0.0,0.0,0.0,0.0,0.0,0.0,0.0819,0.0615,0.0571,0.0546,0.0549,0.0221,-0.0053,-0.0186,0.0,0.0,0.0,0.0,0.0,0.0,0.0,0.0,0.0,0.0,0.0,0.0,0.0,0.0,0.0,0.0,0.0,0.0,0.0,0.0,0.0,0.0,0.0,0.0,0.0,0.0,0.0,0.0,0.0,0.0,0.0,0.0,0.0,0.0,0.0,0.0,0.0,0.0,0.0,0.0,0.0,0.0,0.0,0.0,0.0,0.0,0.0,0.0,0.0,0.0,0.0,0.0,0.0,0.0,0.0,0.0,0.0,0.0,0.0,0.0,0.0,0.0,0.0,0.0,0.0,0.0,0.0,0.0,0.0,0.0,0.0,0.0,0.0,0.0,0.0,0.0,0.0,0.0,0.0,0.0,0.0,0.0,0.0,0.0,0.0,0.0,0.0,0.0,0.0,0.0,0.0,0.0,0.0,0.0,0.0,0.0,0.0,0.0,0.0,0.0,0.0,0.0,0.0,0.0,0.0461,0.058,0.0448,0.0351,0.034,0.0127,-0.0052,-0.0186,0.0,0.0,0.0,0.0,0.0,0.0,0.0,0.0,0.0,0.0,0.0,0.0,0.0,0.0,0.0,0.0,0.0,0.0,0.0,0.0,0.0,0.0,0.0,0.0,0.0,0.0,0.0,0.0,0.0,0.0,0.0,0.0,0.0,0.0,0.0,0.0,0.0,0.0,0.0,0.0,0.0,0.0,0.0,0.0,0.0,0.0,0.0,0.0,0.0,0.0,0.0,0.0,0.0,0.0,0.0,0.0,0.0,0.0,0.0,0.0,0.0,0.0,0.0,0.0,0.0,0.0,0.0,0.0,0.0,0.0,0.0,0.0,0.0,0.0,0.0,0.0,0.0,0.0,0.0,0.0,0.0,0.0,0.0,0.0,0.0,0.0,0.0,0.0,0.0,0.0,0.0,0.0,0.0,0.0,0.0,0.0,0.0,0.0,0.0,0.0,0.0,0.0,0.0,0.0132,0.0277,0.0527,0.0404,0.0305,0.0308,0.0018,-0.017,-0.0198,-0.0272,0.0,0.0,0.0,0.0,0.0,0.0,0.0,0.0,0.0,0.0,0.0,0.0,0.0,0.0,0.0,0.0,0.0,0.0,0.0,0.0,0.0,0.0,0.0,0.0,0.0,0.0,0.0,0.0,0.0,0.0,0.0,0.0,0.0,0.0,0.0,0.0,0.0,0.0,0.0,0.0,0.0,0.0,0.0,0.0,0.0,0.0,0.0,0.0,0.0,0.0,0.0,0.0,0.0,0.0,0.0,0.0,0.0,0.0,0.0,0.0,0.0,0.0,0.0,0.0,0.0,0.0,0.0,0.0,0.0,0.0,0.0,0.0,0.0,0.0,0.0,0.0,0.0,0.0,0.0,0.0,0.0,0.0,0.0,0.0,0.0,0.0,0.0,0.0,0.0,0.0,0.0,0.0,0.0,0.0,0.0,0.0,0.0,0.0,0.0,0.0,0.0,0.0,-0.0031,0.0048,0.0285,0.0223,0.0157,0.0158,-0.0102,-0.0281,-0.0323,-0.0397,0.0,0.0,0.0,0.0,0.0,0.0,0.0,0.0,0.0,0.0,0.0,0.0,0.0,0.0,0.0,0.0,0.0,0.0,0.0,0.0,0.0,0.0,0.0,0.0,0.0,0.0,0.0,0.0,0.0,0.0,0.0,0.0,0.0,0.0,0.0,0.0,0.0,0.0,0.0,0.0,0.0,0.0,0.0,0.0,0.0,0.0,0.0,0.0,0.0,0.0,0.0,0.0,0.0,0.0,0.0,0.0,0.0,0.0,0.0,0.0,0.0,0.0,0.0,0.0,0.0,0.0,0.0,0.0,0.0,0.0,0.0,0.0,0.0,0.0,0.0,0.0,0.0,0.0,0.0,0.0,0.0,0.0,0.0,0.0,0.0,0.0,0.0,0.0,0.0,0.0,0.0,0.0,0.0,0.0,0.0,0.0,0.0,0.0,0.0,0.0,0.0,0.0,-0.0423,-0.0403,-0.0253,-0.0253,-0.0256,-0.0262,-0.0234,-0.034,-0.0646,-0.0619,0.0,0.0,0.0,0.0,0.0,0.0,0.0,0.0,0.0,0.0,0.0,0.0,0.0,0.0,0.0,0.0,0.0,0.0,0.0,0.0,0.0,0.0,0.0,0.0,0.0,0.0,0.0,0.0,0.0,0.0,0.0,0.0,0.0,0.0,0.0,0.0,0.0,0.0,0.0,0.0,0.0,0.0,0.0,0.0,0.0,0.0,0.0,0.0,0.0,0.0,0.0,0.0,0.0,0.0,0.0,0.0,0.0,0.0,0.0,0.0,0.0,0.0,0.0,0.0,0.0,0.0,0.0,0.0,0.0,0.0,0.0,0.0,0.0,0.0,0.0,0.0,0.0,0.0,0.0,0.0,0.0,0.0,0.0,0.0,0.0,0.0,0.0,0.0,0.0,0.0,0.0,0.0,0.0,0.0,0.0,0.0,0.0,0.0,0.0,0.0,0.0,0.0,-0.0576,-0.0567,0.0,-0.0421,-0.0423,-0.0427,-0.052,-0.0616,-0.0689,0.0,0.0,0.0,0.0,0.0,0.0,0.0,0.0,0.0,0.0,0.0,0.0,0.0,0.0,0.0,0.0,0.0,0.0,0.0,0.0,0.0,0.0,0.0,0.0,0.0,0.0,0.0,0.0,0.0,0.0,0.0,0.0,0.0,0.0,0.0,0.0,0.0,0.0,0.0,0.0,0.0,0.0,0.0,0.0,0.0,0.0,0.0,0.0,0.0,0.0,0.0,0.0,0.0,0.0,0.0,0.0,0.0,0.0,0.0,0.0,0.0,0.0,0.0,0.0,0.0,0.0,0.0,0.0,0.0,0.0,0.0,0.0,0.0,0.0,0.0,0.0,0.0,0.0,0.0,0.0,0.0,0.0,0.0,0.0,0.0,0.0,0.0,0.0,0.0,0.0,0.0,0.0,0.0,0.0,0.0,0.0,0.0,0.0,0.0,0.0,0.0,0.0,-0.0837,-0.0831,-0.0774,0.0,-0.059,-0.059,-0.059,-0.0719,-0.0788,-0.077,0.0,0.0,0.0,0.0,0.0,0.0,0.0,0.0,0.0,0.0,0.0,0.0,0.0,0.0,0.0,0.0,0.0,0.0,0.0,0.0,0.0,0.0,0.0,0.0,0.0,0.0,0.0,0.0,0.0,0.0,0.0,0.0,0.0,0.0,0.0,0.0,0.0,0.0,0.0,0.0,0.0,0.0,0.0,0.0,0.0,0.0,0.0,0.0,0.0,0.0,0.0,0.0,0.0,0.0,0.0,0.0,0.0,0.0,0.0,0.0,0.0,0.0,0.0,0.0,0.0,0.0,0.0,0.0,0.0,0.0,0.0,0.0,0.0,0.0,0.0,0.0,0.0,0.0,0.0,0.0,0.0,0.0,0.0,0.0,0.0,0.0,0.0,0.0,0.0,0.0,0.0,0.0,0.0,0.0,0.0,0.0,0.0,0.0,0.0,0.0,0.0,0.0,-0.1305,-0.119,-0.1026,-0.0826,-0.0809,-0.0809,-0.0809,-0.0805,-0.0835,0.0,0.0,0.0,0.0,0.0,0.0,0.0,0.0,0.0,0.0,0.0,0.0,0.0,0.0,0.0,0.0,0.0,0.0,0.0,0.0,0.0,0.0,0.0,0.0,0.0,0.0,0.0,0.0,0.0,0.0,0.0,0.0,0.0,0.0,0.0,0.0,0.0,0.0,0.0,0.0,0.0,0.0,0.0,0.0,0.0,0.0,0.0,0.0,0.0,0.0,0.0,0.0,0.0,0.0,0.0,0.0,0.0,0.0,0.0,0.0,0.0,0.0,0.0,0.0,0.0,0.0,0.0,0.0,0.0,0.0,0.0,0.0,0.0,0.0,0.0,0.0,0.0,0.0,0.0,0.0,0.0,0.0,0.0,0.0,0.0,0.0,0.0,0.0,0.0,0.0,0.0,0.0,0.0,0.0,0.0,0.0,0.0,0.0,0.0,0.0,0.0,0.0,0.0,-0.1305,-0.119,-0.1076,-0.1026,-0.1009,-0.1009,-0.1009,-0.1018,-0.098,-0.0904,0.0,0.0,0.0,0.0,0.0,0.0,0.0,0.0,0.0,0.0,0.0,0.0,0.0,0.0,0.0,0.0,0.0,0.0,0.0,0.0,0.0,0.0,0.0,0.0,0.0,0.0,0.0,0.0,0.0,0.0,0.0,0.0,0.0,0.0,0.0,0.0,0.0,0.0,0.0,0.0,0.0,0.0,0.0,0.0,0.0,0.0,0.0,0.0,0.0,0.0,0.0,0.0,0.0,0.0,0.0,0.0,0.0,0.0,0.0,0.0,0.0,0.0,0.0,0.0,0.0,0.0,0.0,0.0,0.0,0.0,0.0,0.0,0.0,0.0,0.0,0.0,0.0,0.0,0.0,0.0,0.0,0.0,0.0,0.0,0.0,0.0,0.0,0.0,0.0,0.0,0.0,0.0,0.0,0.0,0.0,0.0,0.0,0.0,0.0,0.0,0.0,0.0,-0.1484,-0.1371,-0.1244,-0.1109,-0.1092,-0.1092,-0.1092,-0.1092,-0.1021,-0.083,0.0,0.0,0.0,0.0,0.0,0.0,0.0,0.0,0.0,0.0,0.0,0.0,0.0,0.0,0.0,0.0,0.0,0.0,0.0,0.0,0.0,0.0,0.0,0.0,0.0,0.0,0.0,0.0,0.0,0.0,0.0,0.0,0.0,0.0,0.0,0.0,0.0,0.0,0.0,0.0,0.0,0.0,0.0,0.0,0.0,0.0,0.0,0.0,0.0,0.0,0.0,0.0,0.0,0.0,0.0,0.0,0.0,0.0,0.0,0.0,0.0,0.0,0.0,0.0,0.0,0.0,0.0,0.0,0.0,0.0,0.0,0.0,0.0,0.0,0.0,0.0,0.0,0.0,0.0,0.0,0.0,0.0,0.0,0.0,0.0,0.0,0.0,0.0,0.0,0.0,0.0,0.0,0.0,0.0,0.0,0.0,0.0,0.0,0.0,0.0,0.0,0.0,-0.18,-0.1672,-0.148,-0.1176,-0.1126,-0.1092,-0.1092,-0.1092,-0.0991,-0.0732,0.0,0.0,0.0,0.0,0.0,0.0,0.0,0.0,0.0,0.0,0.0,0.0,0.0,0.0,0.0,0.0,0.0,0.0,0.0,0.0,0.0,0.0,0.0,0.0,0.0,0.0,0.0,0.0,0.0,0.0,0.0,0.0,0.0,0.0,0.0,0.0,0.0,0.0,0.0,0.0,0.0,0.0,0.0,0.0,0.0,0.0,0.0,0.0,0.0,0.0,0.0,0.0,0.0,0.0,0.0,0.0,0.0,0.0,0.0,0.0,-1.1126,0.0,0.0,0.0,0.0,0.0,0.0,0.0,0.0,0.0,0.0,0.0,0.0,0.0,0.0,0.0,0.0,0.0,0.0,0.0,0.0,0.0,0.0,0.0,0.0,0.0,0.0,0.0,0.0,0.0,0.0,0.0,0.0,0.0,0.0,0.0,0.0,0.0,0.0,0.0,0.0,0.0,-0.2167,-0.1833,-0.158,-0.1496,-0.126,-0.1092,-0.1092,-0.1092,-0.1008,-0.0794,-0.0632,0.0,0.0,0.0,0.0,0.0,0.0,0.0,0.0,0.0,0.0,0.0,0.0,0.0,0.0,0.0,0.0,0.0,0.0,0.0,0.0,0.0,0.0,0.0,0.0,0.0,0.0,0.0,0.0,0.0,0.0,0.0,0.0,0.0,0.0,0.0,0.0,0.0,0.0,0.0,0.0,0.0,0.0,0.0,0.0,0.0,0.0,0.0,0.0,0.0,0.0,0.0,0.0,0.0,0.0,0.0,0.0,0.0,0.0,0.0,0.0,-1.1744,0.0,0.0,0.0,0.0,0.0,0.0,0.0,0.0,0.0,0.0,0.0,0.0,0.0,0.0,0.0,0.0,0.0,0.0,0.0,0.0,0.0,0.0,0.0,0.0,0.0,0.0,0.0,0.0,0.0,0.0,0.0,0.0,0.0,0.0,0.0,0.0,0.0,0.0,0.0,0.0,-0.1926,-0.1735,-0.153,-0.1379,-0.121,-0.1092,-0.1092,-0.1009,-0.0865,-0.0663,-0.0495,0.0,0.0,0.0,0.0,0.0,0.0,0.0,0.0,0.0,0.0,0.0,0.0,0.0,0.0,0.0,0.0,0.0,0.0,0.0,0.0,0.0,0.0,0.0,0.0,0.0,0.0,0.0,0.0,0.0,0.0,0.0,0.0,0.0,0.0,0.0,0.0,0.0,0.0,0.0,0.0,0.0,0.0,0.0,0.0,0.0,0.0,0.0,0.0,0.0,0.0,0.0,0.0,0.0,-1.3804,-1.3579,-1.3512,-1.3525,-1.3553,-1.356,-1.3354,-1.3236,-1.3108,0.0,0.0,0.0,0.0,0.0,0.0,0.0,0.0,0.0,0.0,0.0,0.0,0.0,0.0,0.0,0.0,0.0,0.0,0.0,0.0,0.0,0.0,0.0,0.0,0.0,-0.4703,-0.3754,0.0,0.0,0.0,0.0,0.0,0.0,0.0,0.0,0.0,0.0,0.0,0.0,-0.1628,-0.1614,-0.1508,-0.1236,-0.1146,-0.1092,-0.1092,-0.0909,-0.0718,-0.0505,-0.038,-0.0215,0.0,0.0,0.0,0.0,0.0,0.0,0.0,0.0,0.0,0.0,0.0,0.0,0.0,0.0,0.0,0.0,0.0,0.0,0.0,0.0,0.0,0.0,0.0,0.0,0.0,0.0,0.0,0.0,0.0,0.0,0.0,0.0,-1.3612,-1.3,0.0,0.0,0.0,0.0,0.0,0.0,0.0,0.0,0.0,0.0,0.0,0.0,0.0,-1.5257,-1.4612,-1.5446,-1.5388,-1.4463,-1.4958,-1.5045,-1.4764,-1.4823,-1.4361,-1.3502,-1.349,0.0,-1.3187,-1.182,0.0,0.0,0.0,0.0,0.0,0.0,0.0,0.0,0.0,0.0,0.0,0.0,0.0,0.0,0.0,0.0,0.0,0.0,0.0,0.0,0.0,0.0,-0.642,-0.5643,-0.4723,-0.378,0.0,-0.2762,-0.2802,-0.2756,0.0,0.0,0.0,0.0,0.0,0.0,0.0,0.0,-0.2016,-0.1817,-0.1673,-0.1621,-0.1313,-0.1092,-0.1092,-0.0909,-0.0707,-0.052,-0.0375,-0.0208,-0.0016,0.0,0.0,0.0,0.0,0.0,0.0,0.0,0.0,0.0,0.0,0.0,0.0,0.0,0.0,0.0,0.0,0.0,0.0,0.0,0.0,0.0,0.0,0.0,0.0,0.0,0.0,0.0,0.0,0.0,0.0,-1.3517,-1.4123,-1.4213,-1.4199,-1.4013,0.0,0.0,0.0,0.0,0.0,0.0,0.0,0.0,0.0,-1.4111,-1.4615,-1.481,-1.4609,-1.5209,-1.5292,-1.4835,-1.4532,-1.4297,-1.4141,-1.3555,-1.3047,-1.2557,-1.1853,-1.1838,-1.2275,-1.15,-1.1112,-1.0933,0.0,0.0,0.0,0.0,0.0,-0.9213,-0.8762,-0.8384,0.0,0.0,0.0,0.0,0.0,0.0,0.0,0.0,0.0,0.0,0.0,0.0,0.0,-0.6455,-0.5548,-0.4649,-0.4149,-0.3217,-0.2391,0.0,-0.1747,-0.1484,-0.1382,0.0,0.0,0.0,0.0,-0.1485,-0.1579,-0.1457,-0.1366,-0.1366,-0.1214,-0.1059,-0.0942,-0.0741,-0.0556,-0.0404,-0.022,-0.0084,0.0,0.0,0.0078,0.0,0.0,0.0,0.0,0.0,0.0,0.0,0.0,0.0,0.0,0.0,0.0,0.0,0.0,0.0,0.0,0.0,0.0,0.0,0.0,0.0,0.0,0.0,0.0,0.0,0.0,0.0,0.0,-1.4127,-1.4597,-1.4794,-1.4723,-1.4441,0.0,0.0,0.0,0.0,0.0,0.0,-1.4445,-1.4565,-1.4464,-1.408,-1.4311,-1.4538,-1.4718,-1.4981,-1.4957,-1.4688,-1.3806,-1.327,-1.2974,-1.212,-1.156,-1.1268,-1.0317,-1.0194,-1.0682,-1.0627,-1.0506,-1.0317,-0.9893,-0.9537,-0.9254,-0.9181,-0.9126,-0.9026,-0.8568,-0.8398,-0.8268,-0.755,0.0,-0.7,-0.6794,0.0,0.0,0.0,0.0,-0.708,-0.7291,0.0,-0.7095,-0.6943,-0.6105,-0.5216,-0.4739,-0.331,-0.2011,0.0,-0.1335,-0.1109,-0.1059,0.0,0.0,0.0,0.0,-0.099,-0.1047,-0.105,-0.1037,-0.0984,-0.1012,-0.0962,-0.074,-0.055,-0.0413,-0.031,-0.0105,0.0,0.0,0.0,0.0067,0.0224,0.0,0.0,0.0,0.0,0.0,0.0,0.0,0.0,0.0,0.0,0.0,0.0,0.0,0.0,0.0,0.0,0.0,0.0,0.0,0.0,0.0,0.0,0.0,0.0,0.0,0.0,0.0,0.0,0.0,-1.4211,-1.4824,0.0,0.0,0.0,0.0,-1.5088,-1.5616,-1.5659,-1.5098,-1.5545,-1.5579,-1.5059,-1.5049,-1.5051,-1.5064,-1.51,-1.4592,-1.3583,-1.327,-1.2611,-1.1687,-1.139,-1.0685,-0.9706,-0.9657,-0.9069,-0.8248,-0.8974,-0.9864,-1.0749,-1.0454,-1.0199,-0.9875,-0.9238,-0.8923,-0.8718,-0.8067,-0.7835,-0.7859,-0.7925,-0.7702,-0.7369,-0.7352,-0.7129,0.0,0.0,-0.7238,-0.7338,-0.7233,-0.7195,-0.709,-0.671,-0.5899,-0.4927,-0.3885,-0.2839,-0.2176,0.0,-0.1463,-0.0685,-0.0883,0.0,-0.0523,-0.0528,-0.0594,-0.0623,-0.0623,-0.0793,-0.083,-0.0641,-0.0793,-0.0799,-0.0545,-0.0381,-0.0308,-0.0308,-0.0109,0.0,0.0,0.0,0.009,0.0296,0.0363,0.0,0.0,0.0,0.0,0.0,0.0,0.0,0.0,0.0,0.0,0.0,0.0,0.0,0.0,0.0,0.0,0.0,0.0,0.0,0.0,0.0,0.0,0.0,0.0,0.0,0.0,0.0,0.0,-1.549,-1.5582,0.0,-1.4731,-1.4818,-1.4881,-1.483,-1.499,-1.5104,-1.5091,-1.5108,-1.5033,-1.4855,-1.4694,-1.4244,-1.3559,-1.3565,-1.3047,-1.1999,-1.1219,-1.0656,-1.0293,-0.9509,-0.885,-0.8308,-0.8308,-0.7985,-0.7509,-0.7801,-0.8343,-0.8997,-0.8891,-0.8685,-0.8423,-0.8195,-0.7948,-0.7736,-0.7494,-0.7538,-0.7699,-0.7922,-0.7908,-0.7776,-0.7776,-0.7586,-0.735,-0.7399,-0.7352,-0.7251,-0.7204,-0.713,-0.6983,-0.6611,-0.5259,-0.3876,-0.3283,-0.1882,-0.0828,-0.1087,-0.0888,-0.0673,-0.0708,-0.0618,-0.0568,-0.0564,-0.0591,-0.0601,-0.0601,-0.0669,-0.0681,-0.0606,-0.0629,-0.0565,-0.0383,-0.0328,-0.0181,0.0071,0.0036,0.0054,0.0191,0.0071,0.0035,0.0103,0.0335,0.0505,0.0,0.0,0.0,0.0,0.0,0.0,0.0,0.0,0.0,0.0,0.0,0.0,0.0,0.0,0.0,0.0,0.0,0.0,0.0,0.0,0.0,0.0,0.0,0.0,0.0,0.0,-1.4947,-1.5764,-1.5734,-1.5437,-1.4919,-1.509,-1.5098,-1.4803,-1.4689,-1.4738,-1.4951,-1.4718,-1.4568,-1.4568,-1.4052,-1.3414,-1.2708,-1.2363,-1.1682,-1.0661,-0.9953,-0.941,-0.9044,-0.8333,-0.7842,-0.7596,-0.7596,-0.7444,-0.7213,-0.7213,-0.7413,-0.7739,-0.7739,-0.7615,-0.7469,-0.7469,-0.7341,-0.7213,-0.7213,-0.7316,-0.7494,-0.7665,-0.7739,-0.7739,-0.7739,-0.7615,-0.7469,-0.7469,-0.7341,-0.7188,-0.7089,-0.7004,-0.6857,-0.6508,-0.5106,-0.3661,-0.3068,-0.1644,-0.0427,-0.0292,-0.0377,-0.0477,-0.0519,-0.0453,-0.0405,-0.0406,-0.033,-0.0294,-0.0294,-0.0349,-0.0364,-0.0307,-0.0321,-0.0262,-0.0112,-0.0037,0.0111,0.0383,0.0204,0.0165,0.0299,0.0107,0.0,0.0,0.0322,0.0537,0.0598,0.0,0.0,0.0,0.0,0.0,0.0,0.0,0.0,0.0,0.0,0.0,0.0,0.0,0.0,0.0,0.0,0.0,0.0,0.0,0.0,0.0,0.0,0.0,-1.417,-1.4969,-1.5319,-1.4867,-1.5208,-1.516,-1.4304,-1.4742,-1.5083,-1.5083,-1.4838,-1.4688,-1.4688,-1.4418,-1.4244,-1.4244,-1.3216,-1.2635,-1.2606,-1.1634,-1.0612,-0.9558,-0.9558,-0.8994,-0.7988,-0.7988,-0.7842,-0.7596,-0.7596,-0.7444,-0.7188,-0.7188,-0.7188,-0.7188,-0.7188,-0.7188,-0.7188,-0.7188,-0.7188,-0.716,-0.7138,-0.7138,-0.7138,-0.711,-0.711,-0.711,-0.711,-0.7086,-0.7086,-0.7086,-0.7086,-0.7014,-0.6767,-0.6692,-0.6614,-0.6271,-0.5379,-0.4305,-0.3196,-0.2114,-0.1078,-0.018,0.0,-0.0089,-0.034,-0.0168,0.0,0.0,0.0177,0.0,0.0314,0.0137,0.0098,0.0294,0.0137,0.0098,0.0295,0.0491,0.0609,0.0609,0.0412,0.0311,0.0303,0.0114,0.0019,0.0018,0.0326,0.06,0.0806,0.0,0.0,0.0,0.0,0.0,0.0,0.0,0.0,0.0,0.0,0.0,0.0,0.0,0.0,0.0,0.0,0.0,0.0,0.0,0.0,0.0,-1.2337,-1.303,-1.4025,-1.4559,-1.4883,-1.5006,-1.5121,-1.5114,-1.4867,-1.4821,-1.4814,-1.4814,-1.4568,-1.4418,-1.4418,-1.3607,-1.3143,-1.3143,-1.2145,-1.1243,-1.046,-1.017,-0.9509,-0.8432,-0.8432,-0.8283,-0.7988,-0.7988,-0.7739,-0.7316,-0.7316,-0.7039,-0.6612,-0.6612,-0.6612,-0.6661,-0.7039,-0.7089,-0.6917,-0.6917,-0.6789,-0.6537,-0.5957,-0.5757,-0.5654,-0.5072,-0.487,-0.487,-0.487,-0.4747,-0.4599,-0.4599,-0.445,-0.4277,-0.4203,-0.4178,-0.4134,-0.3957,-0.3169,-0.2334,-0.1929,-0.1081,-0.032,-0.0045,0.0,-0.0022,-0.0087,0.0064,0.0208,0.0223,0.0397,0.0,0.051,0.0471,0.0452,0.051,0.0471,0.0475,0.0584,0.0595,0.0668,0.0805,0.0637,0.0515,0.0511,0.0322,0.0226,0.0223,0.03,0.052,0.0,0.0,0.0,0.0,0.0,0.0,0.0,0.0,0.0,0.0,0.0,0.0,0.0,0.0,0.0,0.0,0.0,0.0,0.0,0.0,0.0,0.0,-1.1784,-1.2266,-1.2946,-1.3303,-1.3819,-1.4824,-1.4544,-1.4394,-1.4736,-1.4616,-1.4346,-1.3902,-1.3709,-1.3438,-1.3028,-1.2412,-1.2072,-1.2072,-1.1072,-1.0219,-0.9608,-0.9143,-0.8627,-0.7988,-0.7988,-0.7988,-0.7988,-0.7988,-0.7715,0.0,-0.7213,-0.6886,-0.6412,-0.6412,-0.6134,0.0,0.0,0.0,0.0,0.0,-0.5183,-0.5004,-0.4528,-0.4352,-0.4275,-0.382,-0.367,-0.367,-0.367,-0.3546,-0.3422,-0.3422,-0.3323,-0.3198,-0.3198,-0.3198,-0.3189,-0.3104,-0.2315,-0.1579,-0.1506,-0.0604,0.0138,0.0023,0.0,0.0,0.0177,0.026,0.036,0.0456,0.0648,0.076,0.0,0.0762,0.076,0.0768,0.0769,0.0793,0.0825,0.0877,0.0,0.0,0.0,0.0552,0.0351,0.0232,0.0,0.0,0.0,0.0,0.0,0.0,0.0,0.0,0.1196,0.1317,0.0,0.0,0.0,0.0,0.0,0.0,0.0,0.0,0.0,0.0,0.0,0.0,0.0,0.0,0.0,0.0,-1.0831,-1.113,-1.1487,-1.1512,-1.2169,-1.4076,-1.3463,-1.3173,-1.3884,-1.3956,-1.3565,-1.2611,-1.2538,-1.2145,-1.1243,0.0,0.0,0.0,0.0,-0.945,-0.947,-0.8532,-0.8064,-0.8064,-0.8064,-0.8029,-0.799,-0.799,-0.7678,-0.7163,-0.7163,-0.6864,-0.6387,-0.6262,-0.5584,-0.4709,-0.5659,-0.5459,-0.4506,-0.355,-0.3198,0.0,0.0,0.0,0.0,-0.2871,-0.2846,-0.2846,-0.2846,-0.2846,-0.2846,-0.2846,-0.2846,-0.2846,-0.2846,-0.2846,-0.2846,-0.2846,-0.2114,-0.1418,-0.1415,-0.047,0.0323,0.0091,0.0405,0.065,0.0515,0.0463,0.0519,0.07,0.0912,0.0,0.1029,0.1034,0.1029,0.103,0.0,0.0,0.1035,0.1202,0.1307,0.131,0.093,0.0503,0.0062,0.002,0.0,0.0,0.0169,0.0304,0.0405,0.0574,0.068,0.0716,0.1109,0.1306,0.0,0.0,0.0,0.0,0.0,0.0,0.0,0.0,0.0,0.0,0.0,0.0,0.0,0.0,0.0,-1.0388,-1.0131,-1.0225,-1.1141,-0.9825,-0.9534,-1.1634,-1.1682,-1.1634,-1.178,-1.1809,-1.1707,-1.1512,-1.1487,-1.1419,-1.1219,-1.0391,0.0,-1.0071,-0.9077,-0.8608,-0.8702,-0.8498,-0.8397,-0.8397,0.0,0.0,-0.7913,-0.7913,-0.7544,-0.6867,-0.6867,-0.6689,-0.6337,-0.5461,-0.4481,-0.3525,-0.3751,-0.3701,-0.3475,-0.3274,-0.3198,-0.3073,-0.2217,-0.1915,-0.1765,-0.0908,-0.0631,-0.0631,-0.0631,-0.0631,0.0,-0.0631,-0.0631,-0.0631,-0.0631,-0.0631,-0.0631,-0.0631,-0.0453,-0.03,-0.0319,0.0072,0.0377,0.0323,0.0522,0.0762,0.0942,0.0927,0.0891,0.0931,0.1104,0.1237,0.1242,0.1238,0.1237,0.1242,0.1242,0.1272,0.1315,0.1318,0.1315,0.138,0.0951,0.0561,0.0258,0.0088,0.0,0.0,0.0046,0.0162,0.0391,0.0446,0.0575,0.0781,0.1036,0.1142,0.0,0.0,0.0,0.0,0.0,0.0,0.0,0.0,0.0,0.0,0.0,-0.8267,-0.8464,0.0,-0.8965,-0.9172,-0.8986,-0.8994,-0.9534,-0.8676,-0.88,-1.095,-1.0734,-1.0612,-1.1146,-1.1194,-1.1021,-1.0531,-1.0511,-1.0305,-0.9868,-0.9343,-0.9079,-0.9139,-0.8659,-0.8437,-0.8509,-0.8509,-0.8509,-0.8509,-0.8325,-0.8157,-0.793,-0.7197,-0.6567,-0.6074,-0.5454,-0.5048,-0.4716,-0.3639,-0.2871,-0.2343,-0.1815,-0.1915,-0.2343,-0.179,-0.1588,-0.1513,-0.0984,-0.0807,-0.0707,-0.0177,0.0,0.0,0.0,0.0,0.0,0.0,0.0,0.0,0.0,0.0,0.0025,0.0177,0.0202,0.0226,0.037,0.0512,0.0599,0.0605,0.0757,0.0953,0.1078,0.1156,0.1193,0.1193,0.128,0.1353,0.1346,0.1357,0.1353,0.1346,0.1348,0.1354,0.139,0.1268,0.1157,0.1059,0.0729,0.0422,0.0157,0.0046,0.0,0.0,0.0,0.0072,0.0191,0.0195,0.0271,0.0398,0.0641,0.081,0.0,0.0,0.0,0.0,0.0,0.0,0.0,-0.8217,-0.78,-0.8228,-0.7891,-0.757,-0.7702,-0.7797,-0.7881,-0.8033,-0.8033,-0.7988,-0.7988,-0.7988,-0.8651,-1.0366,-0.9805,-0.9632,-1.0489,-1.0587,-1.0276,-0.9568,-0.9503,-0.9219,-0.8528,-0.8509,-0.8522,-0.8526,-0.8526,-0.854,-0.8488,-0.8275,-0.8113,-0.8057,-0.7555,-0.7275,-0.7146,-0.5943,-0.5245,-0.4907,-0.3935,-0.3286,-0.2819,-0.1956,-0.1487,-0.121,-0.0328,-0.053,-0.1185,-0.0328,0.0,0.0,0.0,0.0,0.0,0.0,0.0,0.0,0.0,0.0,0.0,0.0,0.0,0.0,0.0,0.0,0.0051,0.0278,0.0354,0.0453,0.0669,0.0812,0.0875,0.0871,0.1046,0.1173,0.1176,0.1304,0.1391,0.1391,0.1392,0.1408,0.141,0.1392,0.1408,0.141,0.1391,0.1391,0.1345,0.1143,0.0919,0.065,0.0495,0.0273,0.0,0.0,0.0,0.0,0.0,0.0,0.0,0.0,0.0,0.0,0.0227,0.0455,-0.8085,-0.7529,-0.7112,-0.7242,-0.7193,-0.7291,0.0,-0.7852,-0.7697,-0.7973,-0.7978,-0.7986,-0.8192,-0.8096,-0.804,-0.8243,-0.8104,-0.7988,-0.7988,-0.7988,-0.8088,-0.8333,-0.8262,-0.8233,-0.8357,-0.8357,-0.8399,-0.8463,-0.8473,-0.8484,-0.8502,-0.8509,-0.8543,-0.8679,-0.8682,-0.8612,-0.8491,-0.7439,-0.6772,-0.6521,-0.5416,-0.4687,-0.4266,-0.4099,-0.3823,-0.3447,-0.3312,-0.2693,-0.176,-0.1651,-0.1034,-0.0177,-0.0051,-0.0076,-0.0177,-0.0051,0.0,0.0,0.0,0.0,0.0,0.0,0.0,0.0,0.0,0.0,0.0,0.0,0.0,0.0,0.0,0.0,0.0,0.0025,0.0227,0.0404,0.0428,0.082,0.1152,0.1147,0.1328,0.1457,0.1453,0.1431,0.1391,0.1391,0.141,0.1409,0.139,0.141,0.1409,0.139,0.1391,0.1323,0.1143,0.0897,0.065,0.0448,0.0411,0.0277,0.0,0.0,0.0,0.0,0.0,0.0,0.0,0.0,0.0,0.0,0.0025,0.0177,-0.7579,-0.7397,-0.7224,-0.7347,-0.7401,-0.7499,-0.781,-0.7787,-0.776,-0.7969,-0.7988,-0.8064,-0.8267,-0.8243,-0.8221,-0.8396,-0.834,-0.8269,-0.8184,-0.8174,-0.814,-0.8027,-0.8094,-0.8174,-0.8174,-0.8067,-0.8152,-0.8503,-0.8471,-0.8496,-0.8706,-0.872,-0.8448,-0.7792,-0.7624,-0.7177,-0.6415,-0.575,-0.5363,-0.525,-0.4552,-0.412,-0.3898,-0.3015,-0.2167,-0.1351,-0.1342,-0.109,-0.0659,-0.068,-0.0415,0.0,0.0,0.0,0.0,0.0,0.0,0.0,0.0,0.0,0.0,0.0,0.0,0.0,0.0,0.0,0.0,0.0,0.0,0.0,0.0,0.0126,0.0278,0.0429,0.0682,0.0909,0.1061,0.1154,0.1244,0.1402,0.1381,0.1356,0.1487,0.147,0.1455,0.1416,0.1391,0.1391,0.1391,0.1391,0.1345,0.1233,0.1076,0.0964,0.0874,0.0657,0.0479,0.0411,0.0256,0.0118,0.0,0.0,0.0,0.0,0.0,0.0,0.0,0.0,0.0,0.0,0.0,0.0051,-0.7175,-0.7362,-0.7485,-0.757,-0.7706,-0.7821,-0.7841,-0.7851,-0.7881,-0.7993,-0.7988,-0.8064,-0.8267,-0.8298,-0.8342,-0.8485,-0.8509,-0.8471,-0.8369,-0.8321,-0.827,-0.8145,-0.7941,-0.7837,-0.7914,-0.8011,-0.8246,-0.8679,-0.8275,-0.8131,-0.8392,-0.8014,-0.7399,-0.6533,-0.6228,-0.5639,-0.4662,-0.4132,-0.3829,-0.3745,-0.3186,-0.2907,-0.2851,-0.1791,-0.0835,0.0,0.0,0.0,0.0,0.0,0.0,0.0,0.0,0.0,0.0,0.0,0.0,0.0,0.0,0.0,0.0,0.0,0.0,0.0,0.0,0.0,0.0,0.0,0.0,0.0025,0.0101,0.0253,0.048,0.0732,0.101,0.1263,0.144,0.139,0.1359,0.1563,0.1453,0.1363,0.1513,0.1522,0.1462,0.1326,0.1369,0.1431,0.1393,0.1352,0.1244,0.1018,0.0773,0.0616,0.0616,0.0416,0.028,0.028,0.0119,0.0,0.0,0.0,0.0,0.0,0.0,0.0,0.0,0.0303,0.0429,0.0454,0.0757,0.0883,-0.6995,-0.7239,-0.7594,-0.7597,-0.7706,-0.7824,-0.7973,-0.7982,-0.7985,-0.7988,-0.7988,-0.8064,-0.8267,-0.8298,-0.8342,-0.8485,-0.8509,-0.8505,-0.8502,-0.8383,-0.8345,-0.8478,-0.7332,-0.6654,0.0,-0.7749,-0.8413,-0.8686,-0.7496,-0.6867,-0.7141,-0.5806,-0.4994,-0.4968,-0.4719,-0.4385,-0.4021,-0.2849,-0.2153,-0.1875,-0.0672,-0.0112,-0.0112,-0.0084,-0.0028,0.0,0.0,0.0,0.0,0.0,0.0,0.0,0.0,0.0,0.0,0.0,0.0,0.0,0.0,0.0,0.0,0.0,0.0,0.0,0.0,0.0,0.0,0.0,0.0,0.0051,0.0328,0.0404,0.048,0.0732,0.101,0.1212,0.1212,0.1415,0.1591,0.159,0.1592,0.1595,0.1594,0.1544,0.1405,0.1143,0.1332,0.1478,0.1398,0.1233,0.1017,0.0739,0.0541,0.0404,0.0404,0.0167,0.0024,0.0024,0.0,0.0,0.0,0.0,0.0,0.0,0.0,0.0,0.0,0.1034,0.1563,0.1588,0.262,0.3098,-0.725,-0.7102,-0.687,-0.767,-0.7902,-0.7952,-0.8003,-0.7437,-0.6936,-0.6936,-0.6936,-0.7002,-0.7205,-0.7827,-0.8114,-0.752,-0.7449,-0.7151,-0.6344,-0.6241,-0.6197,-0.6112,-0.5822,0.0,0.0,0.0,0.0,-0.6481,-0.5961,-0.5629,-0.5629,-0.5162,-0.4437,-0.3463,-0.3129,-0.2544,-0.1623,-0.1036,-0.07,-0.0588,-0.0196,0.0,0.0,0.0,0.0,0.0,0.0,0.0,0.0,0.0,0.0,0.0,0.0,0.0,0.0,0.0,0.0,0.0,0.0,0.0,0.0,0.0,0.0,0.0,0.0,0.0,0.0025,0.0227,0.0278,0.0328,0.0606,0.0808,0.096,0.1035,0.1263,0.1465,0.1465,0.1541,0.1592,0.1592,0.1609,0.1545,0.1353,0.1319,0.1186,0.0884,0.0906,0.102,0.117,0.0869,0.059,0.0519,0.0285,0.0143,0.0143,0.0048,0.0,0.0,0.0,0.0,0.0,0.0,0.0,0.0,0.0707,0.1059,0.1059,0.2142,0.267,0.267,0.3022,0.3244,-0.648,-0.6158,-0.5818,-0.665,-0.6858,-0.6858,-0.6858,-0.6331,-0.5832,-0.5832,-0.5825,-0.5879,-0.5987,-0.6622,-0.6938,-0.636,-0.6325,-0.6085,-0.5322,-0.521,-0.5186,-0.5133,-0.4778,-0.4534,0.0,0.0,0.0,-0.5319,-0.4738,-0.4288,-0.4265,-0.3631,-0.285,-0.1903,-0.1566,-0.1036,-0.0252,-0.0084,0.0,0.0,0.0,0.0,0.0,0.0,0.0,0.0,0.0,0.0,0.0,0.0,0.0,0.0,0.0,0.0,0.0,0.0,0.0,0.0,0.0,0.0,0.0,0.0,0.0,0.0,0.0,0.0076,0.0177,0.0354,0.048,0.0606,0.0884,0.1061,0.1212,0.1314,0.1465,0.1592,0.1592,0.1592,0.1566,0.1465,0.1465,0.1384,0.1093,0.0967,0.0864,0.0756,0.0584,0.0557,0.0812,0.0575,0.0409,0.0409,0.0242,0.0146,0.0146,0.0148,0.0099,0.0,0.0,0.0,0.0,0.0379,0.058,0.058,0.1613,0.2167,0.2167,0.3249,0.3776,0.3778,0.4206,0.4447,-0.4868,-0.4555,-0.4575,-0.4754,-0.4799,-0.4799,-0.4799,-0.477,-0.4716,-0.4716,-0.472,-0.4708,-0.4719,-0.4868,-0.4985,-0.5011,-0.5161,-0.528,-0.5227,-0.5104,-0.5107,-0.5272,-0.4116,-0.3238,-0.311,-0.2001,0.0,-0.4977,0.0,-0.286,-0.2961,-0.1344,-0.0393,-0.0393,-0.014,0.0,0.0,0.0,0.0,0.0,0.0,0.0,0.0,0.0,0.0,0.0,0.0,0.0,0.0,0.0,0.0028,0.0084,0.0083,0.0137,0.0191,0.0188,0.0187,0.0186,0.0183,0.0103,0.0,0.0076,0.0076,0.0101,0.0151,0.0353,0.0581,0.0606,0.0783,0.1035,0.1313,0.1389,0.1439,0.1692,0.1717,0.1693,0.1693,0.1642,0.1516,0.1263,0.1187,0.1086,0.0833,0.0556,0.0455,0.0732,0.0328,0.01,0.036,0.0389,0.0393,0.0393,0.0425,0.0429,0.0429,0.0404,0.0303,0.0126,0.0101,0.0101,0.0151,0.1135,0.1688,0.1688,0.2746,0.3274,0.3274,0.4356,0.4887,0.4918,0.608,0.6601,-0.4452,-0.4079,-0.3752,-0.4593,-0.4799,-0.4799,-0.4799,-0.4178,-0.3597,-0.3597,-0.3567,-0.3523,-0.3541,-0.4267,-0.4611,-0.3869,-0.3852,-0.3629,-0.2836,-0.2727,-0.2672,-0.2473,-0.2134,-0.1811,-0.1502,-0.1185,0.0,0.0,-0.1639,-0.1321,-0.1091,-0.0645,-0.0308,-0.0112,-0.0028,0.0,0.0,0.0,0.0,0.0,0.0,0.0,0.0,0.0,0.0,0.0,0.0,0.0,0.0,0.0,0.0532,0.1344,0.1338,0.1892,0.2669,0.2684,0.2686,0.2682,0.2669,0.1506,0.0129,0.0938,0.1185,0.1387,0.2391,0.2717,0.2868,0.3268,0.3419,0.3544,0.3822,0.3874,0.3899,0.3974,0.3374,0.2797,0.2797,0.217,0.1516,0.1263,0.0884,0.0581,0.0505,0.0278,0.0126,0.0202,0.0076,0.0101,0.0374,0.04,0.0401,0.0401,0.0579,0.0707,0.0707,0.0505,0.0707,0.1438,0.1312,0.1563,0.2343,0.2645,0.2796,0.2796,0.3852,0.4381,0.4381,0.5459,0.6055,0.6139,0.6451,0.6717,-0.3249,-0.2901,-0.2647,-0.3249,-0.3399,-0.3392,-0.3388,-0.2936,-0.2488,-0.2469,-0.2414,-0.2396,-0.2396,-0.2912,-0.3181,-0.2681,-0.2656,-0.2458,-0.1738,-0.1674,-0.1611,-0.1265,-0.1213,-0.1093,-0.0753,-0.0711,-0.0674,0.0,-0.062,-0.061,-0.042,-0.028,-0.0168,0.0,0.0,0.0,0.0,0.0,0.0,0.0,0.0,0.0,0.0,0.0,0.028,0.0784,0.0,0.1092,0.1567,0.1567,0.1987,0.2602,0.2602,0.2993,0.3608,0.3608,0.3586,0.3608,0.3743,0.288,0.1847,0.2391,0.265,0.2873,0.3577,0.3869,0.4021,0.432,0.4495,0.4622,0.4749,0.4799,0.4799,0.4799,0.435,0.3899,0.3899,0.3423,0.2897,0.2495,0.1991,0.1639,0.1639,0.1513,0.1235,0.0782,0.111,0.1336,0.1135,0.0681,0.0455,0.0556,0.0808,0.1161,0.1639,0.1538,0.1814,0.2644,0.2567,0.2694,0.3173,0.3651,0.3904,0.3904,0.4958,0.5509,0.5509,0.6112,0.6474,0.6596,0.6647,0.6801,-0.1843,-0.1592,-0.1592,-0.1592,-0.1592,-0.1609,-0.1603,-0.1593,-0.1574,-0.1516,-0.1501,-0.1498,-0.1498,-0.1502,-0.1531,-0.1616,-0.1677,-0.1642,-0.1378,-0.139,-0.1294,-0.0988,-0.0926,-0.0803,-0.0463,-0.0426,-0.03,-0.003,-0.023,-0.0338,-0.0336,-0.014,0.0,0.0,0.0,0.0,0.0,0.0,0.0,0.0,0.0168,0.0252,0.0252,0.0392,0.1036,0.2043,0.0,0.0,0.3608,0.3608,0.3692,0.3832,0.3832,0.3943,0.4083,0.4083,0.4111,0.4157,0.4395,0.4533,0.4535,0.4226,0.4252,0.4468,0.4523,0.4696,0.4864,0.4914,0.5058,0.5225,0.5225,0.5225,0.5225,0.5225,0.5125,0.5002,0.5002,0.4849,0.4549,0.4049,0.3549,0.3198,0.3198,0.3198,0.2897,0.1941,0.2645,0.2996,0.229,0.1436,0.0984,0.1262,0.1514,0.2043,0.2995,0.3045,0.3246,0.3822,0.3822,0.3748,0.3626,0.4531,0.501,0.501,0.5937,0.6412,0.6412,0.6428,0.6498,0.662,0.6771,0.6891,-0.1642,-0.1592,-0.1592,-0.1592,-0.1592,-0.1609,-0.1603,-0.1552,-0.1524,-0.1511,-0.1461,-0.142,-0.142,-0.1465,-0.1451,-0.1311,-0.1354,-0.1285,-0.1024,-0.1048,-0.0974,-0.0616,-0.0587,-0.0463,-0.0123,-0.0091,0.0,0.0,-0.003,-0.0058,-0.0056,-0.0028,0.0,0.0,0.0,0.0,0.0,0.0,0.0,0.0,0.1008,0.1484,0.1512,0.2519,0.3078,0.3301,0.0,0.0,0.3608,0.3608,0.4196,0.5091,0.5091,0.5704,0.6566,0.6566,0.6707,0.6904,0.6966,0.7315,0.7487,0.6143,0.5731,0.5965,0.7049,0.7334,0.7349,0.7559,0.7525,0.7434,0.7434,0.7434,0.7434,0.7434,0.6758,0.6134,0.6134,0.5077,0.4049,0.3728,0.3425,0.3198,0.3198,0.3198,0.3148,0.2947,0.3271,0.347,0.3344,0.3345,0.347,0.3745,0.4022,0.4248,0.4449,0.4246,0.4449,0.5206,0.5054,0.5204,0.5807,0.6034,0.6109,0.6109,0.6312,0.6412,0.6412,0.6512,0.6623,0.6774,0.6896,0.7043,-0.1592,-0.1592,-0.1592,-0.1592,-0.1592,-0.1579,-0.1558,-0.1512,-0.1485,-0.1446,-0.1412,-0.1408,-0.1392,-0.1461,-0.1475,-0.141,-0.1345,-0.1197,-0.0923,-0.0796,-0.0601,-0.0277,-0.0247,-0.0185,-0.0031,0.0,0.0,0.0,0.0,0.0,0.0,0.0,0.0,0.0,0.0,0.0308,0.0924,0.0924,0.126,0.1875,0.2463,0.2742,0.277,0.3329,0.3943,0.4531,0.4531,0.0,0.5477,0.5477,0.5813,0.6346,0.6346,0.6765,0.741,0.741,0.7576,0.7826,0.802,0.8266,0.8407,0.7756,0.7505,0.7567,0.8137,0.8252,0.8231,0.8289,0.8243,0.814,0.8037,0.7988,0.7988,0.7988,0.7615,0.7188,0.7067,0.6309,0.5579,0.5309,0.5056,0.4853,0.4853,0.4853,0.468,0.413,0.473,0.5104,0.4697,0.5354,0.5504,0.4495,0.4647,0.5027,0.5579,0.5502,0.5729,0.6387,0.6309,0.6284,0.6387,0.6412,0.6412,0.6412,0.6412,0.6442,0.6507,0.6566,0.6714,0.6899,0.6959,0.7073,-0.1592,-0.1592,-0.1592,-0.1592,-0.1566,-0.15,-0.1444,-0.1383,-0.1337,-0.1262,-0.1286,-0.1339,-0.1338,-0.1371,-0.1423,-0.1414,-0.1238,-0.1006,-0.0737,-0.0525,-0.0299,-0.0031,0.0,0.0,0.0,0.0,0.0,0.0394,0.0695,0.0,0.0403,0.0397,0.0506,0.0756,0.0784,0.1232,0.2183,0.2183,0.2658,0.3608,0.386,0.3999,0.3999,0.425,0.4894,0.5789,0.5789,0.0,0.0,0.721,0.721,0.721,0.7265,0.741,0.7607,0.766,0.7854,0.8156,0.8401,0.854,0.8626,0.8826,0.8831,0.871,0.8615,0.8557,0.8509,0.842,0.8345,0.8267,0.8098,0.804,0.7988,0.7988,0.7988,0.7917,0.7646,0.7391,0.7113,0.6845,0.6589,0.6412,0.6412,0.6412,0.6112,0.5261,0.6139,0.6664,0.6027,0.6961,0.7036,0.5347,0.535,0.5827,0.6661,0.6736,0.6861,0.7188,0.7213,0.6961,0.6412,0.6412,0.6412,0.6412,0.6436,0.6498,0.6593,0.6645,0.6796,0.7013,0.7037,0.7098,-0.1592,-0.1592,-0.1592,-0.1592,-0.1415,-0.1225,-0.1227,-0.1049,-0.0848,-0.0767,-0.0963,-0.1121,-0.1118,-0.1144,-0.1055,-0.0827,-0.0624,-0.039,-0.0111,-0.0059,-0.003,0.0,0.0,0.0,0.0,0.0,0.0493,0.1723,0.0,0.0,0.1697,0.1634,0.2133,0.3246,0.3273,0.3329,0.3441,0.3441,0.3497,0.3608,0.4698,0.5232,0.526,0.6371,0.693,0.7043,0.0,0.0,0.0,0.721,0.721,0.721,0.7465,0.7579,0.7635,0.7881,0.8183,0.8457,0.8484,0.8654,0.8854,0.8881,0.8902,0.8889,0.8875,0.8774,0.8686,0.8672,0.8476,0.8294,0.8277,0.8143,0.7988,0.7988,0.7988,0.7917,0.7646,0.7391,0.7113,0.6845,0.6589,0.6412,0.6412,0.6412,0.6362,0.6262,0.6761,0.7138,0.7061,0.7587,0.7889,0.7686,0.7686,0.7739,0.7839,0.7864,0.7665,0.7238,0.7213,0.6961,0.6412,0.6412,0.6412,0.6412,0.652,0.6582,0.6593,0.6842,0.6961,0.7016,0.7119,0.7199,-0.1108,-0.1111,-0.1111,-0.1111,-0.1035,-0.095,-0.0962,-0.0882,-0.0778,-0.0724,-0.0785,-0.0852,-0.0852,-0.0852,-0.0843,-0.0766,-0.0558,-0.0351,-0.0243,0.053,0.1121,0.1184,0.1846,0.2301,0.2339,0.0,0.2555,0.3109,0.0,0.0,0.4135,0.342,0.3188,0.3582,0.3608,0.3943,0.467,0.467,0.5061,0.5785,0.626,0.6485,0.6513,0.6985,0.721,0.721,0.0,0.0,0.0,0.7438,0.7546,0.7684,0.7795,0.7965,0.8156,0.8266,0.8488,0.874,0.874,0.8799,0.8912,0.8912,0.8912,0.8912,0.8912,0.8869,0.8801,0.871,0.8625,0.8513,0.8447,0.835,0.8282,0.8201,0.8177,0.8027,0.7484,0.7263,0.7064,0.6639,0.6462,0.6412,0.6412,0.6412,0.6462,0.6614,0.6964,0.7263,0.7416,0.7764,0.7988,0.7988,0.7988,0.7988,0.7988,0.7988,0.7839,0.7469,0.7288,0.7039,0.6667,0.6487,0.6447,0.652,0.6569,0.6666,0.6839,0.6937,0.7048,0.7117,0.7188,0.721,-0.0747,-0.0805,-0.0808,-0.0808,-0.0732,-0.06,-0.0336,-0.0214,-0.0047,0.0294,0.0291,0.0246,0.0246,0.0246,0.0226,0.0188,0.0429,0.0614,0.0655,0.1602,0.2329,0.2471,0.3208,0.3773,0.3876,0.4233,0.449,0.449,0.0,0.0,0.0,0.5448,0.4868,0.4706,0.4681,0.5061,0.5929,0.5929,0.6346,0.721,0.7218,0.7237,0.7237,0.7237,0.7237,0.7234,0.0,0.0,0.0,0.769,0.7826,0.8017,0.81,0.8291,0.8512,0.8598,0.874,0.8912,0.8912,0.8912,0.8912,0.8912,0.8912,0.8912,0.8912,0.8912,0.8889,0.8781,0.872,0.8676,0.8523,0.8509,0.8485,0.8383,0.8325,0.8162,0.7651,0.7419,0.7188,0.6736,0.6637,0.6612,0.6539,0.6587,0.6711,0.6892,0.7141,0.7391,0.7572,0.7842,0.7988,0.7988,0.7988,0.7988,0.7988,0.7988,0.7892,0.7621,0.7341,0.7089,0.682,0.6575,0.6504,0.6593,0.669,0.6812,0.7013,0.7046,0.7103,0.721,0.721,0.721,-0.0586,-0.0797,-0.0808,-0.0808,-0.0606,-0.015,0.0768,0.1189,0.167,0.2666,0.2661,0.2457,0.2457,0.2457,0.2475,0.2458,0.2742,0.3001,0.3143,0.33,0.344,0.3557,0.3601,0.364,0.3787,0.5059,0.5876,0.0,0.0,0.0,0.0,0.7671,0.7528,0.7282,0.7189,0.7182,0.7182,0.7182,0.7182,0.7213,0.7277,0.7305,0.7305,0.7305,0.7305,0.0,0.0,0.0,0.0,0.7881,0.7989,0.8045,0.8374,0.8484,0.854,0.8799,0.8912,0.8912,0.8912,0.8912,0.8912,0.8912,0.8912,0.8912,0.8912,0.8912,0.8912,0.8909,0.8801,0.8676,0.8523,0.8509,0.8509,0.8505,0.84,0.8298,0.8294,0.7923,0.7519,0.7238,0.7188,0.7113,0.6842,0.7014,0.7188,0.7188,0.7419,0.7596,0.7596,0.7842,0.7988,0.7988,0.7988,0.7988,0.7988,0.7988,0.7892,0.7621,0.7341,0.7089,0.682,0.6658,0.6593,0.6593,0.6858,0.701,0.7013,0.7125,0.721,0.721,0.721,0.721,0.1784,0.1736,0.1719,0.1719,0.1793,0.1925,0.2225,0.2375,0.2519,0.2838,0.2843,0.2774,0.2774,0.2774,0.2819,0.2957,0.3059,0.3214,0.3455,0.4248,0.4919,0.5143,0.6049,0.6671,0.0,0.0,0.7255,0.0,0.0,0.0,0.0,0.7744,0.7589,0.7316,0.738,0.7351,0.7213,0.7236,0.7236,0.7213,0.7277,0.7419,0.765,0.7737,0.0,0.0,0.0,0.0,0.0,0.8398,0.8522,0.8639,0.8874,0.8882,0.8799,0.8881,0.8912,0.8912,0.8912,0.8912,0.8912,0.8912,0.8912,0.8912,0.8912,0.8912,0.8912,0.8912,0.8875,0.8828,0.8781,0.8767,0.874,0.8662,0.8604,0.849,0.8233,0.8043,0.7856,0.7597,0.7545,0.7489,0.7321,0.7353,0.7424,0.7456,0.7673,0.7825,0.7856,0.8141,0.8265,0.8037,0.8196,0.8258,0.8008,0.7988,0.7892,0.7621,0.7431,0.7226,0.6952,0.6811,0.6785,0.6869,0.6945,0.7051,0.7128,0.7166,0.721,0.721,0.721,0.721,0.3045,0.2905,0.2899,0.2899,0.2899,0.3002,0.3358,0.3434,0.3529,0.389,0.3963,0.3963,0.3963,0.3963,0.4023,0.4182,0.4315,0.4457,0.47,0.5563,0.6287,0.6551,0.7423,0.7968,0.0,0.7875,0.0,0.0,0.0,0.0,0.0,0.7834,0.7676,0.7449,0.743,0.7377,0.7253,0.7368,0.7424,0.7418,0.7627,0.7858,0.8136,0.8222,0.0,0.0,0.0,0.0,0.0,0.8888,0.9017,0.9113,0.9233,0.9213,0.9078,0.9078,0.9069,0.9018,0.9018,0.8956,0.8912,0.8912,0.8912,0.8912,0.8912,0.8912,0.8912,0.8912,0.8912,0.8912,0.8912,0.8912,0.8885,0.8791,0.8727,0.8632,0.8378,0.8289,0.8171,0.7911,0.7937,0.7935,0.7768,0.7804,0.7904,0.7945,0.8055,0.8129,0.8192,0.8367,0.8411,0.8199,0.8374,0.8408,0.8196,0.8179,0.8055,0.7779,0.7579,0.7364,0.7079,0.6938,0.6907,0.701,0.7054,0.7111,0.721,0.721,0.721,0.721,0.721,0.721,0.0,0.3101,0.31,0.31,0.31,0.3319,0.4204,0.4393,0.0,0.5531,0.5688,0.5716,0.5735,0.5729,0.577,0.5931,0.617,0.6399,0.6588,0.7037,0.7433,0.7698,0.7856,0.0,0.7725,0.784,0.0,0.0,0.0,0.0,0.0,0.7933,0.7884,0.7747,0.7512,0.7381,0.7334,0.7545,0.7713,0.7846,0.8205,0.8512,0.8739,0.8748,0.0,0.0,0.0,0.0,0.0,0.9278,0.942,0.9413,0.9424,0.942,0.941,0.941,0.9322,0.9224,0.9214,0.9072,0.894,0.8929,0.8919,0.8912,0.8912,0.8912,0.8912,0.8912,0.8912,0.8912,0.8912,0.8912,0.8912,0.8912,0.8801,0.8726,0.8726,0.8615,0.8464,0.8203,0.8358,0.8434,0.819,0.8341,0.8522,0.8509,0.8515,0.8522,0.8509,0.8529,0.8532,0.8509,0.8529,0.8536,0.8526,0.8515,0.8351,0.8039,0.7789,0.7528,0.7258,0.7144,0.7051,0.7054,0.7155,0.721,0.721,0.721,0.721,0.721,0.721,0.721,0.5127,0.0,0.5041,0.5041,0.5041,0.5104,0.0,0.5367,0.5427,0.5649,0.5688,0.5765,0.5969,0.5926,0.5994,0.6363,0.6499,0.6622,0.6866,0.7388,0.7832,0.7984,0.8076,0.8065,0.7883,0.7886,0.0,0.0,0.0,0.7903,0.0,0.815,0.8263,0.8235,0.8316,0.8163,0.7675,0.8027,0.8202,0.8196,0.8323,0.8629,0.9096,0.9145,0.0,0.0,0.0,0.0,0.9304,0.9481,0.9486,0.9424,0.951,0.9486,0.941,0.941,0.9386,0.9339,0.9251,0.9237,0.9259,0.9169,0.9028,0.8912,0.8912,0.8912,0.8912,0.8912,0.8912,0.8912,0.8912,0.8912,0.8912,0.8912,0.8882,0.8855,0.8855,0.8828,0.8777,0.8722,0.875,0.874,0.8598,0.8602,0.8618,0.8526,0.8581,0.8615,0.8526,0.8686,0.8716,0.8532,0.8693,0.8757,0.8665,0.855,0.8377,0.8092,0.8118,0.8015,0.7741,0.7762,0.7671,0.7453,0.7282,0.721,0.721,0.721,0.721,0.721,0.721,0.721,0.5672,0.5789,0.5873,0.5873,0.5873,0.5873,0.5873,0.5789,0.5688,0.5688,0.5688,0.5765,0.5969,0.5994,0.6105,0.645,0.6604,0.6864,0.7354,0.7747,0.8031,0.8122,0.8164,0.8109,0.0,0.0,0.0,0.0,0.0,0.0,0.0,0.8458,0.8644,0.8644,0.8842,0.873,0.8226,0.8497,0.8645,0.8726,0.8887,0.9143,0.9463,0.9512,0.96,0.0,0.0,0.0,0.9588,0.9673,0.9656,0.9591,0.9676,0.9656,0.9585,0.9585,0.954,0.9473,0.942,0.94,0.9396,0.9315,0.9186,0.9035,0.9035,0.8963,0.8912,0.8912,0.8912,0.8912,0.8912,0.8912,0.8912,0.8912,0.8912,0.8912,0.8912,0.8912,0.8912,0.8912,0.8912,0.8885,0.8801,0.8787,0.876,0.8703,0.8733,0.8757,0.8703,0.8808,0.8848,0.871,0.8814,0.8879,0.8794,0.8737,0.8558,0.8313,0.836,0.8266,0.7962,0.7977,0.7881,0.7607,0.7465,0.7324,0.721,0.721,0.721,0.721,0.721,0.721,0.5732,0.5945,0.6121,0.6051,0.6096,0.6129,0.6091,0.5918,0.5765,0.5765,0.5765,0.5811,0.5983,0.6081,0.6227,0.6477,0.6752,0.7143,0.7837,0.802,0.8129,0.8188,0.8185,0.0,0.0,0.0,0.0,0.0,0.0,0.0,0.0,0.8793,0.8976,0.8976,0.9217,0.9217,0.886,0.8961,0.9098,0.9271,0.9486,0.9683,0.9792,0.9792,0.9792,0.0,0.0,0.0,0.9792,0.9792,0.9792,0.9792,0.9792,0.9792,0.9792,0.9792,0.9714,0.9642,0.9642,0.9527,0.9413,0.9437,0.9342,0.9245,0.9245,0.9103,0.8977,0.8977,0.8946,0.8912,0.8912,0.8912,0.8912,0.8912,0.8912,0.8912,0.8912,0.8912,0.8912,0.8912,0.8912,0.8912,0.8912,0.8912,0.8912,0.8912,0.8912,0.8912,0.8912,0.8912,0.8912,0.8912,0.8912,0.8912,0.8912,0.8912,0.8799,0.8571,0.8571,0.8432,0.8156,0.81,0.7937,0.766,0.7635,0.7465,0.721,0.721,0.721,0.721,0.721,0.7265,0.5827,0.61,0.626,0.5865,0.6015,0.6211,0.5977,0.5983,0.6032,0.6032,0.6032,0.613,0.6425,0.6414,0.6504,0.6999,0.7249,0.7554,0.7998,0.8074,0.8129,0.8188,0.0,0.0,0.0,0.0,0.0,0.0,0.0,0.0,0.0,0.9095,0.9247,0.9247,0.9548,0.969,0.9637,0.9526,0.9496,0.9549,0.9579,0.9683,0.9792,0.9792,0.9792,0.0,0.0,0.9792,0.9792,0.9792,0.9792,0.9792,0.9792,0.9792,0.9792,0.9792,0.9775,0.9758,0.9758,0.9608,0.943,0.9534,0.9469,0.9376,0.9376,0.9359,0.9313,0.9313,0.913,0.8912,0.8912,0.8912,0.8912,0.8912,0.8912,0.8912,0.8912,0.8912,0.8912,0.8912,0.8912,0.8912,0.8912,0.8912,0.8912,0.8912,0.8912,0.8912,0.8912,0.8912,0.8912,0.8912,0.8912,0.8912,0.8912,0.8912,0.8881,0.8854,0.8826,0.8826,0.8771,0.8543,0.8266,0.7934,0.7715,0.7465,0.721,0.721,0.721,0.721,0.721,0.7598,0.5775,0.6,0.6195,0.5977,0.6244,0.6526,0.6415,0.6331,0.6249,0.6249,0.6249,0.632,0.6553,0.6601,0.679,0.7274,0.7554,0.7821,0.8053,0.8143,0.8149,0.0,0.0,0.0,0.0,0.0,0.0,0.0,0.0,0.0,0.0,0.0,0.9579,0.9579,0.9731,0.9792,0.9792,0.9724,0.9694,0.9694,0.9694,0.9727,0.9792,0.9792,0.9792,0.9792,0.0,1.0183,1.0815,1.0815,1.1235,1.1924,1.1924,1.1924,1.1924,1.1924,1.1924,1.1924,1.1924,1.1817,1.1605,1.095,1.0654,1.0515,1.0515,1.048,1.0582,1.1265,1.0292,0.9055,0.9055,0.897,0.8912,0.8912,0.8912,0.8912,0.8912,0.8912,0.8912,0.8912,0.8912,0.8912,0.8912,0.8912,0.8912,0.8912,0.8912,0.8912,0.8912,0.8912,0.8912,0.8912,0.8912,0.8912,0.8912,0.8912,0.8912,0.8912,0.8912,0.8912,0.8912,0.8768,0.8571,0.8266,0.7962,0.7687,0.741,0.7268,0.721,0.721,0.7681,0.8125,0.5743,0.5926,0.6115,0.6145,0.6404,0.67,0.6782,0.6609,0.6477,0.6561,0.6558,0.6574,0.6722,0.6869,0.7089,0.743,0.7741,0.7979,0.8072,0.8196,0.8252,0.819,0.0,0.0,0.0,0.0,0.0,0.0,0.0,0.0,0.0,0.0,1.0243,1.0243,1.0543,1.0725,1.0725,1.0725,1.0422,0.9792,1.0092,1.0243,1.0274,1.0573,1.0725,1.0725,1.0725,1.1265,1.2169,1.2169,1.2766,1.3695,1.3695,1.3695,1.3695,1.3695,1.3695,1.3695,1.3695,1.3695,1.3515,1.25,1.2103,1.2014,1.2014,1.1942,1.2055,1.3034,1.1802,1.018,1.0143,0.9984,0.9813,0.9813,0.9562,0.9399,0.9671,0.9292,0.8992,0.9265,0.9316,0.9237,0.8937,0.9127,0.9237,0.8937,0.8912,0.8992,0.9289,0.9316,0.9316,0.9316,0.9316,0.921,0.8937,0.8912,0.8912,0.8912,0.8912,0.8912,0.8912,0.8912,0.8768,0.8512,0.8512,0.8208,0.7607,0.7875,0.7845,0.7515,0.8398,0.8923,0.586,0.5986,0.6137,0.6252,0.6306,0.6418,0.6728,0.67,0.67,0.7062,0.7046,0.7007,0.7122,0.7309,0.7449,0.7484,0.7842,0.8074,0.8083,0.0,0.8466,0.0,0.0,0.0,0.0,0.0,0.0,0.0,0.0,0.0,0.0,0.0,0.0,1.1571,1.2766,1.3426,1.3426,1.3426,1.2195,0.9822,1.0997,1.1571,1.1601,1.2856,1.3426,1.3426,1.3426,1.3485,1.3545,1.3545,1.3605,1.3695,1.3695,1.3695,1.3695,1.3695,1.3695,1.3695,1.3695,1.3695,1.3695,1.3575,1.3566,1.3552,1.3552,1.3542,1.3558,1.3647,1.3378,1.308,1.2941,1.2711,1.2534,1.2534,1.1508,1.0863,1.1928,1.0433,0.9237,1.0347,1.0566,1.021,0.9103,0.9833,1.0186,0.9075,0.8912,0.932,1.0429,1.0566,1.0566,1.0566,1.0566,1.0131,0.8992,0.8912,0.8912,0.8912,0.8912,0.8912,0.8912,0.8912,0.8768,0.8512,0.9523,0.9247,0.7607,0.9523,0.9743,0.8429,0.9306,1.0131,0.5762,0.5939,0.6163,0.6477,0.6467,0.6467,0.6834,0.6961,0.7059,0.732,0.7347,0.7363,0.7553,0.8514,0.9307,0.9362,0.9647,1.0122,1.0978,1.0456,0.0,0.0,0.0,0.0,0.0,0.0,0.0,0.0,0.0,0.0,0.0,0.0,0.0,1.2946,1.3426,1.3695,1.3695,1.3695,1.3211,1.2225,1.2706,1.2946,1.2946,1.3455,1.3695,1.3695,1.3695,1.4143,1.4887,1.4887,1.5367,1.6048,1.6048,1.6048,1.6048,1.6048,1.6048,1.6048,1.6048,1.6048,1.593,1.5154,1.4887,1.4887,1.4887,1.4887,1.5035,1.5841,1.6011,1.5551,1.3771,1.3184,1.3021,1.2837,1.2386,1.2073,1.2332,1.171,1.1223,1.1683,1.176,1.1601,1.1168,1.1437,1.1596,1.1141,1.1086,1.1246,1.171,1.176,1.1492,1.0781,1.0025,0.9399,0.8937,0.874,0.8875,0.943,0.9103,0.8912,0.8912,0.8912,0.9206,0.9853,1.0096,1.0233,1.0343,1.059,1.0398,0.988,1.0378,1.0794,0.5857,0.6049,0.6327,0.6716,0.6776,0.6847,0.7253,0.7265,0.7292,0.7664,0.7748,0.7953,0.852,0.9609,1.057,0.0,1.1324,1.1788,1.2695,0.0,0.0,0.0,0.0,0.0,0.0,0.0,0.0,0.0,0.0,0.0,0.0,0.0,0.0,0.0,1.4679,1.4887,1.4887,1.4887,1.4887,1.4887,1.4887,1.4679,1.4321,1.4708,1.4887,1.4887,1.4887,1.5391,1.6196,1.6196,1.6708,1.7514,1.7514,1.7514,1.7514,1.7514,1.7514,1.7514,1.7514,1.7514,1.7361,1.6467,1.6196,1.6196,1.6196,1.6196,1.6378,1.7244,1.7514,1.7079,1.5189,1.4562,1.4383,1.4199,1.3742,1.3435,1.3585,1.2977,1.2494,1.2879,1.296,1.2852,1.2472,1.2716,1.2876,1.2557,1.2455,1.2577,1.3026,1.3031,1.2526,1.1355,1.0186,0.9289,0.8823,0.8598,0.8844,0.962,0.9454,0.9261,0.9185,0.9699,1.0213,1.0699,1.1187,1.1651,1.201,1.1873,1.1574,1.1109,1.1396,1.1509,0.6227,0.6389,0.6608,0.7,0.7294,0.7608,0.8011,0.7629,0.7401,0.8068,0.8334,0.882,1.0174,1.0434,1.0889,1.2314,1.2646,1.2735,0.0,0.0,0.0,0.0,0.0,0.0,0.0,0.0,0.0,0.0,0.0,0.0,0.0,0.0,0.0,0.0,1.6856,1.7514,1.7514,1.7514,1.7514,1.7514,1.7514,1.6856,1.5658,1.6915,1.7514,1.7514,1.7514,1.7514,1.7514,1.7514,1.7514,1.7514,1.7514,1.7514,1.7514,1.7514,1.7514,1.7514,1.7514,1.7514,1.7514,1.7514,1.7514,1.7514,1.7514,1.7514,1.7514,1.7514,1.7514,1.7514,1.7514,1.7292,1.7092,1.7092,1.5834,1.4933,1.6065,1.426,1.2802,1.3975,1.4223,1.384,1.2635,1.343,1.3892,1.2969,1.2605,1.2962,1.4432,1.4369,1.3727,1.2553,1.1383,1.0096,0.865,0.8512,0.8758,0.9361,0.9904,1.0104,0.9816,1.1469,1.1869,1.0754,1.3019,1.3484,1.2037,1.3511,1.3462,1.2041,1.23,1.2414,0.614,0.6505,0.6946,0.7297,0.7612,0.7952,0.8293,0.8245,0.8212,0.8609,0.9513,1.0343,1.0754,1.2494,0.0,1.4405,1.4605,0.0,0.0,0.0,0.0,0.0,0.0,0.0,0.0,0.0,0.0,0.0,0.0,0.0,0.0,0.0,0.0,0.0,1.7303,1.7514,1.7514,1.7514,1.7514,1.7514,1.7514,1.7303,1.6944,1.7332,1.7514,1.7514,1.7514,1.7514,1.7514,1.7514,1.7514,1.7514,1.7514,1.7514,1.7514,1.7514,1.7514,1.7514,1.7514,1.7514,1.7514,1.7514,1.7514,1.7514,1.7514,1.7514,1.7514,1.7514,1.7514,1.7514,1.7514,1.7454,1.7322,1.7135,1.6709,1.6348,1.6307,1.5693,1.5202,1.5353,1.5405,1.5265,1.4911,1.5329,1.5582,1.5296,1.5348,1.5526,1.5759,1.4864,1.4056,1.37,1.2282,1.0891,0.9798,0.914,0.8868,0.903,0.999,1.0703,1.1059,1.1928,1.2635,1.3154,1.384,1.4461,1.503,1.5041,1.4696,1.4017,1.353,1.3078,0.6572,0.6912,0.7332,0.7841,0.8225,0.8698,0.9581,0.9661,0.9586,0.9798,1.0972,1.214,1.2715,1.4185,0.0,1.6066,0.0,0.0,0.0,0.0,0.0,0.0,0.0,0.0,0.0,0.0,0.0,0.0,0.0,0.0,0.0,0.0,0.0,0.0,1.7514,1.7514,1.7514,1.7514,1.7514,1.7514,1.7514,1.7514,1.7514,1.7514,1.7514,1.7514,1.7514,1.7514,1.7514,1.7514,1.7514,1.7514,1.7514,1.7514,1.7514,1.7514,1.7514,1.7514,1.7514,1.7514,1.7514,1.7514,1.7514,1.7514,1.7514,1.7514,1.7514,1.7514,1.7514,1.7514,1.7514,1.7514,1.7472,1.7315,1.7165,1.6972,1.6537,1.6384,1.6232,1.594,1.5891,1.5922,1.6051,1.6202,1.6384,1.6595,1.6658,1.6561,1.6193,1.5396,1.4708,1.425,1.2829,1.1406,1.0151,0.9113,0.8592,0.873,0.9962,1.1137,1.2091,1.2965,1.3673,1.4196,1.4743,1.5443,1.6305,1.5808,1.5328,1.4875,1.408,1.3371,0.7294,0.7512,0.7708,0.8478,0.8961,0.9627,1.1166,1.1405,1.1371,1.1493,1.2552,1.3874,1.5325,1.5538,1.5927,1.729,0.0,0.0,0.0,0.0,0.0,0.0,0.0,0.0,0.0,0.0,0.0,0.0,0.0,0.0,0.0,0.0,0.0,1.7514,1.7514,1.7514,1.7514,1.7514,1.7514,0.0,1.7514,1.7514,1.7514,1.7514,1.7514,1.7514,1.7514,1.7514,1.7514,1.7514,1.7514,1.7514,1.7514,1.7514,1.7514,1.7514,1.7514,1.7514,1.7514,1.7514,1.7514,1.7514,1.7514,1.7514,1.7514,1.7514,1.7514,1.7514,1.7514,1.7514,1.7514,1.7514,1.7514,1.7514,1.7315,1.702,1.6754,1.6483,1.6232,1.594,1.5891,1.6003,1.6235,1.6329,1.6523,1.7014,1.6869,1.6513,1.5994,1.593,1.5458,1.4326,1.3181,1.176,0.999,0.8758,0.818,0.8401,0.9715,1.1191,1.2716,1.4218,1.4794,1.4358,1.5629,1.6323,1.6347,1.6056,1.5603,1.4945,1.4183,1.3456,0.7168,0.7506,0.7859,0.8399,0.8961,0.9475,0.9958,1.1648,1.3161,1.3172,1.3418,1.4029,1.5356,1.6392,1.7114,0.0,0.0,0.0,0.0,0.0,0.0,0.0,0.0,0.0,0.0,0.0,0.0,0.0,0.0,0.0,0.0,0.0,0.0,1.7514,1.7514,1.7514,1.7514,1.7514,1.7514,0.0,1.7514,1.7514,1.7514,1.7514,1.7514,1.7514,1.7514,1.7514,1.7514,1.7514,1.7514,1.7514,1.7514,1.7514,1.7514,1.7514,1.7514,1.7514,1.7514,1.7514,1.7514,1.7514,1.7514,1.7514,1.7514,1.7514,1.7514,1.7514,1.7514,1.7514,1.7514,1.7514,1.7514,1.7514,1.7315,1.702,1.6754,1.6495,1.6217,1.5946,1.5891,1.5976,1.6254,1.6471,1.6718,1.7044,1.6869,1.6579,1.6269,1.6018,1.5458,1.4326,1.3538,1.2282,1.0288,0.9251,0.8457,0.7826,0.854,0.9821,1.1715,1.3852,1.5169,1.5538,1.6036,1.6392,1.661,1.6762,1.6356,1.5435,1.4952,1.4104,0.8175,0.8741,0.9517,1.0261,1.1166,1.1951,1.2209,1.3379,1.464,1.537,1.551,1.5723,1.6378,1.7062,1.7514,0.0,0.0,0.0,0.0,0.0,0.0,0.0,0.0,0.0,0.0,0.0,0.0,0.0,0.0,0.0,0.0,1.7514,1.7514,1.7514,1.7514,1.7454,1.7298,1.7298,1.7298,1.7298,1.7298,1.7393,1.7514,1.7514,1.7514,1.7514,1.7514,1.7514,1.7514,1.7514,1.7514,1.7514,1.7514,1.7514,1.7514,1.7514,1.7514,1.7514,1.7514,1.7514,1.7514,1.7514,1.7514,1.7514,1.7514,1.7514,1.7514,1.7514,1.7514,1.7514,1.7514,1.7514,1.7514,1.7514,1.7376,1.7171,1.6785,1.6592,1.6374,1.597,1.5988,1.6196,1.6447,1.6712,1.6893,1.6905,1.667,1.6398,1.6127,1.6003,1.5458,1.4326,1.3403,1.2141,1.0343,0.914,0.8208,0.7635,0.8156,0.9409,1.1411,1.3085,1.4562,1.5865,1.6278,1.6555,1.67,1.7086,1.6669,1.5442,1.5144,1.4261,0.9481,1.023,1.1341,1.225,1.3374,1.4338,1.4666,1.496,1.5519,1.6827,1.7149,1.7244,1.7449,1.7514,1.7514,0.0,0.0,0.0,0.0,0.0,0.0,0.0,0.0,0.0,0.0,0.0,0.0,0.0,0.0,0.0,1.7514,1.7514,1.7514,1.7514,1.7514,1.7358,1.7092,1.7092,1.7068,1.7026,1.7068,1.7231,1.7514,1.7514,1.7514,1.7514,1.7514,1.7514,1.7514,1.7514,1.7514,1.7514,1.7514,1.7514,1.7514,1.7514,1.7514,1.7514,1.7514,1.7514,1.7514,1.7514,1.7514,1.7514,1.7514,1.7514,1.7514,1.7514,1.7514,1.7514,1.7514,1.7514,1.7514,1.7514,1.7514,1.734,1.6815,1.6664,1.6483,1.5988,1.613,1.6384,1.6585,1.6887,1.7002,1.6742,1.6501,1.626,1.5988,1.5755,1.5164,1.4002,1.2824,1.1542,1.01,0.8758,0.7906,0.769,0.8045,0.9161,1.1143,1.1892,1.3339,1.5565,1.6292,1.6628,1.6628,1.7111,1.6623,1.5223,1.5019,1.4163,1.0191,1.0867,1.1606,1.1982,1.2492,1.2888,1.2945,1.3951,1.4988,1.5427,1.5699,1.6196,1.7303,1.7514,0.0,0.0,0.0,0.0,0.0,0.0,0.0,0.0,0.0,0.0,0.0,0.0,0.0,0.0,0.0,0.0,1.7514,1.7514,1.7514,1.7514,1.7514,1.7358,1.7092,1.7092,1.6978,1.6754,1.6984,1.7231,1.7514,1.7514,1.7514,1.7514,1.7514,1.7514,1.7514,1.7514,1.7514,1.7514,1.7514,1.7514,1.7514,1.7514,1.7514,1.7514,1.7514,1.7514,1.7514,1.7514,1.7514,1.7514,1.7514,1.7514,1.7514,1.7514,1.7514,1.7514,1.7514,1.7514,1.7514,1.7514,1.7514,1.734,1.6815,1.6513,1.6247,1.5946,1.613,1.6323,1.6359,1.6754,1.7002,1.6742,1.667,1.6543,1.6293,1.5188,1.397,1.277,1.1601,1.0429,0.9182,0.8405,0.7989,0.7962,0.7598,0.8174,0.9959,1.0151,1.1542,1.4385,1.5691,1.6365,1.6338,1.6652,1.6158,1.4952,1.4737,1.4002,1.2202,1.2288,1.2505,1.3674,1.4092,1.4293,1.4609,1.5177,1.5724,1.5983,1.6126,1.6489,1.7337,1.7514,0.0,0.0,0.0,0.0,0.0,0.0,0.0,0.0,0.0,0.0,0.0,0.0,0.0,0.0,0.0,1.7514,1.7514,1.7514,1.7514,1.7514,1.734,1.7135,1.6875,1.6746,1.6658,1.6706,1.6966,1.7231,1.7514,1.7514,1.7514,1.7514,1.7514,1.7514,1.7514,1.7514,1.7514,1.7514,1.7514,1.7514,1.7514,1.7514,1.7514,1.7514,1.7514,1.7514,1.7514,1.7514,1.7514,1.7514,1.7514,1.7514,1.7514,1.7514,1.7514,1.7514,1.7514,1.7514,1.7514,1.7514,1.7514,1.7376,1.7002,1.6821,1.6658,1.6398,1.6308,1.6359,1.6489,1.6607,1.6598,1.6483,1.6344,1.6199,1.6079,1.499,1.3727,1.2526,1.1378,1.0213,0.8992,0.8519,0.8291,0.8291,0.7878,0.8367,0.9959,1.0014,1.1355,1.4137,1.4975,1.5648,1.6305,1.6561,1.6029,1.4731,1.4651,1.3871,1.3525,1.3304,1.3271,1.4803,1.53,1.5517,1.5976,1.616,1.626,1.6537,1.6592,1.6736,1.7201,1.734,0.0,0.0,0.0,0.0,0.0,0.0,0.0,0.0,0.0,0.0,0.0,0.0,0.0,0.0,0.0,1.7514,1.7514,1.7514,1.7514,1.7514,1.7231,1.6966,1.6706,1.6384,1.6356,1.6706,1.6899,1.7165,1.7514,1.7514,1.7514,1.7514,1.7514,1.7514,1.7514,1.7514,1.7514,1.7514,1.7514,1.7514,1.7514,1.7514,1.7514,1.7514,1.7514,1.7514,1.7514,1.7514,1.7514,1.7514,1.7514,1.7514,1.7514,1.7514,1.7514,1.7514,1.7514,1.7514,1.7514,1.7514,1.7514,1.7423,1.7062,1.6936,1.6809,1.6543,1.6353,1.6247,1.6459,1.6374,1.6305,1.6305,1.6142,1.5988,1.5988,1.4687,1.3403,1.2499,1.1109,0.9888,0.8964,0.8654,0.8512,0.8512,0.818,0.8537,0.9715,0.9766,1.1023,1.37,1.3949,1.4751,1.6208,1.6392,1.5802,1.451,1.451,1.373,1.3063,1.3312,1.3591,1.4202,1.4745,1.5197,1.5475,1.5728,1.6009,1.6275,1.6329,1.642,1.6688,1.6948,0.0,0.0,0.0,0.0,0.0,0.0,0.0,0.0,0.0,0.0,0.0,0.0,0.0,0.0,0.0,1.7514,1.7514,1.7514,1.7514,1.7514,1.7231,1.6966,1.6706,1.6175,1.6175,1.67,1.6712,1.699,1.7514,1.7514,1.7514,1.7514,1.7514,1.7514,1.7514,1.7514,1.7514,1.7514,1.7514,1.7514,1.7514,1.7514,1.7514,1.7514,1.7514,1.7514,1.7514,1.7514,1.7514,1.7514,1.7514,1.7514,1.7514,1.7514,1.7514,1.7514,1.7514,1.7514,1.7514,1.7514,1.7514,1.7369,1.6833,1.6513,1.6269,1.5982,1.5922,1.5942,1.5928,1.6154,1.6305,1.6305,1.6293,1.6287,1.6287,1.407,1.2467,1.2417,1.0351,0.8964,0.8912,0.8654,0.8512,0.8512,0.818,0.818,0.8567,0.8595,0.9825,1.2445,1.2508,1.3651,1.591,1.5928,1.5359,1.4213,1.4213,1.3559,1.3027,1.3171,1.337,1.3918,1.4322,1.466,1.4938,1.533,1.5662,1.5759,1.591,1.6136,1.638,1.6658,0.0,0.0,0.0,0.0,0.0,0.0,0.0,0.0,0.0,0.0,0.0,0.0,0.0,0.0,0.0,0.0,1.7514,1.7514,1.7514,1.7514,1.7062,1.6628,1.6187,1.5988,1.6072,1.6462,1.6616,1.6887,1.7237,1.7436,1.7514,1.7514,1.7514,1.7514,1.7514,1.7514,1.7514,1.7514,1.7514,1.7514,1.7514,1.7514,1.7514,1.7514,1.7514,1.7514,1.7514,1.7514,1.7514,1.7514,1.7514,1.7514,1.7514,1.7514,1.7514,1.7514,1.7514,1.7514,1.7472,1.7267,1.7105,1.6881,1.6513,1.6495,1.6471,1.622,1.6167,1.6164,1.6164,1.6365,1.6508,1.6332,1.6305,1.6251,1.6084,1.4591,1.3263,1.2472,1.1004,0.9754,0.8964,0.8826,0.8768,0.8768,0.8629,0.8985,0.988,0.9908,1.1055,1.3511,1.3565,1.432,1.5891,1.5891,1.5491,1.4713,1.4358,1.3765,1.2912,1.2961,1.3087,1.3617,1.3906,1.4153,1.4587,1.5059,1.539,1.5481,1.5704,1.594,1.6115,1.6302,0.0,0.0,0.0,0.0,0.0,0.0,0.0,0.0,0.0,0.0,0.0,0.0,0.0,0.0,0.0,0.0,1.7514,1.7514,1.7429,1.7254,1.6797,1.635,1.5891,1.5891,1.6018,1.6311,1.6567,1.6839,1.7098,1.7393,1.7514,1.7514,1.7514,1.7514,1.7514,1.7514,1.7514,1.7514,1.7514,1.7514,1.7514,1.7514,1.7514,1.7514,1.7514,1.7514,1.7514,1.7514,1.7514,1.7514,1.7514,1.7514,1.7514,1.7514,1.7448,1.7381,1.7381,1.7286,1.7177,1.7002,1.6827,1.6622,1.6371,1.6456,1.6477,1.6232,1.6173,1.6164,1.6164,1.6311,1.6391,1.6297,1.6217,1.6131,1.6051,1.4949,1.3894,1.31,1.1955,1.095,1.0135,0.9726,0.9671,1.0053,0.9726,1.0053,1.1219,1.1273,1.22,1.4169,1.4196,1.4761,1.5891,1.5891,1.5598,1.4982,1.4439,1.3765,0.0,0.0,0.0,1.3363,1.3479,1.3684,1.4467,1.4877,1.5149,1.5421,1.5686,1.5867,1.5885,1.5891,0.0,0.0,0.0,0.0,0.0,0.0,0.0,0.0,0.0,0.0,0.0,0.0,0.0,0.0,0.0,1.7514,1.7514,1.7473,1.7266,1.6718,1.6447,1.6175,1.5891,1.5891,1.6018,1.6311,1.6567,1.6839,1.7098,1.7393,1.7514,1.7514,1.7514,1.7514,1.7514,1.7514,1.7514,1.7514,1.7514,1.7514,1.7514,1.7514,1.7514,1.7514,1.7514,1.7514,1.7514,1.7514,1.7514,1.7514,1.7514,1.7514,1.7514,1.7514,1.7298,1.7098,1.7092,1.6893,1.6688,1.6688,1.6682,1.6604,1.6326,1.6293,1.622,1.594,1.5918,1.5918,1.5918,1.5945,1.6025,1.6271,1.6105,1.6025,1.6271,1.511,1.425,1.4196,1.3154,1.2445,1.239,1.1383,1.1219,1.2336,1.1351,1.1273,1.2417,1.2445,1.3019,1.4223,1.425,1.4788,1.5891,1.5891,1.5598,1.5009,1.4466,1.3548,1.2705,0.0,0.0,0.0,0.0,0.0,0.0,1.3888,1.437,1.4835,1.5143,1.5439,1.5819,1.5891,0.0,0.0,0.0,0.0,0.0,0.0,0.0,0.0,0.0,0.0,0.0,0.0,0.0,0.0,1.7514,1.7514,1.7514,1.7333,1.7044,1.6712,1.6435,1.6157,1.5891,1.5891,1.603,1.6302,1.6573,1.6839,1.7098,1.7393,1.7514,1.7514,1.7514,1.7514,1.7514,1.7514,1.7514,1.7514,1.7514,1.7514,1.7514,1.7514,1.7514,1.7514,1.7514,1.7514,1.7514,1.7514,1.7514,1.7514,1.7514,1.7514,1.7514,1.7514,1.746,1.7328,1.7141,1.6748,1.6398,1.6398,1.6254,1.6097,1.6039,1.6,1.5976,1.5903,1.6205,1.6418,1.6211,1.6716,1.7001,1.663,1.6743,1.6696,1.635,1.5951,1.533,1.4304,1.3894,1.3344,1.2467,1.2118,1.2059,1.2385,1.2087,1.2472,1.3646,1.37,1.4239,1.5405,1.5431,1.5592,1.5891,1.5891,1.5811,1.5624,1.4654,1.3548,1.2735,0.0,0.0,0.0,0.0,0.0,1.3214,1.3503,1.3894,0.0,1.4757,1.5071,1.5487,1.565,1.5728,0.0,0.0,0.0,0.0,0.0,0.0,0.0,0.0,0.0,0.0,0.0,0.0,1.7514,1.7514,1.7514,1.7514,1.7129,1.6857,1.6706,1.632,1.6097,1.6081,1.5972,1.6085,1.6477,1.6628,1.6839,1.7098,1.7393,1.7514,1.7514,1.7514,1.7514,1.7514,1.7514,1.7514,1.7514,1.7514,1.7514,1.7514,1.7514,1.7514,1.7514,1.7514,1.7514,1.7514,1.7514,1.7514,1.7514,1.7514,1.7514,1.7514,1.7514,1.7328,1.7068,1.6688,1.6384,1.6115,1.6115,1.6,1.5891,1.5891,1.5891,1.5891,1.5891,1.6152,1.6311,1.6158,1.6557,1.6842,1.673,1.669,1.6616,1.6477,1.6264,1.5811,1.5003,1.4922,1.4616,1.3906,1.342,1.3339,1.3825,1.3398,1.3668,1.4863,1.4922,1.5217,1.5891,1.5891,1.5891,1.5891,1.5891,1.5785,1.5491,1.46,1.3684,0.0,0.0,0.0,0.0,0.0,0.0,1.3316,1.3449,1.3646,0.0,1.4407,1.4672,1.4968,1.5209,1.5366,0.0,0.0,0.0,0.0,0.0,0.0,0.0,0.0,0.0,0.0,1.7556,1.7556,1.7556,1.7526,1.7514,1.7514,1.7014,1.6742,1.6742,1.6247,1.6091,1.6353,1.6124,1.6235,1.6742,1.6742,1.6881,1.7141,1.7405,1.7514,1.7514,1.7514,1.7514,1.7514,1.7514,1.7514,1.7514,1.7514,1.7514,1.7514,1.7514,1.7514,1.7514,1.7514,1.7514,1.7514,1.7514,1.7514,1.7473,1.7449,1.7472,1.7466,1.7436,1.7038,1.6543,1.606,1.591,1.5891,1.5891,1.5891,1.5891,1.5891,1.5891,1.5891,1.5891,1.5918,1.5945,1.5918,1.5945,1.6152,1.6624,1.6285,1.6152,1.665,1.6258,1.5945,1.5891,1.5891,1.5891,1.5891,1.4976,1.4815,1.5838,1.4949,1.4842,1.5865,1.5891,1.5891,1.5891,1.5891,1.5891,1.5891,1.5891,1.5598,1.4982,1.4358,1.3738,0.0,0.0,0.0,0.0,0.0,0.0,1.2988,1.32,1.3521,0.0,1.3713,1.387,1.437,1.4497,1.4527,0.0,0.0,0.0,0.0,0.0,0.0,0.0,0.0,0.0,0.0,1.7828,1.7828,1.7828,1.7635,1.7514,1.7514,1.7189,1.7014,1.7014,1.6706,1.6567,1.6616,1.6567,1.67,1.7014,1.7014,1.7153,1.7406,1.749,1.7514,1.7514,1.7514,1.7514,1.7514,1.7514,1.7514,1.7514,1.7514,1.7514,1.7514,1.7514,1.7514,1.7514,1.7514,1.7514,1.7514,1.7514,1.7514,1.7472,1.7231,1.7165,1.7123,1.6911,1.6616,1.6338,1.6257,1.6048,1.5891,1.5891,1.5891,1.5891,1.5891,1.5891,1.5891,1.5891,1.6078,1.6164,1.5945,1.6258,1.6577,1.6677,1.6597,1.6571,1.6677,1.6424,1.6137,1.5918,1.5891,1.5891,1.5891,1.5699,1.5645,1.5891,1.5699,1.5678,1.5891,1.5891,1.5891,1.5891,1.5891,1.5891,1.5891,1.5891,1.5598,1.4961,1.3727,1.2829,0.0,0.0,0.0,1.3328,0.0,0.0,0.0,0.0,1.4598,1.5146,1.4654,1.4337,1.4943,1.4647,1.4298,0.0,0.0,0.0,0.0,0.0,0.0,0.0,0.0,0.0,0.0,1.7635,1.7762,1.7895,1.7659,1.7514,1.7514,1.7266,1.7092,1.7092,1.6839,1.6761,1.6893,1.6767,1.6899,1.7315,1.7153,1.7231,1.7514,1.7514,1.7514,1.7514,1.7514,1.7514,1.7514,1.7514,1.7514,1.7514,1.7514,1.7514,1.7514,1.7514,1.7514,1.7514,1.7514,1.7514,1.7514,1.7514,1.7514,1.7466,1.7171,1.7002,1.6839,1.6567,1.6398,1.6266,1.6148,1.5988,1.5891,1.5891,1.5891,1.5891,1.5891,1.5891,1.5891,1.5891,1.5998,1.6051,1.5918,1.6125,1.6338,1.6471,1.6391,1.6338,1.6471,1.6264,1.6051,1.5918,1.5891,1.5891,1.5891,1.5891,1.5891,1.5891,1.5891,1.5891,1.5891,1.5891,1.5891,1.5891,1.5891,1.5891,1.5891,1.5891,1.5731,1.541,1.4132,1.3403,0.0,0.0,0.0,0.0,0.0,1.4733,0.0,0.0,0.0,0.0,0.0,0.0,0.0,0.0,0.0,0.0,0.0,0.0,0.0,0.0,0.0,0.0,0.0,0.0,0.0,1.7159,1.7411,1.7726,1.7466,1.7298,1.7429,1.7284,1.7165,1.7165,1.696,1.6954,1.7165,1.696,1.7062,1.7508,1.7267,1.728,1.7514,1.7514,1.7514,1.7514,1.7514,1.7514,1.7514,1.7514,1.7514,1.7514,1.7514,1.7514,1.7514,1.7514,1.7514,1.7514,1.7514,1.7514,1.7502,1.7454,1.7334,1.7242,1.7002,1.6754,1.6495,1.6272,1.6217,1.6175,1.5946,1.5891,1.5891,1.5891,1.5891,1.5891,1.5891,1.5891,1.5891,1.5891,1.5891,1.5891,1.5891,1.5945,1.6051,1.6271,1.6111,1.6051,1.6271,1.6078,1.5891,1.5891,1.5891,1.5891,1.5891,1.5891,1.5891,1.5891,1.5891,1.5891,1.5891,1.5891,1.5891,1.5891,1.5891,1.5891,1.5891,1.5891,1.5891,1.5865,1.4541,1.3921,0.0,0.0,0.0,0.0,1.6688,0.0,0.0,0.0,0.0,0.0,0.0,0.0,0.0,0.0,0.0,0.0,0.0,0.0,0.0,0.0,0.0,0.0,0.0,0.0,0.0,0.0,1.6656,1.7141,1.6724,1.6646,1.7111,1.7328,1.7436,1.7436,1.7442,1.7406,1.7436,1.7406,1.7454,1.7514,1.7484,1.7484,1.7514,1.7514,1.7514,1.7514,1.7514,1.7514,1.7514,1.7514,1.7514,1.7514,1.7514,1.7514,1.7514,1.7514,1.7514,1.7514,1.7514,1.7514,1.7472,1.7213,1.6809,1.6438,1.6408,1.6187,1.5976,1.594,1.596,1.5928,1.5897,1.5891,1.5891,1.5891,1.5891,1.5891,1.5891,1.5891,1.5891,1.5891,1.5891,1.5891,1.5891,1.6105,1.6271,1.6297,1.6271,1.6271,1.6297,1.6078,1.5891,1.5891,1.5891,1.5891,1.5891,1.5891,1.5891,1.5891,1.5891,1.5891,1.5891,1.5891,1.5891,1.5891,1.5891,1.5891,1.5891,1.5891,1.5891,1.5859,1.3884,1.296,0.0,0.0,0.0,0.0,0.0,0.0,1.7272,0.0,1.7975,0.0,0.0,0.0,0.0,0.0,0.0,0.0,0.0,0.0,0.0,0.0,0.0,0.0,0.0,0.0,0.0,0.0,0.0,0.0,0.0,1.6368,1.7056,1.7195,1.7328,1.7508,1.7514,1.7602,1.7784,1.7602,1.7602,1.7784,1.7602,1.7514,1.7514,1.7514,1.7514,1.7514,1.7514,1.7514,1.7514,1.7514,1.7514,1.7467,1.7316,1.7284,1.7284,1.7284,1.7284,1.728,1.746,1.7514,1.7472,1.7177,1.6833,1.6495,1.6359,1.6097,1.5891,1.5891,1.6258,1.665,1.665,1.6995,1.7345,1.7345,1.6995,1.665,1.665,1.6258,1.5891,1.5891,1.5891,1.5891,1.5891,1.5998,1.6078,1.6078,1.6078,1.6078,1.6078,1.5971,1.5891,1.5891,1.5891,1.5891,1.5891,1.5891,1.5891,1.5891,1.5891,1.5891,1.5891,1.5891,1.5891,1.5891,1.5891,1.5891,1.5891,1.5891,1.5731,1.5357,1.4159,1.343,1.8933,0.0,0.0,0.0,0.0,0.0,0.0,0.0,0.0,0.0,0.0,0.0,0.0,0.0,0.0,0.0,0.0,0.0,0.0,0.0,0.0,0.0,0.0,0.0,0.0,0.0,0.0,0.0,0.0,0.0,1.6821,1.7008,1.7177,1.737,1.7449,1.7667,1.8002,1.7755,1.7755,1.8002,1.7755,1.7602,1.7514,1.7514,1.7514,1.7514,1.7514,1.7514,1.7514,1.7514,1.7514,1.7455,1.7195,1.7092,1.7092,1.7092,1.7135,1.7254,1.7418,1.7388,1.7237,1.7044,1.6754,1.6441,1.6263,1.6036,1.5945,1.6178,1.6703,1.7252,1.7463,1.797,1.8396,1.8396,1.7786,1.7199,1.7199,1.6518,1.5891,1.5891,1.5891,1.5891,1.5891,1.5971,1.5971,1.5918,1.5971,1.5971,1.5918,1.5891,1.5891,1.5891,1.5891,1.5891,1.5891,1.5891,1.5891,1.5891,1.5891,1.5891,1.5891,1.5891,1.5891,1.5891,1.5891,1.5891,1.5891,1.5891,1.5512,1.4767,1.4385,1.3878,0.0,0.0,0.0,2.0467,0.0,0.0,0.0,0.0,1.9875,0.0,0.0,0.0,0.0,0.0,0.0,1.7223,0.0,0.0,0.0,0.0,0.0,0.0,0.0,0.0,0.0,0.0,0.0,0.0,0.0,0.0,1.6281,1.6809,1.7092,1.7105,1.7346,1.7667,1.8002,1.8002,1.8002,1.8002,1.8002,1.782,1.7514,1.7514,1.7514,1.7514,1.7514,1.7514,1.7514,1.7514,1.7514,1.7455,1.7195,1.7092,1.7092,1.7092,1.7249,1.7502,1.7508,1.7153,1.6724,1.6718,1.635,1.591,1.593,1.5924,1.6072,1.6909,1.7173,1.7384,1.8153,1.837,1.8396,1.8396,1.7786,1.7199,1.7199,1.6518,1.5891,1.5891,1.5891,1.5891,1.5891,1.6111,1.6191,1.5945,1.6131,1.6191,1.5945,1.5891,1.5891,1.5891,1.5891,1.5891,1.5891,1.5891,1.5891,1.5891,1.5891,1.5891,1.5891,1.5891,1.5891,1.5891,1.5891,1.5891,1.5891,1.5891,1.5324,1.4223,1.4223,1.3878,0.0,0.0,2.1372,2.0979,0.0,0.0,0.0,0.0,0.0,0.0,0.0,0.0,0.0,0.0,1.9808,1.9043,0.0,0.0,0.0,0.0,0.0,0.0,0.0,0.0,0.0,0.0,0.0,0.0,1.5077,0.0,0.0,1.6628,1.7025,1.7424,1.7701,1.8077,1.8596,1.8392,1.8252,1.8252,1.8083,1.782,1.7514,1.7514,1.7514,1.7514,1.7514,1.7514,1.7502,1.7298,1.7328,1.7472,1.7002,1.7044,1.7328,1.7159,1.7147,1.7254,1.7254,1.7111,1.6899,1.6537,1.6302,1.6142,1.594,1.5891,1.5971,1.6258,1.6756,1.7252,1.7542,1.8441,1.9257,1.9257,1.8605,1.7996,1.7996,1.6889,1.5891,1.5891,1.5891,1.5891,1.5891,1.5971,1.5998,1.5918,1.5971,1.5998,1.5918,1.5891,1.5891,1.5891,1.5891,1.5891,1.5891,1.5891,1.5891,1.5891,1.5891,1.5891,1.5891,1.5891,1.5891,1.5891,1.5891,1.5891,1.5891,1.5891,1.5491,1.474,1.474,1.4008,2.1696,2.1696,0.0,2.1187,2.0915,0.0,2.0207,0.0,0.0,0.0,0.0,0.0,0.0,0.0,0.0,2.0179,1.9996,0.0,0.0,1.8745,0.0,0.0,0.0,0.0,0.0,0.0,1.5286,1.5245,1.5046,0.0,0.0,0.0,1.6919,1.7446,1.7803,1.8282,1.8874,1.8677,1.859,1.8561,1.8282,1.7989,1.7667,1.7543,1.7514,1.7514,1.7514,1.746,1.7328,1.7159,1.7135,1.7177,1.6936,1.713,1.7496,1.721,1.7153,1.7219,1.7123,1.7032,1.6875,1.6456,1.6245,1.6136,1.594,1.5891,1.5971,1.6285,1.6783,1.7279,1.7542,1.8441,1.9231,1.9231,1.8605,1.797,1.797,1.6889,1.5891,1.5891,1.5891,1.5891,1.5891,1.5891,1.5891,1.5891,1.5891,1.5891,1.5891,1.5891,1.5891,1.5891,1.5891,1.5891,1.5891,1.5891,1.5891,1.5891,1.5891,1.5891,1.5891,1.5891,1.5891,1.5891,1.5891,1.5891,1.5891,1.5891,1.5598,1.4982,1.4573,1.3624]},{"header":{"parameterUnit":"m.s-1","parameterCategory":1,"la1":30.6,"la2":29.2853,"lo1":-89.7004,"lo2":-87.6739,"dy":0.0162,"dx":0.0183,"nx":112,"ny":82,"refTime":"2025-08-07T00:00:00:Z","depth":0,"parameterNumber":3,"parameterNumberName":"V-component_of_WINDS"},"data":[0.0,0.0,0.0,0.0,0.0,0.0,0.0,0.0,0.0,0.0,0.0,0.0,0.0,0.0,0.0,0.0,0.0,0.0,0.0,0.0,0.0,0.0,0.0,0.0,0.0,0.0,0.0,0.0,0.0,0.0,0.0,0.0,0.0,0.0,0.0,0.0,0.0,0.0,0.0,0.0,0.0,0.0,0.0,0.0,0.0,0.0,0.0,0.0,0.0,0.0,0.0,0.0,0.0,0.0,0.0,0.0,0.0,0.0,0.0,0.0,0.0,0.0,0.0,0.0,0.0,0.0,0.0,0.0,0.0,0.0,0.0,0.0,0.0,0.0,0.0,0.0,0.0,0.0,0.0,0.0,0.0,0.0,0.0,0.0,0.0,0.0,0.0,0.0,0.0,0.0,2.6804,2.9681,3.269,3.4546,3.4683,3.3788,3.2558,3.0995,0.0,0.0,0.0,0.0,0.0,0.0,0.0,0.0,0.0,0.0,0.0,0.0,0.0,0.0,0.0,0.0,0.0,0.0,0.0,0.0,0.0,0.0,0.0,0.0,0.0,0.0,0.0,0.0,0.0,0.0,0.0,0.0,0.0,0.0,0.0,0.0,0.0,0.0,0.0,0.0,0.0,0.0,0.0,0.0,0.0,0.0,0.0,0.0,0.0,0.0,0.0,0.0,0.0,0.0,0.0,0.0,0.0,0.0,0.0,0.0,0.0,0.0,0.0,0.0,0.0,0.0,0.0,0.0,0.0,0.0,0.0,0.0,0.0,0.0,0.0,0.0,0.0,0.0,0.0,0.0,0.0,0.0,0.0,0.0,0.0,0.0,0.0,0.0,0.0,0.0,0.0,0.0,0.0,0.0,0.0,0.0,0.0,0.0,0.0,0.0,0.0,0.0,0.0,0.0,2.7242,3.1284,3.2848,3.3904,3.4647,3.3281,3.1953,3.0956,0.0,0.0,0.0,0.0,0.0,0.0,0.0,0.0,0.0,0.0,0.0,0.0,0.0,0.0,0.0,0.0,0.0,0.0,0.0,0.0,0.0,0.0,0.0,0.0,0.0,0.0,0.0,0.0,0.0,0.0,0.0,0.0,0.0,0.0,0.0,0.0,0.0,0.0,0.0,0.0,0.0,0.0,0.0,0.0,0.0,0.0,0.0,0.0,0.0,0.0,0.0,0.0,0.0,0.0,0.0,0.0,0.0,0.0,0.0,0.0,0.0,0.0,0.0,0.0,0.0,0.0,0.0,0.0,0.0,0.0,0.0,0.0,0.0,0.0,0.0,0.0,0.0,0.0,0.0,0.0,0.0,0.0,0.0,0.0,0.0,0.0,0.0,0.0,0.0,0.0,0.0,0.0,0.0,0.0,0.0,0.0,0.0,0.0,0.0,0.0,0.0,0.0,0.0,2.6855,2.8221,3.1148,3.2204,3.287,3.326,3.2187,3.1113,3.0253,2.7733,0.0,0.0,0.0,0.0,0.0,0.0,0.0,0.0,0.0,0.0,0.0,0.0,0.0,0.0,0.0,0.0,0.0,0.0,0.0,0.0,0.0,0.0,0.0,0.0,0.0,0.0,0.0,0.0,0.0,0.0,0.0,0.0,0.0,0.0,0.0,0.0,0.0,0.0,0.0,0.0,0.0,0.0,0.0,0.0,0.0,0.0,0.0,0.0,0.0,0.0,0.0,0.0,0.0,0.0,0.0,0.0,0.0,0.0,0.0,0.0,0.0,0.0,0.0,0.0,0.0,0.0,0.0,0.0,0.0,0.0,0.0,0.0,0.0,0.0,0.0,0.0,0.0,0.0,0.0,0.0,0.0,0.0,0.0,0.0,0.0,0.0,0.0,0.0,0.0,0.0,0.0,0.0,0.0,0.0,0.0,0.0,0.0,0.0,0.0,0.0,0.0,0.0,2.8398,2.9414,3.076,3.1444,3.1894,3.2089,3.1172,3.0311,2.9647,2.695,0.0,0.0,0.0,0.0,0.0,0.0,0.0,0.0,0.0,0.0,0.0,0.0,0.0,0.0,0.0,0.0,0.0,0.0,0.0,0.0,0.0,0.0,0.0,0.0,0.0,0.0,0.0,0.0,0.0,0.0,0.0,0.0,0.0,0.0,0.0,0.0,0.0,0.0,0.0,0.0,0.0,0.0,0.0,0.0,0.0,0.0,0.0,0.0,0.0,0.0,0.0,0.0,0.0,0.0,0.0,0.0,0.0,0.0,0.0,0.0,0.0,0.0,0.0,0.0,0.0,0.0,0.0,0.0,0.0,0.0,0.0,0.0,0.0,0.0,0.0,0.0,0.0,0.0,0.0,0.0,0.0,0.0,0.0,0.0,0.0,0.0,0.0,0.0,0.0,0.0,0.0,0.0,0.0,0.0,0.0,0.0,0.0,0.0,0.0,0.0,0.0,0.0,2.8708,3.0759,3.0897,3.0956,3.1288,3.205,3.0624,2.9666,2.9602,2.6399,0.0,0.0,0.0,0.0,0.0,0.0,0.0,0.0,0.0,0.0,0.0,0.0,0.0,0.0,0.0,0.0,0.0,0.0,0.0,0.0,0.0,0.0,0.0,0.0,0.0,0.0,0.0,0.0,0.0,0.0,0.0,0.0,0.0,0.0,0.0,0.0,0.0,0.0,0.0,0.0,0.0,0.0,0.0,0.0,0.0,0.0,0.0,0.0,0.0,0.0,0.0,0.0,0.0,0.0,0.0,0.0,0.0,0.0,0.0,0.0,0.0,0.0,0.0,0.0,0.0,0.0,0.0,0.0,0.0,0.0,0.0,0.0,0.0,0.0,0.0,0.0,0.0,0.0,0.0,0.0,0.0,0.0,0.0,0.0,0.0,0.0,0.0,0.0,0.0,0.0,0.0,0.0,0.0,0.0,0.0,0.0,0.0,0.0,0.0,0.0,0.0,0.0,2.7787,2.9702,0.0,3.0895,3.1013,3.1325,3.0777,2.9701,2.8077,0.0,0.0,0.0,0.0,0.0,0.0,0.0,0.0,0.0,0.0,0.0,0.0,0.0,0.0,0.0,0.0,0.0,0.0,0.0,0.0,0.0,0.0,0.0,0.0,0.0,0.0,0.0,0.0,0.0,0.0,0.0,0.0,0.0,0.0,0.0,0.0,0.0,0.0,0.0,0.0,0.0,0.0,0.0,0.0,0.0,0.0,0.0,0.0,0.0,0.0,0.0,0.0,0.0,0.0,0.0,0.0,0.0,0.0,0.0,0.0,0.0,0.0,0.0,0.0,0.0,0.0,0.0,0.0,0.0,0.0,0.0,0.0,0.0,0.0,0.0,0.0,0.0,0.0,0.0,0.0,0.0,0.0,0.0,0.0,0.0,0.0,0.0,0.0,0.0,0.0,0.0,0.0,0.0,0.0,0.0,0.0,0.0,0.0,0.0,0.0,0.0,0.0,2.5553,2.7683,2.956,0.0,3.0893,3.0893,3.0893,3.0656,2.9482,2.7157,0.0,0.0,0.0,0.0,0.0,0.0,0.0,0.0,0.0,0.0,0.0,0.0,0.0,0.0,0.0,0.0,0.0,0.0,0.0,0.0,0.0,0.0,0.0,0.0,0.0,0.0,0.0,0.0,0.0,0.0,0.0,0.0,0.0,0.0,0.0,0.0,0.0,0.0,0.0,0.0,0.0,0.0,0.0,0.0,0.0,0.0,0.0,0.0,0.0,0.0,0.0,0.0,0.0,0.0,0.0,0.0,0.0,0.0,0.0,0.0,0.0,0.0,0.0,0.0,0.0,0.0,0.0,0.0,0.0,0.0,0.0,0.0,0.0,0.0,0.0,0.0,0.0,0.0,0.0,0.0,0.0,0.0,0.0,0.0,0.0,0.0,0.0,0.0,0.0,0.0,0.0,0.0,0.0,0.0,0.0,0.0,0.0,0.0,0.0,0.0,0.0,0.0,2.5709,2.8686,3.0823,3.0887,3.0907,3.0907,3.0907,3.0106,2.8875,0.0,0.0,0.0,0.0,0.0,0.0,0.0,0.0,0.0,0.0,0.0,0.0,0.0,0.0,0.0,0.0,0.0,0.0,0.0,0.0,0.0,0.0,0.0,0.0,0.0,0.0,0.0,0.0,0.0,0.0,0.0,0.0,0.0,0.0,0.0,0.0,0.0,0.0,0.0,0.0,0.0,0.0,0.0,0.0,0.0,0.0,0.0,0.0,0.0,0.0,0.0,0.0,0.0,0.0,0.0,0.0,0.0,0.0,0.0,0.0,0.0,0.0,0.0,0.0,0.0,0.0,0.0,0.0,0.0,0.0,0.0,0.0,0.0,0.0,0.0,0.0,0.0,0.0,0.0,0.0,0.0,0.0,0.0,0.0,0.0,0.0,0.0,0.0,0.0,0.0,0.0,0.0,0.0,0.0,0.0,0.0,0.0,0.0,0.0,0.0,0.0,0.0,0.0,2.5709,2.8686,3.0801,3.0823,3.0823,3.0823,3.0823,3.0588,2.9456,2.7153,0.0,0.0,0.0,0.0,0.0,0.0,0.0,0.0,0.0,0.0,0.0,0.0,0.0,0.0,0.0,0.0,0.0,0.0,0.0,0.0,0.0,0.0,0.0,0.0,0.0,0.0,0.0,0.0,0.0,0.0,0.0,0.0,0.0,0.0,0.0,0.0,0.0,0.0,0.0,0.0,0.0,0.0,0.0,0.0,0.0,0.0,0.0,0.0,0.0,0.0,0.0,0.0,0.0,0.0,0.0,0.0,0.0,0.0,0.0,0.0,0.0,0.0,0.0,0.0,0.0,0.0,0.0,0.0,0.0,0.0,0.0,0.0,0.0,0.0,0.0,0.0,0.0,0.0,0.0,0.0,0.0,0.0,0.0,0.0,0.0,0.0,0.0,0.0,0.0,0.0,0.0,0.0,0.0,0.0,0.0,0.0,0.0,0.0,0.0,0.0,0.0,0.0,2.613,2.8874,3.0795,3.08,3.0801,3.0801,3.0801,3.0801,2.9709,2.7155,0.0,0.0,0.0,0.0,0.0,0.0,0.0,0.0,0.0,0.0,0.0,0.0,0.0,0.0,0.0,0.0,0.0,0.0,0.0,0.0,0.0,0.0,0.0,0.0,0.0,0.0,0.0,0.0,0.0,0.0,0.0,0.0,0.0,0.0,0.0,0.0,0.0,0.0,0.0,0.0,0.0,0.0,0.0,0.0,0.0,0.0,0.0,0.0,0.0,0.0,0.0,0.0,0.0,0.0,0.0,0.0,0.0,0.0,0.0,0.0,0.0,0.0,0.0,0.0,0.0,0.0,0.0,0.0,0.0,0.0,0.0,0.0,0.0,0.0,0.0,0.0,0.0,0.0,0.0,0.0,0.0,0.0,0.0,0.0,0.0,0.0,0.0,0.0,0.0,0.0,0.0,0.0,0.0,0.0,0.0,0.0,0.0,0.0,0.0,0.0,0.0,0.0,2.6795,2.9171,3.0804,3.0798,3.08,3.0801,3.0801,3.0801,2.9788,2.7392,0.0,0.0,0.0,0.0,0.0,0.0,0.0,0.0,0.0,0.0,0.0,0.0,0.0,0.0,0.0,0.0,0.0,0.0,0.0,0.0,0.0,0.0,0.0,0.0,0.0,0.0,0.0,0.0,0.0,0.0,0.0,0.0,0.0,0.0,0.0,0.0,0.0,0.0,0.0,0.0,0.0,0.0,0.0,0.0,0.0,0.0,0.0,0.0,0.0,0.0,0.0,0.0,0.0,0.0,0.0,0.0,0.0,0.0,0.0,0.0,3.0516,0.0,0.0,0.0,0.0,0.0,0.0,0.0,0.0,0.0,0.0,0.0,0.0,0.0,0.0,0.0,0.0,0.0,0.0,0.0,0.0,0.0,0.0,0.0,0.0,0.0,0.0,0.0,0.0,0.0,0.0,0.0,0.0,0.0,0.0,0.0,0.0,0.0,0.0,0.0,0.0,0.0,2.6787,2.9181,3.0799,3.0803,3.0794,3.0801,3.0801,3.0801,3.0296,2.911,2.7571,0.0,0.0,0.0,0.0,0.0,0.0,0.0,0.0,0.0,0.0,0.0,0.0,0.0,0.0,0.0,0.0,0.0,0.0,0.0,0.0,0.0,0.0,0.0,0.0,0.0,0.0,0.0,0.0,0.0,0.0,0.0,0.0,0.0,0.0,0.0,0.0,0.0,0.0,0.0,0.0,0.0,0.0,0.0,0.0,0.0,0.0,0.0,0.0,0.0,0.0,0.0,0.0,0.0,0.0,0.0,0.0,0.0,0.0,0.0,0.0,3.2265,0.0,0.0,0.0,0.0,0.0,0.0,0.0,0.0,0.0,0.0,0.0,0.0,0.0,0.0,0.0,0.0,0.0,0.0,0.0,0.0,0.0,0.0,0.0,0.0,0.0,0.0,0.0,0.0,0.0,0.0,0.0,0.0,0.0,0.0,0.0,0.0,0.0,0.0,0.0,0.0,2.7981,2.9695,3.0802,3.0809,3.0796,3.0801,3.0801,3.0823,3.0495,2.9641,2.8355,0.0,0.0,0.0,0.0,0.0,0.0,0.0,0.0,0.0,0.0,0.0,0.0,0.0,0.0,0.0,0.0,0.0,0.0,0.0,0.0,0.0,0.0,0.0,0.0,0.0,0.0,0.0,0.0,0.0,0.0,0.0,0.0,0.0,0.0,0.0,0.0,0.0,0.0,0.0,0.0,0.0,0.0,0.0,0.0,0.0,0.0,0.0,0.0,0.0,0.0,0.0,0.0,0.0,3.723,3.75,3.7379,3.754,3.8007,3.8626,3.7974,3.7249,3.6383,0.0,0.0,0.0,0.0,0.0,0.0,0.0,0.0,0.0,0.0,0.0,0.0,0.0,0.0,0.0,0.0,0.0,0.0,0.0,0.0,0.0,0.0,0.0,0.0,0.0,3.6652,3.6094,0.0,0.0,0.0,0.0,0.0,0.0,0.0,0.0,0.0,0.0,0.0,0.0,2.9525,3.0485,3.1038,3.103,3.0897,3.0801,3.0801,3.0865,3.0597,2.9878,2.9001,2.8202,0.0,0.0,0.0,0.0,0.0,0.0,0.0,0.0,0.0,0.0,0.0,0.0,0.0,0.0,0.0,0.0,0.0,0.0,0.0,0.0,0.0,0.0,0.0,0.0,0.0,0.0,0.0,0.0,0.0,0.0,0.0,0.0,2.5301,2.5687,0.0,0.0,0.0,0.0,0.0,0.0,0.0,0.0,0.0,0.0,0.0,0.0,0.0,3.6108,3.6626,3.8838,3.9763,3.9402,4.1591,4.2265,4.1619,4.2447,4.2997,4.3315,4.3196,0.0,3.7433,3.7416,0.0,0.0,0.0,0.0,0.0,0.0,0.0,0.0,0.0,0.0,0.0,0.0,0.0,0.0,0.0,0.0,0.0,0.0,0.0,0.0,0.0,0.0,3.8492,3.7902,3.7949,3.7957,0.0,3.4852,3.2438,3.1501,0.0,0.0,0.0,0.0,0.0,0.0,0.0,0.0,3.05,3.1393,3.1929,3.1931,3.1242,3.0801,3.0801,3.0865,3.0851,3.0738,2.9919,2.9374,2.9258,2.7695,0.0,0.0,0.0,0.0,0.0,0.0,0.0,0.0,0.0,0.0,0.0,0.0,0.0,0.0,0.0,0.0,0.0,0.0,0.0,0.0,0.0,0.0,0.0,0.0,0.0,0.0,0.0,0.0,0.0,2.5794,2.757,2.7523,2.8363,2.8651,0.0,0.0,0.0,0.0,0.0,0.0,0.0,0.0,0.0,3.676,3.8386,3.9544,4.0139,4.1645,4.2301,4.2112,4.3352,4.3759,4.344,4.3994,4.4311,4.4431,4.4624,4.3516,4.1524,4.0691,3.9319,3.7664,0.0,0.0,0.0,0.0,0.0,3.6612,3.8528,3.9231,0.0,0.0,0.0,0.0,0.0,0.0,0.0,0.0,0.0,0.0,0.0,0.0,0.0,4.0188,3.9949,3.965,3.9686,3.8205,3.6484,0.0,3.3685,3.1997,3.0144,0.0,0.0,0.0,0.0,3.1273,3.2149,3.2174,3.21,3.21,3.1324,3.0822,3.0845,3.0889,3.0893,3.0896,3.0995,3.084,3.0351,2.9609,2.873,0.0,0.0,0.0,0.0,0.0,0.0,0.0,0.0,0.0,0.0,0.0,0.0,0.0,0.0,0.0,0.0,0.0,0.0,0.0,0.0,0.0,0.0,0.0,0.0,0.0,0.0,0.0,0.0,2.8028,2.9887,2.931,3.0954,3.1689,0.0,0.0,0.0,0.0,0.0,0.0,3.6671,3.782,3.8944,4.0038,4.1343,4.2298,4.2897,4.3509,4.3826,4.3897,4.4121,4.4265,4.4332,4.4553,4.4701,4.4776,4.5024,4.5052,4.4819,4.3224,4.1846,4.0624,3.9865,3.9067,3.8453,3.9373,3.9727,3.999,4.1647,4.222,4.2166,4.1883,0.0,3.97,3.8408,0.0,0.0,0.0,0.0,4.0281,4.1751,0.0,4.1289,4.1771,4.1467,4.0998,4.08,4.0372,3.9617,0.0,3.7066,3.5647,3.3479,0.0,0.0,0.0,0.0,3.2993,3.3656,3.3167,3.2776,3.2778,3.1996,3.1489,3.1534,3.1538,3.154,3.1541,3.2148,3.2226,3.1562,3.1543,3.082,2.9296,0.0,0.0,0.0,0.0,0.0,0.0,0.0,0.0,0.0,0.0,0.0,0.0,0.0,0.0,0.0,0.0,0.0,0.0,0.0,0.0,0.0,0.0,0.0,0.0,0.0,0.0,0.0,0.0,0.0,3.1686,3.5189,0.0,0.0,0.0,0.0,3.5225,3.6677,3.8099,3.9331,4.0895,4.23,4.3502,4.363,4.3712,4.3749,4.3777,4.3929,4.4169,4.4265,4.4436,4.4688,4.4745,4.4938,4.518,4.5191,4.5332,4.5469,4.4355,4.3705,4.3315,4.2523,4.168,4.1035,4.2104,4.2551,4.2733,4.3794,4.4154,4.4288,4.509,4.3682,4.1658,4.1562,4.0431,0.0,0.0,4.1046,4.1881,4.2791,4.2996,4.2796,4.2066,4.197,4.182,4.1047,4.0917,4.0664,0.0,3.8312,3.6927,3.5966,0.0,3.4215,3.3394,3.4018,3.4584,3.4623,3.46,3.458,3.4564,3.3799,3.3272,3.3277,3.3279,3.326,3.326,3.332,3.332,3.3281,3.3262,3.2832,3.1932,3.0291,0.0,0.0,0.0,0.0,0.0,0.0,0.0,0.0,0.0,0.0,0.0,0.0,0.0,0.0,0.0,0.0,0.0,0.0,0.0,0.0,0.0,0.0,0.0,0.0,0.0,0.0,0.0,0.0,3.5519,3.756,0.0,3.7041,3.7679,3.8451,3.9078,4.0227,4.1289,4.2249,4.2885,4.3429,4.3841,4.3915,4.4002,4.4177,4.4196,4.4311,4.4585,4.4788,4.4925,4.503,4.5222,4.5395,4.5517,4.5517,4.5575,4.5636,4.525,4.5015,4.4848,4.4571,4.4293,4.4105,4.4486,4.465,4.4726,4.5084,4.5196,4.5248,4.5507,4.4994,4.4244,4.4244,4.386,4.3485,4.3774,4.4079,4.4372,4.4696,4.4392,4.3782,4.2951,4.2449,4.1931,4.1139,4.1051,4.1027,4.0669,3.9717,3.8529,3.7083,3.6577,3.5894,3.4448,3.4975,3.5542,3.5542,3.5052,3.47,3.4702,3.392,3.3394,3.3396,3.3397,3.3163,3.2598,3.3086,3.293,3.1835,3.2324,3.2226,3.1347,3.074,2.9859,0.0,0.0,0.0,0.0,0.0,0.0,0.0,0.0,0.0,0.0,0.0,0.0,0.0,0.0,0.0,0.0,0.0,0.0,0.0,0.0,0.0,0.0,0.0,0.0,0.0,0.0,3.7229,3.7823,3.9627,4.0414,3.9378,4.0294,4.127,4.202,4.2659,4.3262,4.3808,4.3907,4.3937,4.3937,4.4064,4.4221,4.4409,4.4486,4.4669,4.4944,4.5126,4.5243,4.5337,4.5513,4.564,4.5701,4.5701,4.5706,4.5704,4.5704,4.5672,4.5637,4.5637,4.5658,4.5702,4.5702,4.5703,4.5704,4.5704,4.5707,4.5698,4.565,4.5637,4.5637,4.5637,4.5658,4.5702,4.5702,4.5703,4.5708,4.5723,4.5341,4.4712,4.3875,4.3136,4.2381,4.1586,4.1276,4.117,4.1132,4.0701,3.9782,3.8043,3.7732,3.7146,3.5408,3.5623,3.5995,3.5995,3.5506,3.5135,3.5135,3.4627,3.4276,3.4277,3.4277,3.4023,3.3455,3.3964,3.3652,3.2245,3.2734,3.2519,3.1367,3.1053,3.0757,3.0443,0.0,0.0,0.0,0.0,0.0,0.0,0.0,0.0,0.0,0.0,0.0,0.0,0.0,0.0,0.0,0.0,0.0,0.0,0.0,0.0,0.0,0.0,0.0,3.3535,3.6819,3.9203,3.8541,4.1501,4.3033,4.1614,4.2889,4.3804,4.3804,4.3867,4.3897,4.3897,4.3966,4.4002,4.4002,4.426,4.443,4.4418,4.4682,4.4956,4.5211,4.5211,4.5347,4.5594,4.5594,4.564,4.5701,4.5701,4.5706,4.5708,4.5708,4.5708,4.5708,4.5708,4.5708,4.5708,4.5708,4.5708,4.5692,4.5715,4.5715,4.5715,4.57,4.57,4.57,4.57,4.5704,4.5704,4.5704,4.5704,4.5735,4.5792,4.5803,4.5617,4.4797,4.4008,4.3224,4.238,4.1645,4.1158,4.1191,4.1191,4.0664,3.8944,3.8613,3.8027,3.6309,3.6015,0.0,3.5995,3.5996,3.5996,3.5995,3.5996,3.6015,3.6034,3.6012,3.5991,3.5991,3.5974,3.5584,3.4725,3.4707,3.3945,3.2305,3.1483,3.142,3.2138,0.0,0.0,0.0,0.0,0.0,0.0,0.0,0.0,0.0,0.0,0.0,0.0,0.0,0.0,0.0,0.0,0.0,0.0,0.0,0.0,0.0,3.7619,3.9734,3.8273,3.9596,4.1099,4.2155,4.315,4.3586,4.3176,4.3584,4.3875,4.3875,4.3937,4.3966,4.3966,4.4162,4.4282,4.4282,4.4546,4.4782,4.4971,4.5058,4.5222,4.5495,4.5495,4.5522,4.5594,4.5594,4.5637,4.5707,4.5707,4.5731,4.5775,4.5775,4.5775,4.5768,4.5731,4.5723,4.5769,4.5769,4.5769,4.5786,4.5825,4.5851,4.5844,4.5853,4.5855,4.5855,4.5855,4.5888,4.5923,4.5923,4.5957,4.5993,4.6019,4.6022,4.581,4.4943,4.4614,4.4079,4.2593,4.2154,4.1874,4.1308,4.1191,4.0859,3.9726,3.9023,3.8222,3.7109,3.6404,0.0,3.5992,3.5993,3.5993,3.5992,3.5993,3.6266,3.689,3.6362,3.6009,3.6007,3.5404,3.4957,3.4703,3.4705,3.4472,3.4023,3.4393,3.4078,0.0,0.0,0.0,0.0,0.0,0.0,0.0,0.0,0.0,0.0,0.0,0.0,0.0,0.0,0.0,0.0,0.0,0.0,0.0,0.0,0.0,0.0,4.0346,4.2341,4.2016,4.2354,4.2928,4.3748,4.3945,4.3974,4.3881,4.3921,4.3989,4.4091,4.4151,4.4214,4.4336,4.4472,4.4566,4.4566,4.4825,4.5047,4.5201,4.5317,4.5438,4.5594,4.5594,4.5594,4.5594,4.5594,4.5642,0.0,4.5704,4.5734,4.5803,4.5803,4.5822,0.0,0.0,0.0,0.0,0.0,4.5939,4.5919,4.5969,4.5986,4.5973,4.5974,4.5987,4.5987,4.5987,4.6016,4.6045,4.6045,4.6072,4.61,4.61,4.61,4.5964,4.546,4.5116,4.4523,4.3138,4.2613,4.2168,4.1367,0.0,0.0,4.0488,3.9706,3.8846,3.7985,3.7104,3.6672,0.0,3.6769,3.6672,3.7043,3.7082,3.7296,3.7803,3.7372,0.0,0.0,0.0,3.6168,3.5799,3.5448,0.0,0.0,0.0,0.0,0.0,0.0,0.0,0.0,3.7149,3.7125,0.0,0.0,0.0,0.0,0.0,0.0,0.0,0.0,0.0,0.0,0.0,0.0,0.0,0.0,0.0,0.0,4.2549,4.3924,4.4619,4.4714,4.4539,4.4056,4.4206,4.4294,4.4117,4.4094,4.4196,4.4436,4.4457,4.4546,4.4782,0.0,0.0,0.0,0.0,4.5434,4.5529,4.5754,4.5879,4.5879,4.5879,4.5825,4.5753,4.5753,4.5727,4.5712,4.5712,4.5757,4.5807,4.5824,4.5892,4.601,4.5883,4.5907,4.601,4.6074,4.61,0.0,0.0,0.0,0.0,4.6122,4.6123,4.6123,4.6123,4.6123,4.6123,4.6123,4.6123,4.6123,4.6123,4.6123,4.6123,4.6123,4.5576,4.4821,4.3942,4.3122,4.2303,4.1484,4.1209,4.1108,4.109,4.0427,3.9645,3.8861,3.7997,0.0,3.8502,3.7915,3.774,3.8521,0.0,0.0,3.8736,3.8653,3.863,3.8728,3.8739,3.8395,3.7637,3.7031,3.7031,3.7734,3.8671,3.9862,4.1248,4.2125,4.2983,4.3744,3.9848,3.9236,0.0,0.0,0.0,0.0,0.0,0.0,0.0,0.0,0.0,0.0,0.0,0.0,0.0,0.0,0.0,4.1956,4.3664,4.4845,4.4787,4.5134,4.5217,4.4682,4.4669,4.4682,4.4644,4.4656,4.4663,4.4714,4.472,4.4758,4.4788,4.5007,0.0,4.614,4.6426,4.6872,4.753,4.7587,4.7625,4.7625,0.0,0.0,4.6658,4.6658,4.6323,4.5777,4.5777,4.5783,4.5814,4.5926,4.6013,4.6076,4.6058,4.6062,4.608,4.6095,4.61,4.6109,4.6158,4.6171,4.6197,4.6241,4.6265,4.6265,4.6265,4.6265,0.0,4.6265,4.6265,4.6265,4.6265,4.6265,4.6265,4.6265,4.613,4.58,4.4921,4.4043,4.3182,4.2323,4.1598,4.1106,4.1102,4.0439,3.9834,3.9676,3.891,3.8418,3.8574,3.8457,3.8418,3.8574,3.8593,3.8866,3.9509,3.8962,3.8884,3.9527,3.9617,3.9566,3.9394,4.0527,4.0937,4.0469,4.1933,4.2539,4.2147,4.3025,4.3902,4.472,4.3171,4.2739,0.0,0.0,0.0,0.0,0.0,0.0,0.0,0.0,0.0,0.0,0.0,3.9855,4.0691,0.0,4.2981,4.3856,4.4791,4.5347,4.5217,4.5429,4.5405,4.4855,4.4927,4.4956,4.4806,4.4794,4.5038,4.5616,4.5641,4.5888,4.6424,4.6572,4.6843,4.7289,4.7439,4.7697,4.8101,4.8101,4.8101,4.8101,4.8133,4.7944,4.7546,4.7623,4.7478,4.713,4.6734,4.6563,4.6578,4.6244,4.6122,4.6151,4.6195,4.6171,4.6151,4.6196,4.6203,4.6206,4.6239,4.6243,4.6264,4.6289,4.6308,4.6308,4.6308,4.6308,4.6308,4.6308,4.6308,4.6308,4.6308,4.6308,4.6308,4.6308,4.6308,4.6054,4.5194,4.4665,4.3961,4.2652,4.2044,4.161,4.1177,4.0765,4.051,4.051,3.9764,3.9352,3.9782,3.9469,3.9371,3.9801,3.984,4.0016,4.0425,4.0078,4.0022,4.0435,4.0482,4.0701,4.1132,4.1953,4.2422,4.2441,4.3691,4.414,4.3691,4.4589,4.5214,4.5643,4.5191,4.4993,0.0,0.0,0.0,0.0,0.0,0.0,0.0,3.8867,3.9212,4.0899,4.194,4.2793,4.3682,4.422,4.484,4.5706,4.5706,4.5594,4.5594,4.5594,4.5434,4.5013,4.5159,4.5196,4.4985,4.4962,4.5414,4.6506,4.6579,4.7015,4.8058,4.8101,4.8178,4.8355,4.8355,4.8432,4.86,4.8637,4.8644,4.8634,4.8734,4.8678,4.8539,4.8622,4.8624,4.8463,4.767,4.7366,4.7357,4.6541,4.6206,4.6215,4.6288,4.6266,4.6235,4.6288,4.6308,4.6308,4.6308,4.6308,4.6308,4.6308,4.6308,4.6308,4.6308,4.6308,4.6308,4.6308,4.6308,4.6308,4.6308,4.6308,4.6308,4.6308,4.6307,4.6111,4.5405,4.5129,4.4581,4.3175,4.2624,4.2171,4.1468,4.121,4.1109,4.1109,4.0503,4.0307,4.1011,4.0484,4.0327,4.1011,4.1109,4.1109,4.1091,4.1097,4.1103,4.1108,4.1266,4.1679,4.2363,4.2734,4.3242,4.3945,4.4805,4.5254,4.5254,4.5957,4.6308,4.6308,4.6308,4.6306,3.6658,3.7852,3.8846,3.9676,3.9407,3.9945,0.0,4.3556,4.2968,4.4645,4.5101,4.5436,4.6312,4.5913,4.5744,4.6601,4.6109,4.5594,4.5594,4.5594,4.5577,4.5513,4.5546,4.5531,4.5508,4.5508,4.5878,4.6799,4.6857,4.7212,4.8062,4.8101,4.8452,4.9221,4.924,4.9629,5.0403,5.0529,5.0584,5.0597,5.0727,5.0407,4.97,4.9655,4.9266,4.853,4.7737,4.7423,4.7428,4.6553,4.6238,4.6289,4.6308,4.6308,4.6289,4.6308,4.6308,4.6308,4.6308,4.6308,4.6308,4.6308,4.6308,4.6308,4.6308,4.6308,4.6308,4.6308,4.6308,4.6308,4.6308,4.6308,4.6308,4.6308,4.6308,4.6268,4.6189,4.5559,4.4946,4.4751,4.3456,4.2377,4.228,4.1616,4.1109,4.1109,4.1011,4.0991,4.109,4.1011,4.0991,4.109,4.1109,4.1092,4.1097,4.1103,4.1108,4.1091,4.1834,4.2304,4.2402,4.3887,4.4746,4.4844,4.5703,4.6152,4.6152,4.625,4.6308,4.6308,4.6308,4.6308,3.9335,4.0403,4.0969,4.1801,4.2108,4.2666,4.4436,4.4301,4.4147,4.534,4.5594,4.5879,4.6735,4.6601,4.6624,4.7466,4.7298,4.6894,4.6413,4.6355,4.6163,4.5667,4.6052,4.6355,4.6355,4.5898,4.6379,4.8221,4.7889,4.8182,4.9534,4.961,4.9816,5.0259,5.0265,5.0469,5.0867,5.0966,5.1027,5.102,5.1067,5.0927,5.0592,5.0652,5.0266,4.9513,4.9181,4.8757,4.8296,4.7925,4.7498,4.7051,4.7051,4.6758,4.6308,4.6308,4.6308,4.6308,4.6308,4.6308,4.6308,4.6308,4.6308,4.6308,4.6308,4.6308,4.6308,4.6308,4.6308,4.6308,4.6308,4.6308,4.6308,4.6306,4.6303,4.63,4.6296,4.6001,4.5608,4.5095,4.4412,4.3592,4.2572,4.2103,4.1674,4.1187,4.1109,4.1109,4.1109,4.1109,4.1091,4.1095,4.1099,4.1102,4.1104,4.1557,4.1853,4.1853,4.2675,4.3379,4.3887,4.4609,4.5234,4.5742,4.6113,4.6308,4.6308,4.6308,4.6308,4.6308,4.6308,4.6308,4.0562,4.1619,4.2312,4.2931,4.3701,4.4355,4.4609,4.4667,4.484,4.5475,4.5594,4.5879,4.6735,4.6908,4.7158,4.7966,4.8101,4.7889,4.7312,4.7043,4.6755,4.634,4.6673,4.7146,4.7608,4.6621,4.6917,4.9221,4.8637,4.8919,5.0657,5.0778,5.0831,5.0911,5.0949,5.0978,5.1037,5.1083,5.1146,5.1152,5.117,5.1187,5.119,5.1277,5.1048,5.0527,5.0293,4.9844,4.9238,4.9004,4.8535,4.793,4.7695,4.7207,4.6621,4.6387,4.6308,4.6308,4.6308,4.6308,4.6308,4.6308,4.6308,4.6308,4.6308,4.6308,4.6308,4.6308,4.6308,4.6308,4.6308,4.6308,4.6306,4.6303,4.6297,4.6291,4.6306,4.6307,4.6113,4.5481,4.5152,4.4608,4.3333,4.2922,4.2533,4.1913,4.1813,4.1635,4.1168,4.1306,4.1466,4.1452,4.1672,4.1812,4.1812,4.24,4.2753,4.2753,4.3574,4.4336,4.4961,4.5234,4.5664,4.6289,4.6308,4.6308,4.6308,4.6288,4.6267,4.6267,4.6244,4.6241,3.98,4.1185,4.3066,4.3085,4.3701,4.4513,4.5359,4.5556,4.5575,4.5594,4.5594,4.5879,4.6735,4.6908,4.7158,4.7966,4.8101,4.8082,4.8062,4.7389,4.7178,4.7928,4.7464,4.7722,0.0,4.7912,4.7562,4.926,4.8704,4.9053,5.0809,5.0959,5.0986,5.1009,5.1052,5.1082,5.1092,5.1151,5.1224,5.1294,5.1363,5.1386,5.1386,5.1406,5.1387,5.1328,5.0547,5.0176,5.0098,4.9258,4.8887,4.8789,4.793,4.7578,4.7461,4.6601,4.6308,4.6308,4.6308,4.6308,4.6308,4.6308,4.6308,4.6308,4.6308,4.6308,4.6308,4.6308,4.6308,4.6308,4.6307,4.6307,4.6306,4.6303,4.6297,4.6293,4.6293,4.6306,4.6281,4.6262,4.5578,4.4972,4.4933,4.4211,4.3649,4.3637,4.3612,4.3002,4.1324,4.1837,4.2351,4.2357,4.3122,4.3611,4.3611,4.3652,4.3652,4.3652,4.4473,4.4961,4.5,4.5801,4.6269,4.6308,4.6308,4.6308,4.6308,4.6238,4.6204,4.6203,4.6137,4.6107,4.2333,4.3308,4.4156,4.4639,4.4955,4.5244,4.5532,4.5668,4.5727,4.5727,4.5727,4.5993,4.6812,4.693,4.7376,4.8858,4.9106,4.9131,4.9222,4.9491,4.9358,4.8464,4.9188,0.0,0.0,0.0,0.0,5.0287,4.9211,4.9171,5.0881,5.0989,5.1038,5.1133,5.1154,5.1206,5.1302,5.1318,5.1343,5.1364,5.1386,5.1406,5.1406,5.1406,5.1406,5.1387,5.1113,5.0996,5.0976,5.0683,5.0234,4.9726,4.9433,4.8965,4.8437,4.8125,4.7656,4.707,4.6504,4.6308,4.6308,4.6308,4.6308,4.6308,4.6308,4.6308,4.6308,4.6308,4.6308,4.6307,4.6305,4.6301,4.6299,4.6297,4.6291,4.6305,4.6305,4.6302,4.6301,4.6301,4.6066,4.5677,4.5097,4.4766,4.4379,4.38,4.3701,4.3484,4.2894,4.3077,4.3258,4.3259,4.3515,4.3691,4.3691,4.4238,4.4551,4.4551,4.5371,4.5859,4.5859,4.6133,4.6308,4.6308,4.6264,4.6238,4.6238,4.6161,4.6134,4.6134,4.6112,4.6391,4.4018,4.4517,4.476,4.5513,4.5719,4.5719,4.5719,4.5775,4.5841,4.5841,4.5586,4.5619,4.6452,4.6563,4.7129,4.8924,4.9716,5.0238,5.0639,5.1181,5.1222,5.0423,5.1085,5.15,0.0,0.0,0.0,5.0875,4.9775,4.9639,5.0994,5.1121,5.1171,5.1273,5.1265,5.1318,5.1406,5.1406,5.1406,5.1406,5.1406,5.1406,5.1406,5.1406,5.1406,5.1406,5.1406,5.1406,5.1406,5.1406,5.1094,5.0605,5.0312,4.9863,4.9336,4.9004,4.8555,4.7949,4.707,4.6562,4.6308,4.6308,4.6308,4.6308,4.6308,4.6308,4.6308,4.6307,4.6306,4.6305,4.63,4.6296,4.6293,4.6309,4.6305,4.6301,4.6301,4.6301,4.6302,4.6305,4.6305,4.6112,4.5553,4.5458,4.5265,4.4701,4.4625,4.4391,4.3781,4.3961,4.4158,4.4158,4.4433,4.4629,4.4629,4.5136,4.5469,4.5469,4.5996,4.6308,4.6308,4.6287,4.6266,4.6266,4.6202,4.616,4.616,4.6096,4.6056,4.6076,4.6333,4.6722,4.4677,4.4749,4.4943,4.571,4.5902,4.5902,4.5902,4.5866,4.5832,4.5832,4.5144,4.4792,4.5616,4.5836,4.6452,4.8178,4.989,5.1311,5.22,5.2408,5.2741,5.353,5.3044,5.2948,5.3738,5.2384,0.0,5.1106,0.0,5.0368,5.1164,5.133,5.1405,5.1405,5.1406,5.1406,5.1406,5.1406,5.1406,5.1406,5.1406,5.1406,5.1406,5.1406,5.1406,5.1406,5.1406,5.1406,5.1406,5.1406,5.1406,5.1328,5.0547,5.0254,5.0156,4.9316,4.8984,4.8828,4.8007,4.7129,4.6367,4.6308,4.6289,4.6289,4.6289,4.6288,4.6285,4.6285,4.6282,4.6277,4.627,4.6288,4.6286,4.6278,4.6277,4.6297,4.6297,4.6299,4.6303,4.6291,4.6293,4.6296,4.6301,4.6305,4.6306,4.6303,4.6307,4.5703,4.4041,4.4569,4.5076,4.5076,4.5818,4.6306,4.6306,4.6307,4.6307,4.6308,4.6289,4.6289,4.6289,4.6236,4.618,4.618,4.6129,4.6095,4.6095,4.6025,4.6011,4.6066,4.6774,4.7157,4.4701,4.5207,4.5764,4.5864,4.5902,4.5902,4.5902,4.5472,4.5071,4.5071,4.4388,4.3843,4.4077,4.5091,4.6294,4.7499,4.9636,5.1493,5.2462,5.372,5.4387,5.3947,5.4313,5.4423,5.3983,5.2994,0.0,0.0,5.0911,5.0451,5.1297,5.1383,5.1405,5.1406,5.1406,5.1406,5.1406,5.1406,5.1406,5.1406,5.1406,5.1406,5.1406,5.1406,5.1406,5.1406,5.1406,5.1406,5.1406,5.1406,5.1364,5.131,5.1096,5.098,5.0926,5.0691,5.0202,4.9615,4.9381,4.8414,4.7148,4.6455,4.6235,4.621,4.611,4.6072,4.6063,4.6017,4.6006,4.5996,4.5994,4.6009,4.6007,4.6,4.6087,4.6146,4.6146,4.6238,4.6303,4.6291,4.63,4.6305,4.6306,4.6308,4.6308,4.6308,4.6308,4.6133,4.5682,4.5838,4.5975,4.5975,4.6168,4.6303,4.6303,4.6306,4.6284,4.6228,4.6231,4.6204,4.6151,4.6135,4.6126,4.6126,4.605,4.6022,4.6022,4.5907,4.6187,4.6826,4.702,4.7792,4.5392,4.5787,4.6174,4.6096,4.6086,4.5988,4.5597,4.5178,4.4677,4.3895,4.3351,4.3019,4.3019,4.4064,4.5494,4.7209,4.9636,5.1758,5.3077,5.4779,5.5699,5.52,5.5573,5.5673,5.519,5.4351,5.3687,0.0,5.1656,5.0875,5.1365,5.1405,5.1406,5.1406,5.1406,5.1406,5.1406,5.1406,5.1406,5.1406,5.1406,5.1406,5.1406,5.1406,5.1386,5.1361,0.0,5.1336,5.1304,5.1304,5.129,5.1262,5.1262,5.1221,5.1201,5.1201,5.0889,5.0418,4.9997,4.9291,4.8363,4.7088,4.6663,4.6552,4.6092,4.5951,4.5957,4.591,4.5894,4.5901,4.5907,4.5902,4.5902,4.5902,4.5966,4.6007,4.6007,4.6064,4.612,4.6163,4.6187,4.6201,4.6201,4.6206,4.6214,4.6243,4.6237,4.6211,4.6216,4.6264,4.6306,4.6305,4.6301,4.6274,4.6221,4.6205,4.6175,4.6116,4.61,4.6113,4.6102,4.6066,4.6065,4.6065,4.5964,4.5901,4.5901,4.5844,4.6248,4.7119,4.7486,4.8392,4.6272,4.6301,4.6301,4.6301,4.6301,4.6066,4.5206,4.4913,4.4367,4.2746,4.2317,4.2239,4.2239,4.3021,4.4524,4.7023,4.9561,5.1888,5.3732,5.5393,5.6469,5.6593,5.6594,5.6596,5.66,5.5819,5.4999,5.4238,5.2656,5.1639,5.1405,5.1406,5.1406,5.1406,5.1406,5.1406,5.1406,5.1406,5.1406,5.1406,5.1386,5.1386,5.1386,5.1385,5.1337,5.1287,0.0,0.0,5.1201,5.1201,5.1195,5.1185,5.1185,5.1176,5.1165,5.1165,5.1163,5.1042,5.0238,4.9931,4.9656,4.7998,4.7407,4.7211,4.644,4.6129,4.6033,4.6027,4.5953,4.5856,4.5856,4.5856,4.5856,4.5856,4.5867,4.59,4.59,4.5897,4.5928,4.5994,4.6055,4.61,4.61,4.61,4.612,4.619,4.6135,4.6094,4.6095,4.6189,4.6259,4.6252,4.6245,4.6205,4.6075,4.6071,4.6058,4.5994,4.5994,4.6019,4.6068,4.6008,4.5978,4.5978,4.5867,4.5803,4.5803,4.5919,4.6422,4.7293,4.8179,4.903,4.6299,4.6301,4.6301,4.6301,4.6301,4.6066,4.5206,4.4445,4.3645,4.261,4.183,4.1323,4.1323,4.2631,4.4312,4.6212,4.8653,5.1195,5.3642,5.4873,5.5792,5.65,5.6598,5.66,5.6601,5.5801,0.0,0.0,5.4121,5.293,5.1484,5.1406,5.1406,5.1406,5.1406,5.1406,5.1406,5.1406,5.1406,5.1406,5.1338,5.1326,5.1325,5.1266,5.1236,5.1222,0.0,0.0,5.1201,5.1201,5.1176,5.1114,5.1114,5.1049,5.0946,5.0946,5.0947,5.094,5.0774,5.0646,5.0285,4.8716,4.8196,4.8147,4.7882,4.7306,4.673,4.6736,4.6208,4.5648,4.5648,4.5648,4.5648,4.5648,4.5734,4.5822,4.5822,4.5892,4.5994,4.608,4.6084,4.61,4.61,4.61,4.6103,4.6117,4.6056,4.6022,4.6011,4.6031,4.6022,4.598,4.5977,4.5956,4.5937,4.5937,4.5937,4.5917,4.5914,4.5897,4.5845,4.5835,4.5825,4.5825,4.5817,4.5803,4.5803,4.6519,4.7312,4.8198,4.9068,4.9916,4.6301,4.6301,4.6301,4.6301,4.6301,4.5949,4.4621,4.3997,4.3197,4.142,4.1089,4.0952,4.0503,4.1849,4.3588,4.5349,4.7403,4.9868,5.2902,5.4076,5.5114,5.6445,5.6601,5.6601,5.6601,5.6211,5.5781,5.5332,5.4902,5.3926,5.2168,5.1641,5.1406,5.1406,5.1406,5.1386,5.1359,5.1359,5.1332,5.1294,5.1269,5.1255,5.1253,5.122,5.1176,5.1147,5.1147,0.0,5.1035,5.1035,5.1017,5.0993,5.0993,5.0959,5.0909,5.0909,5.0884,5.0846,5.0816,5.0757,5.0575,4.9849,4.9295,4.8811,4.8304,4.7868,4.7436,4.7009,4.6601,4.6163,4.5725,4.5594,4.5594,4.5594,4.5658,4.5708,4.5746,4.5798,4.5853,4.5925,4.5933,4.5936,4.5936,4.5936,4.5973,4.6046,4.5968,4.5908,4.5893,4.588,4.5862,4.5894,4.5898,4.5897,4.5853,4.5843,4.5835,4.5807,4.5798,4.5801,4.5807,4.5803,4.5803,4.5803,4.5803,4.6016,4.648,4.6906,4.7773,4.9088,4.9513,5.0128,4.6301,4.6301,4.6301,4.6301,4.6302,4.5835,4.4097,4.3708,4.3006,4.0586,4.0624,4.0896,4.0192,4.1208,4.275,4.4685,4.6311,4.8525,5.1948,5.3493,5.4784,5.6152,5.664,5.6816,5.6621,5.6601,0.0,5.5604,5.5367,0.0,5.2772,5.203,5.156,5.1362,5.1361,5.1333,5.1282,5.1282,5.1259,5.1201,5.1183,5.1172,5.1172,5.1152,5.1114,5.1059,5.1059,0.0,0.0,5.0898,5.0898,5.0898,5.089,5.0909,5.0899,5.0872,5.0842,5.0775,5.0715,5.0692,5.0697,5.0702,5.0245,4.9553,4.8856,4.8529,4.8259,4.7601,4.7178,4.6735,4.6071,4.5744,4.5594,4.5594,4.5594,4.5627,4.5693,4.5695,4.5719,4.58,4.5798,4.5803,4.5803,4.5803,4.5844,4.595,4.586,4.5787,4.5777,4.5723,4.5712,4.5822,4.5841,4.5803,4.5768,4.5757,4.5738,4.5708,4.5704,4.5723,4.5803,4.5803,4.5803,4.5803,4.5977,4.6422,4.7099,4.7467,4.8353,4.9703,4.9877,5.0302,4.6301,4.6301,4.6301,4.6301,4.6306,4.5843,4.4104,4.3698,4.3175,4.136,4.1043,4.1078,4.1,4.1117,4.2057,4.4582,4.5796,4.7615,5.1035,5.3633,5.5234,5.539,5.6816,5.7461,5.668,5.6601,5.6541,5.6399,0.0,0.0,5.2707,5.2533,5.2105,5.1245,5.1224,5.122,5.1213,5.1213,5.1209,5.1201,5.1132,5.112,5.1117,5.097,5.0917,5.0921,0.0,0.0,0.0,5.0898,5.0898,5.0898,5.0901,5.0904,5.0895,5.0838,5.077,5.0706,5.0701,5.0692,5.0697,5.0693,5.0649,5.0572,5.0495,4.9918,4.926,4.9183,4.8067,4.6889,4.6793,4.6182,4.5594,4.5594,4.5594,4.5627,4.5693,4.5695,4.5719,4.58,4.5798,4.5803,4.5803,4.5803,4.581,4.5824,4.5753,4.5715,4.5708,4.5643,4.5612,4.5627,4.5627,4.5637,4.562,4.5616,4.565,4.57,4.5704,4.5723,4.5803,4.5803,4.5803,4.5803,4.6577,4.7022,4.7099,4.8682,4.9533,4.9722,5.0457,5.0821,4.6158,4.6295,4.6295,4.6295,4.6297,4.5849,4.4091,4.3702,4.3216,4.1458,4.1106,4.1104,4.1104,4.1104,4.1788,4.388,4.4508,4.5936,4.9413,5.1169,5.2683,5.4264,5.5457,5.6222,5.6397,0.0,5.6407,5.6379,0.0,0.0,5.4041,5.3073,5.2129,5.1222,5.1201,5.1176,5.1135,5.1135,5.1098,5.1021,5.0984,5.0976,5.0972,5.091,5.0898,5.0898,0.0,0.0,0.0,5.0905,5.0869,5.0848,5.0831,5.0825,5.0775,5.0757,5.072,5.0697,5.0697,5.0707,5.0707,5.0707,5.0707,5.0707,5.0707,5.0457,5.0072,4.9553,4.8913,4.8279,4.7755,4.7355,4.6971,4.6509,4.6374,4.6262,4.5799,4.5696,4.5727,4.5791,4.5796,4.5803,4.5803,4.5803,4.5796,4.5794,4.5742,4.5696,4.5691,4.5633,4.5594,4.5594,4.5594,4.5594,4.5594,4.5594,4.562,4.5702,4.5692,4.5731,4.5806,4.5793,4.6055,4.6577,4.6925,4.7621,4.8662,4.9359,4.9954,5.0438,5.0743,5.0898,4.5677,4.6106,4.6301,4.6301,4.6303,4.5836,4.4061,4.3671,4.3183,4.1425,4.1054,4.1034,4.1034,4.1034,4.1523,4.3007,4.3689,4.5054,4.8042,4.9779,5.1412,5.3263,5.4398,5.5262,5.5862,5.613,5.6266,5.6266,0.0,0.0,0.0,5.3807,5.2666,5.1524,5.1251,5.1098,5.1043,5.1043,5.0993,5.0898,5.1153,5.1289,5.1289,5.1289,5.1289,5.1269,0.0,0.0,0.0,5.0887,5.0846,5.0797,5.0784,5.0733,5.0696,5.0702,5.0697,5.0707,5.0707,5.0707,5.0707,5.0707,5.0707,5.0707,5.0707,5.0707,5.0572,4.9957,4.961,4.9202,4.8336,4.8101,4.7966,4.7389,4.7062,4.6734,4.6187,4.5869,4.5708,4.5757,4.5771,4.5775,4.5805,4.5778,4.576,4.5773,4.5735,4.5695,4.5705,4.564,4.5594,4.5594,4.5594,4.5594,4.5594,4.5594,4.5631,4.5697,4.5703,4.5723,4.5804,4.6056,4.6461,4.7099,4.7599,4.8469,4.9703,4.9935,5.0341,5.0898,5.0898,5.0898,4.4762,4.5637,4.6301,4.6301,4.6305,4.5839,4.4017,4.3597,4.3112,4.1359,4.0949,4.0903,4.0903,4.0903,4.1195,4.2077,4.3664,4.5409,4.7161,5.0341,5.2485,5.2516,5.404,5.5075,5.5026,5.5728,5.6197,0.0,0.0,0.0,0.0,5.4798,5.3989,5.2229,5.1355,5.0902,5.0902,5.0902,5.0902,5.0917,5.1776,5.2186,5.2186,5.2186,5.2186,0.0,0.0,0.0,0.0,5.0838,5.0801,5.0793,5.072,5.0701,5.0692,5.0707,5.0707,5.0707,5.0707,5.0707,5.0707,5.0707,5.0707,5.0707,5.0707,5.0707,5.0707,5.0688,5.0072,4.9202,4.8336,4.8101,4.8101,4.8082,4.7485,4.6908,4.6889,4.626,4.5694,4.57,4.5708,4.5719,4.5781,4.5735,4.5708,4.5708,4.571,4.5701,4.5701,4.564,4.5594,4.5594,4.5594,4.5594,4.5594,4.5594,4.5631,4.5697,4.5703,4.5723,4.5804,4.6636,4.7099,4.7099,4.8798,4.9684,4.9703,5.0496,5.0898,5.0898,5.0898,5.0898,4.3577,4.4185,4.4381,4.4381,4.4397,4.4079,4.2911,4.2649,4.2327,4.123,4.0976,4.0961,4.0961,4.0961,4.1623,4.365,4.4446,4.5609,4.7903,5.0133,5.1975,5.3111,5.5236,5.6364,0.0,0.0,5.6056,0.0,0.0,0.0,0.0,5.5103,5.4,5.2264,5.2511,5.2101,5.0917,5.1486,5.1486,5.0917,5.1776,5.217,5.2157,5.2756,0.0,0.0,0.0,0.0,0.0,5.1389,5.1269,5.0774,5.1308,5.1188,5.0707,5.0693,5.0707,5.0707,5.0707,5.0707,5.0707,5.0707,5.0707,5.0707,5.0707,5.0707,5.0707,5.0707,5.0495,5.0226,4.9957,4.988,4.9726,4.9125,4.8798,4.8461,4.7911,4.7587,4.742,4.7462,4.747,4.7282,4.6715,4.6591,4.6382,4.5783,4.6163,4.6296,4.5717,4.6619,4.6874,4.5725,4.6629,4.6836,4.571,4.5594,4.5631,4.5697,4.6262,4.6611,4.6692,4.7522,4.8275,4.8875,4.9417,4.9974,5.0515,5.0786,5.0898,5.0898,5.0898,5.0898,4.2547,4.3242,4.3497,4.3497,4.3497,4.3275,4.2367,4.2165,4.1922,4.1105,4.0922,4.0922,4.0922,4.0922,4.1544,4.3432,4.4302,4.5505,4.7718,5.0043,5.2142,5.3841,5.5679,5.6472,0.0,5.5814,0.0,0.0,0.0,0.0,0.0,5.5524,5.4619,5.3212,5.3076,5.2492,5.1405,5.1606,5.1597,5.1361,5.22,5.2777,5.3052,5.3611,0.0,0.0,0.0,0.0,0.0,5.2237,5.2136,5.1683,5.2197,5.2082,5.165,5.165,5.1433,5.1144,5.1144,5.0957,5.0707,5.0707,5.0707,5.0707,5.0707,5.0707,5.0707,5.0707,5.0707,5.0707,5.0707,5.0707,5.0553,5.0014,4.9649,4.9269,4.8758,4.8397,4.8179,4.8242,4.8238,4.806,4.7533,4.7429,4.7234,4.6692,4.703,4.7156,4.661,4.7451,4.7702,4.6648,4.749,4.7682,4.6629,4.6533,4.6574,4.6641,4.7188,4.7499,4.7542,4.8411,4.9146,4.9684,4.9993,5.0399,5.0898,5.0898,5.0898,5.0898,5.0898,5.0898,0.0,4.268,4.3307,4.3307,4.3307,4.3075,4.2213,4.2017,0.0,4.0976,4.0797,4.0832,4.0968,4.0929,4.1219,4.2202,4.3727,4.5351,4.7061,5.0271,5.3095,5.4774,5.5679,0.0,5.4967,5.5563,0.0,0.0,0.0,0.0,0.0,5.6003,5.5655,5.4905,5.3242,5.2314,5.2182,5.1442,5.1417,5.2108,5.2922,5.3744,5.4598,5.4656,0.0,0.0,0.0,0.0,0.0,5.33,5.3255,5.3217,5.3274,5.3255,5.3197,5.3197,5.2697,5.1981,5.1923,5.1452,5.0861,5.0803,5.0745,5.0707,5.0707,5.0707,5.0707,5.0707,5.0707,5.0707,5.0707,5.0707,5.0707,5.0707,5.0072,4.949,4.949,4.8856,4.8307,4.8372,4.8325,4.8292,4.8295,4.8229,4.8178,4.8101,4.8139,4.8178,4.8101,4.8216,4.8235,4.8101,4.8216,4.8255,4.8197,4.8139,4.8128,4.8201,4.8322,4.8383,4.8384,4.927,4.9776,4.9796,5.0511,5.0898,5.0898,5.0898,5.0898,5.0898,5.0898,5.0898,4.0832,0.0,4.1433,4.1433,4.1433,4.1386,0.0,4.1116,4.1049,4.0842,4.0797,4.118,4.2473,4.2164,4.2647,4.5455,4.6245,4.7115,4.8856,5.2569,5.5505,5.6588,5.7462,5.7385,5.5872,5.5892,0.0,0.0,0.0,5.6008,0.0,5.5992,5.5916,5.5723,5.4624,5.3423,5.2133,5.2535,5.2527,5.2113,5.2924,5.3725,5.454,5.5205,0.0,0.0,0.0,0.0,5.3276,5.3939,5.3799,5.3274,5.3933,5.3799,5.3197,5.3197,5.3063,5.2794,5.2135,5.2217,5.251,5.1832,5.1202,5.0707,5.0707,5.0707,5.0707,5.0707,5.0707,5.0707,5.0707,5.0707,5.0707,5.0707,5.0534,5.038,5.038,5.0226,5.0096,5.0106,5.0101,4.9885,4.9235,4.9096,4.8875,4.8197,4.8663,4.8856,4.8197,4.926,4.9591,4.8235,4.9298,4.9822,4.9144,4.849,4.8124,4.8192,4.8841,4.9215,4.9219,5.0066,5.0574,5.0626,5.0809,5.0898,5.0898,5.0898,5.0898,5.0898,5.0898,5.0898,4.0681,4.1354,4.1954,4.1954,4.1954,4.1954,4.1954,4.1354,4.0797,4.0797,4.0797,4.118,4.2473,4.2647,4.344,4.6074,4.7177,4.8836,5.212,5.4905,5.6917,5.7791,5.8318,5.7931,0.0,0.0,0.0,0.0,0.0,0.0,0.0,5.5966,5.5957,5.5957,5.5432,5.454,5.3255,5.3272,5.3268,5.3215,5.3644,5.4274,5.5072,5.5539,5.5504,0.0,0.0,0.0,5.4376,5.4857,5.4761,5.4395,5.4876,5.4761,5.4357,5.4357,5.4107,5.3722,5.3255,5.314,5.3121,5.2659,5.1928,5.1241,5.1241,5.0996,5.0707,5.0707,5.0707,5.0707,5.0707,5.0707,5.0707,5.0707,5.0707,5.0707,5.0707,5.0707,5.0707,5.0707,5.0707,5.0553,5.0072,4.9995,4.9841,4.9356,4.9687,4.9822,4.9356,5.0111,5.0341,4.9394,5.0149,5.0515,5.0034,4.9548,4.9322,4.9344,4.9791,5.0064,5.0094,5.0546,5.0838,5.0899,5.0901,5.0901,5.0898,5.0898,5.0898,5.0898,5.0898,5.0898,4.0948,4.2299,4.3556,4.3053,4.3205,4.3437,4.3166,4.2106,4.118,4.118,4.118,4.1509,4.257,4.3266,4.4311,4.6268,4.8043,5.0828,5.5543,5.6839,5.7613,5.8492,5.8473,0.0,0.0,0.0,0.0,0.0,0.0,0.0,0.0,5.5914,5.5885,5.5885,5.5826,5.545,5.4776,5.3909,5.3826,5.449,5.4493,5.4914,5.5708,5.5708,5.5708,0.0,0.0,0.0,5.5708,5.5708,5.5708,5.5708,5.5708,5.5708,5.5708,5.5708,5.5266,5.4684,5.4684,5.403,5.3217,5.3351,5.2813,5.2096,5.2096,5.1625,5.1072,5.1072,5.0899,5.0707,5.0707,5.0707,5.0707,5.0707,5.0707,5.0707,5.0707,5.0707,5.0707,5.0707,5.0707,5.0707,5.0707,5.0707,5.0707,5.0707,5.0707,5.0707,5.0707,5.0707,5.0707,5.0707,5.0707,5.0707,5.0707,5.0707,5.0707,5.0706,5.0706,5.073,5.0775,5.0784,5.0829,5.0872,5.0895,5.0901,5.0898,5.0898,5.0898,5.0898,5.0898,5.089,4.1625,4.3579,4.472,4.1896,4.2802,4.4017,4.2531,4.257,4.2918,4.2918,4.2918,4.3614,4.59,4.5823,4.6461,4.9606,5.1583,5.3749,5.6684,5.7226,5.7613,5.8492,0.0,0.0,0.0,0.0,0.0,0.0,0.0,0.0,0.0,5.5846,5.5821,5.5821,5.5751,5.5667,5.5537,5.4724,5.4372,5.4502,5.4497,5.4914,5.5708,5.5708,5.5708,0.0,0.0,5.5708,5.5708,5.5708,5.5708,5.5708,5.5708,5.5708,5.5708,5.5708,5.5612,5.5516,5.5516,5.4491,5.3313,5.4068,5.3703,5.3005,5.3005,5.2909,5.2818,5.2818,5.1779,5.0707,5.0707,5.0707,5.0707,5.0707,5.0707,5.0707,5.0707,5.0707,5.0707,5.0707,5.0707,5.0707,5.0707,5.0707,5.0707,5.0707,5.0707,5.0707,5.0707,5.0707,5.0707,5.0707,5.0707,5.0707,5.0707,5.0707,5.0693,5.0697,5.0702,5.0702,5.0712,5.0711,5.0757,5.081,5.0863,5.0901,5.0898,5.0898,5.0898,5.0898,5.0898,5.0841,4.1258,4.2863,4.4078,4.2531,4.4427,4.6438,4.5645,4.5045,4.4643,4.4643,4.4643,4.5146,4.6809,4.7157,4.8314,5.1757,5.3749,5.5427,5.7071,5.7709,5.7985,0.0,0.0,0.0,0.0,0.0,0.0,0.0,0.0,0.0,0.0,0.0,5.5745,5.5745,5.5719,5.5708,5.5708,5.5324,5.5151,5.5151,5.5151,5.5343,5.5708,5.5708,5.5708,5.5708,0.0,5.5618,5.5479,5.5479,5.5376,5.5211,5.5211,5.5211,5.5211,5.5211,5.5211,5.5211,5.5211,5.4715,5.4161,5.4736,5.4336,5.3627,5.3627,5.3296,5.2897,5.2716,5.2039,5.1356,5.1356,5.1034,5.0707,5.0707,5.0707,5.0707,5.0707,5.0707,5.0707,5.0707,5.0707,5.0707,5.0707,5.0707,5.0707,5.0707,5.0707,5.0707,5.0707,5.0707,5.0707,5.0707,5.0707,5.0707,5.0707,5.0707,5.0707,5.0707,5.0707,5.0707,5.0707,5.0693,5.0706,5.0757,5.0806,5.0868,5.0909,5.0909,5.0898,5.0898,5.0829,5.076,4.1026,4.2164,4.334,4.3553,4.5568,4.7676,4.8256,4.7215,4.6268,4.6867,4.6848,4.6964,4.7831,4.8875,5.0442,5.3076,5.5084,5.6549,5.7207,5.786,5.8029,5.7367,0.0,0.0,0.0,0.0,0.0,0.0,0.0,0.0,0.0,0.0,5.5607,5.5607,5.5531,5.5497,5.5497,5.5497,5.5554,5.5708,5.5635,5.5607,5.5602,5.5526,5.5497,5.5497,5.5497,5.5369,5.5178,5.5178,5.5023,5.4799,5.4799,5.4799,5.4799,5.4799,5.4799,5.4799,5.4799,5.4799,5.4843,5.5104,5.4732,5.4192,5.4192,5.3728,5.3142,5.289,5.2558,5.222,5.2028,5.1363,5.0779,5.0779,5.0668,5.0559,5.0488,5.0599,5.0673,5.0604,5.0575,5.0609,5.0683,5.0629,5.0609,5.0683,5.0707,5.0673,5.058,5.0575,5.0575,5.0575,5.0575,5.0614,5.0683,5.0707,5.0707,5.0707,5.0707,5.0707,5.0707,5.0707,5.0693,5.0696,5.0696,5.0747,5.0899,5.0799,5.0784,5.0854,5.0696,5.0606,4.1699,4.2589,4.3495,4.4307,4.4694,4.5487,4.7869,4.7676,4.7676,5.0051,4.9935,4.9664,5.0476,5.2008,5.3212,5.3463,5.5582,5.7226,5.7284,0.0,5.7288,0.0,0.0,0.0,0.0,0.0,0.0,0.0,0.0,0.0,0.0,0.0,0.0,5.5326,5.5023,5.4866,5.4866,5.4866,5.5152,5.5703,5.5443,5.5326,5.532,5.5002,5.4866,5.4866,5.4866,5.4851,5.4836,5.4836,5.4821,5.4799,5.4799,5.4799,5.4799,5.4799,5.4799,5.4799,5.4799,5.4799,5.4799,5.4829,5.4791,5.4734,5.4734,5.4696,5.4632,5.4609,5.4032,5.3201,5.239,5.1582,5.0982,5.0982,5.0602,5.0165,4.9923,5.0296,5.0609,5.0294,5.0249,5.0322,5.0653,5.0437,5.0347,5.0658,5.0707,5.0594,5.0277,5.0249,5.0249,5.0249,5.0249,5.0358,5.0673,5.0707,5.0707,5.0707,5.0707,5.0707,5.0707,5.0707,5.0693,5.0696,5.0457,5.0508,5.0899,5.0457,5.0415,5.071,5.0517,5.0358,4.1161,4.226,4.3511,4.4334,4.4947,4.6013,4.8624,4.9335,5.0032,5.2086,5.2279,5.1981,5.1697,5.2458,5.3295,5.3781,5.5595,5.686,5.6641,5.676,0.0,0.0,0.0,0.0,0.0,0.0,0.0,0.0,0.0,0.0,0.0,0.0,0.0,5.4981,5.4866,5.4799,5.4799,5.4799,5.4897,5.5145,5.5037,5.4981,5.4981,5.4858,5.4799,5.4799,5.4799,5.4685,5.4487,5.4487,5.4374,5.4177,5.4177,5.4177,5.4177,5.4177,5.4177,5.4177,5.4177,5.4177,5.4212,5.4413,5.4487,5.4487,5.4487,5.4487,5.4446,5.4238,5.3943,5.357,5.3127,5.239,5.1625,5.1128,5.0857,5.0531,4.9925,4.9974,5.0106,4.9981,4.9943,5.0,5.0118,5.0038,4.9981,5.0124,5.0136,5.0081,4.9974,4.9943,5.0025,5.0183,5.0399,5.0559,5.0683,5.0697,5.0654,5.0573,5.0653,5.0707,5.0707,5.0707,5.0595,5.0393,5.0325,5.0298,5.0275,5.0224,5.0264,5.0388,5.0308,5.024,4.1187,4.2205,4.3468,4.4279,4.5336,4.6866,4.9451,5.0496,5.1478,5.3477,5.3642,5.3217,5.2497,5.2646,5.3139,0.0,5.5198,5.6059,5.5821,0.0,0.0,0.0,0.0,0.0,0.0,0.0,0.0,0.0,0.0,0.0,0.0,0.0,0.0,0.0,5.4544,5.4487,5.4487,5.4487,5.4487,5.4487,5.4487,5.4544,5.4639,5.4536,5.4487,5.4487,5.4487,5.4347,5.4133,5.4133,5.4018,5.3803,5.3803,5.3803,5.3803,5.3803,5.3803,5.3803,5.3803,5.3803,5.3832,5.4072,5.4133,5.4133,5.4133,5.4133,5.4098,5.387,5.3803,5.3758,5.3633,5.2956,5.2195,5.1638,5.1175,5.0691,5.0044,4.9842,4.9764,4.9686,4.9665,4.9693,4.979,4.9728,4.9788,5.0131,4.9955,4.9864,5.0031,4.9828,4.9776,5.0056,5.0347,5.058,5.0683,5.0702,5.064,5.0518,5.0549,5.0585,5.0638,5.0483,5.0341,5.0201,5.0074,4.9968,4.9903,4.9936,5.0006,5.0111,5.0107,5.0101,4.1982,4.259,4.3406,4.4195,4.573,4.7698,5.0224,5.0857,5.164,5.4188,5.395,5.3239,5.2957,5.2907,5.3074,5.3604,5.4369,5.4889,0.0,0.0,0.0,0.0,0.0,0.0,0.0,0.0,0.0,0.0,0.0,0.0,0.0,0.0,0.0,0.0,5.3972,5.3803,5.3803,5.3803,5.3803,5.3803,5.3803,5.3972,5.4271,5.3954,5.3803,5.3803,5.3803,5.3803,5.3803,5.3803,5.3803,5.3803,5.3803,5.3803,5.3803,5.3803,5.3803,5.3803,5.3803,5.3803,5.3803,5.3803,5.3803,5.3803,5.3803,5.3803,5.3803,5.3803,5.3803,5.3803,5.3803,5.3218,5.2605,5.2605,5.1589,5.0515,5.0187,4.9937,4.9726,4.945,4.9399,4.9488,4.9749,4.958,4.9777,5.0833,5.032,5.0007,5.0538,4.9906,4.9499,4.9769,5.005,5.0325,5.0673,5.0696,5.0635,5.0507,5.0363,5.0364,5.05,5.005,4.9917,5.0189,4.967,4.9566,4.9897,4.9558,4.9592,4.9916,4.9913,4.9905,4.1087,4.2572,4.4164,4.4345,4.7064,4.9858,5.0574,5.169,5.3158,5.5133,5.4647,5.384,5.3759,5.3321,0.0,5.3181,5.3916,0.0,0.0,0.0,0.0,0.0,0.0,0.0,0.0,0.0,0.0,0.0,0.0,0.0,0.0,0.0,0.0,0.0,5.3851,5.3803,5.3803,5.3803,5.3803,5.3803,5.3803,5.3851,5.3944,5.3841,5.3803,5.3803,5.3803,5.3803,5.3803,5.3803,5.3803,5.3803,5.3803,5.3803,5.3803,5.3803,5.3803,5.3803,5.3803,5.3803,5.3803,5.3803,5.3803,5.3803,5.3803,5.3803,5.3803,5.3803,5.3803,5.3803,5.3803,5.3617,5.3311,5.2735,5.2298,5.1654,5.0375,5.0059,4.9822,4.9162,4.9044,4.9067,4.9155,4.9558,4.9991,5.0324,5.0696,5.0785,5.0365,4.9781,4.9427,4.9506,4.9837,5.0159,5.0404,5.0547,5.0616,5.0567,5.0366,5.022,5.0142,4.9923,4.9749,4.9634,4.9488,4.9615,5.0037,5.0075,5.0523,5.1303,5.0828,5.0684,4.2088,4.3794,4.5645,4.6234,4.8824,5.1457,5.2333,5.3093,5.4019,5.539,5.4691,5.3924,5.4132,5.3523,0.0,5.3275,0.0,0.0,0.0,0.0,0.0,0.0,0.0,0.0,0.0,0.0,0.0,0.0,0.0,0.0,0.0,0.0,0.0,0.0,5.3803,5.3803,5.3803,5.3803,5.3803,5.3803,5.3803,5.3803,5.3803,5.3803,5.3803,5.3803,5.3803,5.3803,5.3803,5.3803,5.3803,5.3803,5.3803,5.3803,5.3803,5.3803,5.3803,5.3803,5.3803,5.3803,5.3803,5.3803,5.3803,5.3803,5.3803,5.3803,5.3803,5.3803,5.3803,5.3803,5.3803,5.3803,5.3673,5.319,5.2828,5.2234,5.0896,5.033,4.9866,4.9057,4.8909,4.9002,4.9309,4.9773,5.033,5.098,5.1268,5.0971,4.9837,4.9394,4.9257,4.9391,4.9719,5.0025,5.0314,5.0552,5.0663,5.064,5.0372,5.0105,4.9884,4.9684,4.9514,4.9407,4.9573,4.983,5.0089,5.0616,5.1233,5.1874,5.1205,5.1011,4.4029,4.5497,4.7167,4.886,5.0659,5.2583,5.4732,5.4683,5.437,5.5103,5.437,5.3766,5.4224,5.3634,5.3235,5.3711,0.0,0.0,0.0,0.0,0.0,0.0,0.0,0.0,0.0,0.0,0.0,0.0,0.0,0.0,0.0,0.0,0.0,5.3803,5.3803,5.3803,5.3803,5.3803,5.3803,0.0,5.3803,5.3803,5.3803,5.3803,5.3803,5.3803,5.3803,5.3803,5.3803,5.3803,5.3803,5.3803,5.3803,5.3803,5.3803,5.3803,5.3803,5.3803,5.3803,5.3803,5.3803,5.3803,5.3803,5.3803,5.3803,5.3803,5.3803,5.3803,5.3803,5.3803,5.3803,5.3803,5.3803,5.3803,5.319,5.2382,5.1565,5.0729,4.9866,4.9057,4.8909,4.916,4.9968,5.0163,5.0757,5.2364,5.1918,5.0822,4.9224,4.8937,4.9027,4.9349,4.9627,4.9943,5.0366,5.0635,5.0751,5.0715,5.042,5.0093,4.9728,4.938,4.9252,4.936,4.9854,5.0144,5.0219,5.1214,5.1843,5.2118,5.1359,5.111,4.298,4.4112,4.5439,4.7783,5.0659,5.3226,5.4389,5.4651,5.4689,5.4867,5.4706,5.4492,5.4336,5.3931,5.3665,0.0,0.0,0.0,0.0,0.0,0.0,0.0,0.0,0.0,0.0,0.0,0.0,0.0,0.0,0.0,0.0,0.0,0.0,5.3803,5.3803,5.3803,5.3803,5.3803,5.3803,0.0,5.3803,5.3803,5.3803,5.3803,5.3803,5.3803,5.3803,5.3803,5.3803,5.3803,5.3803,5.3803,5.3803,5.3803,5.3803,5.3803,5.3803,5.3803,5.3803,5.3803,5.3803,5.3803,5.3803,5.3803,5.3803,5.3803,5.3803,5.3803,5.3803,5.3803,5.3803,5.3803,5.3803,5.3803,5.319,5.2382,5.1565,5.0766,4.9912,4.9076,4.8909,4.9169,5.0023,5.0692,5.1454,5.2457,5.1918,5.1026,4.9977,4.9299,4.9027,4.9349,4.9551,4.9837,5.0286,5.0527,5.0706,5.0846,5.0692,5.038,4.9873,4.9424,4.9137,4.9002,4.9724,5.045,5.1119,5.1973,5.288,5.3827,5.236,5.1846,4.3059,4.4322,4.5879,4.8796,5.0759,5.2284,5.3548,5.3911,5.4048,5.4272,5.4313,5.4272,5.4098,5.3907,5.3803,0.0,0.0,0.0,0.0,0.0,0.0,0.0,0.0,0.0,0.0,0.0,0.0,0.0,0.0,0.0,0.0,5.3803,5.3803,5.3803,5.3803,5.3617,5.3237,5.3237,5.3237,5.3237,5.3237,5.3432,5.3803,5.3803,5.3803,5.3803,5.3803,5.3803,5.3803,5.3803,5.3803,5.3803,5.3803,5.3803,5.3803,5.3803,5.3803,5.3803,5.3803,5.3803,5.3803,5.3803,5.3803,5.3803,5.3803,5.3803,5.3803,5.3803,5.3803,5.3803,5.3803,5.3803,5.3803,5.3803,5.3478,5.2847,5.1658,5.1063,5.0395,4.915,4.9206,4.9754,5.0618,5.1435,5.1992,5.2029,5.1305,5.0469,4.9633,4.916,4.9027,4.9349,4.9588,4.9851,5.0275,5.0547,5.0747,5.0895,5.0775,5.0458,4.9923,4.9592,4.926,4.8917,5.0098,5.0952,5.1398,5.2587,5.3375,5.3743,5.2488,5.1864,4.321,4.4984,4.7011,4.9945,5.0687,5.1052,5.2441,5.2825,5.3029,5.3572,5.3777,5.387,5.3804,5.3803,5.3803,0.0,0.0,0.0,0.0,0.0,0.0,0.0,0.0,0.0,0.0,0.0,0.0,0.0,0.0,0.0,5.3803,5.3803,5.3803,5.3803,5.3803,5.3423,5.2605,5.2605,5.2531,5.2401,5.2531,5.3032,5.3803,5.3803,5.3803,5.3803,5.3803,5.3803,5.3803,5.3803,5.3803,5.3803,5.3803,5.3803,5.3803,5.3803,5.3803,5.3803,5.3803,5.3803,5.3803,5.3803,5.3803,5.3803,5.3803,5.3803,5.3803,5.3803,5.3803,5.3803,5.3803,5.3803,5.3803,5.3803,5.3803,5.3367,5.1751,5.1286,5.0729,4.9206,4.955,5.033,5.1045,5.1974,5.2327,5.1528,5.0785,5.0042,4.9206,4.9035,4.9119,4.9442,4.97,4.9993,5.0344,5.0635,5.0814,5.0887,5.0793,5.0504,5.0004,4.9891,4.9565,4.8993,5.0421,5.1175,5.1175,5.2661,5.3226,5.2871,5.2056,5.1506,4.2145,4.4834,4.7429,4.8623,4.9986,5.1095,5.1322,5.1726,5.2268,5.3036,5.375,5.4133,5.3851,5.3803,0.0,0.0,0.0,0.0,0.0,0.0,0.0,0.0,0.0,0.0,0.0,0.0,0.0,0.0,0.0,0.0,5.3803,5.3803,5.3803,5.3803,5.3803,5.3423,5.2605,5.2605,5.2252,5.1565,5.2271,5.3032,5.3803,5.3803,5.3803,5.3803,5.3803,5.3803,5.3803,5.3803,5.3803,5.3803,5.3803,5.3803,5.3803,5.3803,5.3803,5.3803,5.3803,5.3803,5.3803,5.3803,5.3803,5.3803,5.3803,5.3803,5.3803,5.3803,5.3803,5.3803,5.3803,5.3803,5.3803,5.3803,5.3803,5.3367,5.1751,5.0822,5.0005,4.9076,4.955,5.0144,5.0256,5.1565,5.2327,5.1528,5.1305,5.0915,5.0052,4.9581,4.9431,4.9714,5.0,5.0277,5.0619,5.0734,5.0801,5.0806,5.0841,5.0713,5.0353,5.0314,4.9993,4.9352,4.9957,5.0274,5.0283,5.1249,5.1837,5.2035,5.1182,5.0922,4.2034,4.4122,4.6067,4.7687,4.8644,4.944,5.0325,5.0727,5.1133,5.1973,5.244,5.29,5.3655,5.3803,0.0,0.0,0.0,0.0,0.0,0.0,0.0,0.0,0.0,0.0,0.0,0.0,0.0,0.0,0.0,5.3803,5.3803,5.3803,5.3803,5.3803,5.3367,5.2735,5.1936,5.1444,5.1268,5.1416,5.2215,5.3032,5.3803,5.3803,5.3803,5.3803,5.3803,5.3803,5.3803,5.3803,5.3803,5.3803,5.3803,5.3803,5.3803,5.3803,5.3803,5.3803,5.3803,5.3803,5.3803,5.3803,5.3803,5.3803,5.3803,5.3803,5.3803,5.3803,5.3803,5.3803,5.3803,5.3803,5.3803,5.3803,5.3803,5.3478,5.2327,5.1769,5.1268,5.0469,5.019,5.0256,5.0748,5.1017,5.1082,5.0729,5.0302,4.9856,4.9485,4.9417,4.9499,4.9776,5.0031,5.0341,5.0673,5.0735,5.0733,5.0733,5.0819,5.0681,5.0353,5.0342,5.0056,4.9404,5.0054,5.0298,5.0089,5.0971,5.1325,5.1164,5.078,5.0553,4.1627,4.2927,4.4183,4.6243,4.7088,4.7757,4.9169,4.9643,5.0042,5.0896,5.1063,5.1509,5.294,5.3367,0.0,0.0,0.0,0.0,0.0,0.0,0.0,0.0,0.0,0.0,0.0,0.0,0.0,0.0,0.0,5.3803,5.3803,5.3803,5.3803,5.3803,5.3032,5.2215,5.1416,5.033,5.0339,5.1416,5.2011,5.2828,5.3803,5.3803,5.3803,5.3803,5.3803,5.3803,5.3803,5.3803,5.3803,5.3803,5.3803,5.3803,5.3803,5.3803,5.3803,5.3803,5.3803,5.3803,5.3803,5.3803,5.3803,5.3803,5.3803,5.3803,5.3803,5.3803,5.3803,5.3803,5.3803,5.3803,5.3803,5.3803,5.3803,5.3524,5.2512,5.2122,5.1732,5.0915,5.0237,5.0005,5.0655,5.0395,5.0089,5.0089,4.9587,4.9206,4.9206,4.9386,4.9588,4.9783,5.0111,5.0426,5.0678,5.0692,5.0696,5.0696,5.0751,5.0673,5.042,5.039,5.011,4.9506,5.0086,5.0202,4.9791,5.045,5.0598,5.0292,5.0292,5.0146,4.0278,4.1122,4.214,4.379,4.5379,4.6773,4.7627,4.8407,4.9179,4.9996,5.0163,5.0442,5.1361,5.2159,0.0,0.0,0.0,0.0,0.0,0.0,0.0,0.0,0.0,0.0,0.0,0.0,0.0,0.0,0.0,5.3803,5.3803,5.3803,5.3803,5.3803,5.3032,5.2215,5.1416,4.9782,4.9782,5.1398,5.1435,5.2289,5.3803,5.3803,5.3803,5.3803,5.3803,5.3803,5.3803,5.3803,5.3803,5.3803,5.3803,5.3803,5.3803,5.3803,5.3803,5.3803,5.3803,5.3803,5.3803,5.3803,5.3803,5.3803,5.3803,5.3803,5.3803,5.3803,5.3803,5.3803,5.3803,5.3803,5.3803,5.3803,5.3803,5.3357,5.1806,5.0822,4.9977,4.9187,4.9002,4.8974,4.902,4.9624,5.0089,5.0089,5.0052,5.0033,5.0033,4.989,4.9771,4.9803,5.0313,5.0678,5.0707,5.0692,5.0696,5.0696,5.0751,5.0751,5.0687,5.0682,5.0399,4.9797,4.9821,4.954,4.8964,4.902,4.9181,4.9463,4.9463,4.9626,4.0167,4.0613,4.1226,4.2835,4.4079,4.5119,4.5974,4.7181,4.8203,4.85,4.8964,4.9569,5.0413,5.1268,0.0,0.0,0.0,0.0,0.0,0.0,0.0,0.0,0.0,0.0,0.0,0.0,0.0,0.0,0.0,0.0,5.3803,5.3803,5.3803,5.3803,5.2512,5.1175,4.9819,4.9206,4.9466,5.0572,5.1138,5.1974,5.3051,5.3562,5.3803,5.3803,5.3803,5.3803,5.3803,5.3803,5.3803,5.3803,5.3803,5.3803,5.3803,5.3803,5.3803,5.3803,5.3803,5.3803,5.3803,5.3803,5.3803,5.3803,5.3803,5.3803,5.3803,5.3803,5.3803,5.3803,5.3803,5.3803,5.3673,5.3144,5.2642,5.1955,5.0822,5.0766,5.0692,4.9829,4.9209,4.884,4.884,4.8999,4.9158,4.9257,4.9266,4.9284,4.9318,4.9455,4.9605,4.979,5.0155,5.0472,5.0678,5.0702,5.0693,5.0693,5.0716,5.0635,5.0388,5.0383,5.0123,4.9558,4.9544,4.9331,4.8909,4.8909,4.9037,4.9276,4.936,4.9529,3.9814,3.9963,4.0353,4.1988,4.2797,4.3559,4.4979,4.6345,4.7367,4.7646,4.8333,4.9057,4.9596,5.0172,0.0,0.0,0.0,0.0,0.0,0.0,0.0,0.0,0.0,0.0,0.0,0.0,0.0,0.0,0.0,0.0,5.3803,5.3803,5.3543,5.3004,5.1695,5.032,4.8909,4.8909,4.9299,5.0107,5.0989,5.1825,5.2624,5.3432,5.3803,5.3803,5.3803,5.3803,5.3803,5.3803,5.3803,5.3803,5.3803,5.3803,5.3803,5.3803,5.3803,5.3803,5.3803,5.3803,5.3803,5.3803,5.3803,5.3803,5.3803,5.3803,5.3803,5.3803,5.3599,5.3394,5.3394,5.32,5.2865,5.2327,5.1788,5.1156,5.0293,5.0553,5.0711,4.9866,4.9228,4.884,4.884,4.875,4.8723,4.8796,4.8822,4.883,4.8856,4.9184,4.9472,4.9648,4.9916,5.0166,5.0377,5.0478,5.0488,5.0394,5.0478,5.0394,5.0087,5.0075,4.9857,4.9415,4.9407,4.9241,4.8909,4.8909,4.9003,4.9195,4.9337,4.9529,0.0,0.0,0.0,4.1126,4.156,4.2192,4.4607,4.5788,4.6624,4.746,4.8277,4.8834,4.889,4.8909,0.0,0.0,0.0,0.0,0.0,0.0,0.0,0.0,0.0,0.0,0.0,0.0,0.0,0.0,0.0,5.3803,5.3803,5.3775,5.3042,5.1454,5.0618,4.9782,4.8909,4.8909,4.9299,5.0107,5.0989,5.1825,5.2624,5.3432,5.3803,5.3803,5.3803,5.3803,5.3803,5.3803,5.3803,5.3803,5.3803,5.3803,5.3803,5.3803,5.3803,5.3803,5.3803,5.3803,5.3803,5.3803,5.3803,5.3803,5.3803,5.3803,5.3803,5.3803,5.3237,5.2624,5.2605,5.1992,5.1361,5.1361,5.1342,5.1101,5.0246,5.0052,4.9829,4.9057,4.89,4.89,4.89,4.8891,4.8865,4.8804,4.8839,4.8865,4.8804,4.9135,4.9391,4.9407,4.9634,4.9797,4.981,5.005,5.0087,4.9824,5.0037,5.0075,4.9803,4.9797,4.967,4.9399,4.9391,4.9233,4.8909,4.8909,4.9003,4.9187,4.9329,4.9589,3.9101,0.0,0.0,0.0,0.0,0.0,0.0,4.2824,4.4228,4.5658,4.6605,4.7516,4.8686,4.8909,0.0,0.0,0.0,0.0,0.0,0.0,0.0,0.0,0.0,0.0,0.0,0.0,0.0,0.0,5.3803,5.3803,5.3803,5.3246,5.2457,5.1435,5.058,4.9726,4.8909,4.8909,4.9336,5.0172,5.1008,5.1825,5.2624,5.3432,5.3803,5.3803,5.3803,5.3803,5.3803,5.3803,5.3803,5.3803,5.3803,5.3803,5.3803,5.3803,5.3803,5.3803,5.3803,5.3803,5.3803,5.3803,5.3803,5.3803,5.3803,5.3803,5.3803,5.3803,5.3636,5.333,5.2754,5.1546,5.0469,5.0469,5.0023,4.954,4.9271,4.9243,4.9169,4.8946,4.8785,4.8714,4.8804,4.8633,4.8513,4.8642,4.8624,4.8661,4.8778,4.891,4.9088,4.9376,4.9472,4.9583,4.9771,4.9877,4.9871,4.9791,4.9865,4.979,4.9521,4.9506,4.9354,4.9044,4.9035,4.8985,4.8909,4.8909,4.8935,4.8995,4.9273,4.9589,3.9194,0.0,0.0,0.0,0.0,0.0,4.0743,4.1635,4.276,0.0,4.5417,4.6382,4.7664,4.8166,4.8407,0.0,0.0,0.0,0.0,0.0,0.0,0.0,0.0,0.0,0.0,0.0,0.0,5.3803,5.3803,5.3803,5.3803,5.2717,5.1881,5.1416,5.0228,4.954,4.9401,4.9067,4.9503,5.0711,5.1175,5.1825,5.2624,5.3432,5.3803,5.3803,5.3803,5.3803,5.3803,5.3803,5.3803,5.3803,5.3803,5.3803,5.3803,5.3803,5.3803,5.3803,5.3803,5.3803,5.3803,5.3803,5.3803,5.3803,5.3803,5.3803,5.3803,5.3803,5.333,5.2531,5.1361,5.033,4.9596,4.9596,4.9243,4.8909,4.8909,4.8909,4.8909,4.8909,4.8803,4.875,4.8821,4.8687,4.8569,4.8587,4.8642,4.8688,4.8715,4.8786,4.8935,4.9168,4.9193,4.9244,4.9409,4.9543,4.9565,4.9431,4.9569,4.9495,4.919,4.9193,4.9102,4.8909,4.8909,4.8909,4.8909,4.8909,4.8943,4.9037,4.9289,4.9551,0.0,0.0,0.0,0.0,0.0,0.0,4.1059,4.1467,4.1999,0.0,4.4339,4.5157,4.6067,4.681,4.7293,0.0,0.0,0.0,0.0,0.0,0.0,0.0,0.0,0.0,0.0,5.3933,5.3933,5.3933,5.384,5.3803,5.3803,5.2364,5.1528,5.1528,5.0005,4.9522,5.0237,4.9531,4.9968,5.1528,5.1528,5.1955,5.2754,5.3469,5.3803,5.3803,5.3803,5.3803,5.3803,5.3803,5.3803,5.3803,5.3803,5.3803,5.3803,5.3803,5.3803,5.3803,5.3803,5.3803,5.3803,5.3803,5.3803,5.3775,5.3701,5.3673,5.3654,5.3562,5.2438,5.0915,4.9429,4.8964,4.8909,4.8909,4.8909,4.8909,4.8909,4.8909,4.8909,4.8909,4.89,4.8891,4.89,4.8891,4.8803,4.8623,4.8759,4.8803,4.8614,4.8767,4.8891,4.8909,4.8909,4.8909,4.8909,4.9176,4.9225,4.8926,4.9184,4.9217,4.8917,4.8909,4.8909,4.8909,4.8909,4.8909,4.8909,4.8909,4.9003,4.9195,4.936,4.9537,0.0,0.0,0.0,0.0,0.0,0.0,3.9974,4.0624,4.169,0.0,4.2203,4.2768,4.4228,4.4618,4.4711,0.0,0.0,0.0,0.0,0.0,0.0,0.0,0.0,0.0,0.0,5.4769,5.4769,5.4769,5.4174,5.3803,5.3803,5.2902,5.2364,5.2364,5.1416,5.0989,5.1138,5.0989,5.1398,5.2364,5.2364,5.2791,5.3571,5.3729,5.3803,5.3803,5.3803,5.3803,5.3803,5.3803,5.3803,5.3803,5.3803,5.3803,5.3803,5.3803,5.3803,5.3803,5.3803,5.3803,5.3803,5.3803,5.3803,5.3673,5.3032,5.2828,5.2698,5.2048,5.1138,5.0283,4.994,4.9392,4.8909,4.8909,4.8909,4.8909,4.8909,4.8909,4.8909,4.8909,4.8848,4.884,4.8891,4.8767,4.866,4.8605,4.8632,4.8641,4.8605,4.8732,4.8849,4.89,4.8909,4.8909,4.8909,4.895,4.8968,4.8909,4.895,4.8978,4.8909,4.8909,4.8909,4.8909,4.8909,4.8909,4.8909,4.8909,4.9003,4.9222,4.9499,4.9719,0.0,0.0,0.0,4.1096,0.0,0.0,0.0,0.0,4.0039,4.0711,4.0746,4.1127,4.2715,4.354,4.4005,0.0,0.0,0.0,0.0,0.0,0.0,0.0,0.0,0.0,0.0,5.4174,5.4564,5.4973,5.4249,5.3803,5.3803,5.3042,5.2605,5.2605,5.1825,5.1584,5.1992,5.1602,5.2011,5.319,5.2791,5.3032,5.3803,5.3803,5.3803,5.3803,5.3803,5.3803,5.3803,5.3803,5.3803,5.3803,5.3803,5.3803,5.3803,5.3803,5.3803,5.3803,5.3803,5.3803,5.3803,5.3803,5.3803,5.3654,5.2847,5.2327,5.1825,5.0989,5.0469,5.006,4.9606,4.9206,4.8909,4.8909,4.8909,4.8909,4.8909,4.8909,4.8909,4.8909,4.8874,4.8856,4.89,4.8812,4.8741,4.8696,4.8723,4.8741,4.8696,4.8786,4.8856,4.89,4.8909,4.8909,4.8909,4.8909,4.8909,4.8909,4.8909,4.8909,4.8909,4.8909,4.8909,4.8909,4.8909,4.8909,4.8909,4.8909,4.896,4.9062,4.9385,4.9588,0.0,0.0,0.0,0.0,0.0,4.0343,0.0,0.0,0.0,0.0,0.0,0.0,0.0,0.0,0.0,0.0,0.0,0.0,0.0,0.0,0.0,0.0,0.0,0.0,0.0,5.281,5.3487,5.4453,5.3654,5.3237,5.3543,5.3097,5.2828,5.2828,5.2197,5.2178,5.2828,5.2197,5.2512,5.3784,5.3144,5.3181,5.3803,5.3803,5.3803,5.3803,5.3803,5.3803,5.3803,5.3803,5.3803,5.3803,5.3803,5.3803,5.3803,5.3803,5.3803,5.3803,5.3803,5.3803,5.3766,5.3617,5.3348,5.2967,5.2327,5.1565,5.0766,5.0079,4.9912,4.9782,4.9076,4.8909,4.8909,4.8909,4.8909,4.8909,4.8909,4.8909,4.8909,4.8909,4.8909,4.8909,4.8909,4.8891,4.8856,4.8804,4.8857,4.8856,4.8804,4.8848,4.8909,4.8909,4.8909,4.8909,4.8909,4.8909,4.8909,4.8909,4.8909,4.8909,4.8909,4.8909,4.8909,4.8909,4.8909,4.8909,4.8909,4.8909,4.8909,4.8917,4.9286,4.9465,0.0,0.0,0.0,0.0,4.1434,0.0,0.0,0.0,0.0,0.0,0.0,0.0,0.0,0.0,0.0,0.0,0.0,0.0,0.0,0.0,0.0,0.0,0.0,0.0,0.0,0.0,5.1166,5.2754,5.1472,5.1231,5.2661,5.333,5.3664,5.3664,5.358,5.3571,5.3664,5.3571,5.3617,5.3803,5.371,5.371,5.3803,5.3803,5.3803,5.3803,5.3803,5.3803,5.3803,5.3803,5.3803,5.3803,5.3803,5.3803,5.3803,5.3803,5.3803,5.3803,5.3803,5.3803,5.3673,5.2977,5.1732,5.0497,5.0404,4.9819,4.9169,4.9057,4.903,4.902,4.8927,4.8909,4.8909,4.8909,4.8909,4.8909,4.8909,4.8909,4.8909,4.8909,4.8909,4.8909,4.8909,4.8839,4.8804,4.8796,4.8804,4.8804,4.8796,4.8848,4.8909,4.8909,4.8909,4.8909,4.8909,4.8909,4.8909,4.8909,4.8909,4.8909,4.8909,4.8909,4.8909,4.8909,4.8909,4.8909,4.8909,4.8909,4.8909,4.8899,4.9435,4.9665,0.0,0.0,0.0,0.0,0.0,0.0,3.8511,0.0,3.8058,0.0,0.0,0.0,0.0,0.0,0.0,0.0,0.0,0.0,0.0,0.0,0.0,0.0,0.0,0.0,0.0,0.0,0.0,0.0,0.0,5.0376,5.2494,5.2921,5.333,5.3784,5.3803,5.3774,5.3735,5.3774,5.3774,5.3735,5.3774,5.3803,5.3803,5.3803,5.3803,5.3803,5.3803,5.3803,5.3803,5.3803,5.3803,5.3757,5.3292,5.3097,5.3097,5.3097,5.3097,5.3181,5.3636,5.3803,5.3673,5.2865,5.1806,5.0766,5.0256,4.954,4.8909,4.8909,4.8767,4.8614,4.8614,4.8495,4.8392,4.8392,4.8495,4.8614,4.8614,4.8767,4.8909,4.8909,4.8909,4.8909,4.8909,4.8874,4.8848,4.8848,4.8848,4.8848,4.8848,4.8883,4.8909,4.8909,4.8909,4.8909,4.8909,4.8909,4.8909,4.8909,4.8909,4.8909,4.8909,4.8909,4.8909,4.8909,4.8909,4.8909,4.8909,4.8909,4.896,4.9079,4.9377,4.958,4.209,0.0,0.0,0.0,0.0,0.0,0.0,0.0,0.0,0.0,0.0,0.0,0.0,0.0,0.0,0.0,0.0,0.0,0.0,0.0,0.0,0.0,0.0,0.0,0.0,0.0,0.0,0.0,0.0,0.0,5.1769,5.2345,5.2865,5.346,5.3701,5.3774,5.3704,5.3745,5.3745,5.3704,5.3745,5.3774,5.3803,5.3803,5.3803,5.3803,5.3803,5.3803,5.3803,5.3803,5.3803,5.372,5.2921,5.2605,5.2605,5.2605,5.2735,5.3004,5.3608,5.3515,5.3051,5.2457,5.1565,5.0599,4.9959,4.9355,4.8891,4.8794,4.8596,4.8383,4.8307,4.8142,4.8002,4.8002,4.821,4.8402,4.8402,4.866,4.8909,4.8909,4.8909,4.8909,4.8909,4.8883,4.8883,4.89,4.8883,4.8883,4.89,4.8909,4.8909,4.8909,4.8909,4.8909,4.8909,4.8909,4.8909,4.8909,4.8909,4.8909,4.8909,4.8909,4.8909,4.8909,4.8909,4.8909,4.8909,4.8909,4.901,4.926,4.9352,4.9518,0.0,0.0,0.0,3.9109,0.0,0.0,0.0,0.0,3.7478,0.0,0.0,0.0,0.0,0.0,0.0,3.8854,0.0,0.0,0.0,0.0,0.0,0.0,0.0,0.0,0.0,0.0,0.0,0.0,0.0,0.0,5.0014,5.1732,5.2605,5.2642,5.3385,5.3774,5.3704,5.3704,5.3704,5.3704,5.3704,5.3744,5.3803,5.3803,5.3803,5.3803,5.3803,5.3803,5.3803,5.3803,5.3803,5.372,5.2921,5.2605,5.2605,5.2605,5.3088,5.3766,5.3784,5.2791,5.1472,5.1454,5.032,4.8964,4.8937,4.8919,4.8829,4.8504,4.8411,4.8336,4.8073,4.8012,4.8002,4.8002,4.821,4.8402,4.8402,4.866,4.8909,4.8909,4.8909,4.8909,4.8909,4.8857,4.8831,4.8891,4.883,4.8831,4.8891,4.8909,4.8909,4.8909,4.8909,4.8909,4.8909,4.8909,4.8909,4.8909,4.8909,4.8909,4.8909,4.8909,4.8909,4.8909,4.8909,4.8909,4.8909,4.8909,4.9069,4.9399,4.9399,4.9518,0.0,0.0,4.0729,3.9612,0.0,0.0,0.0,0.0,0.0,0.0,0.0,0.0,0.0,0.0,3.8614,3.8038,0.0,0.0,0.0,0.0,0.0,0.0,0.0,0.0,0.0,0.0,0.0,0.0,4.6401,0.0,0.0,5.1175,5.2011,5.2455,5.3289,5.3637,5.3439,5.3509,5.3578,5.3578,5.3656,5.3744,5.3803,5.3803,5.3803,5.3803,5.3803,5.3803,5.3766,5.3237,5.333,5.3673,5.2327,5.2457,5.333,5.281,5.2772,5.3004,5.3004,5.2661,5.2011,5.0896,5.0172,4.9587,4.9057,4.8909,4.8883,4.8767,4.8578,4.8383,4.8279,4.7963,4.7663,4.7663,4.7921,4.8132,4.8132,4.8532,4.8909,4.8909,4.8909,4.8909,4.8909,4.8883,4.8874,4.89,4.8883,4.8874,4.89,4.8909,4.8909,4.8909,4.8909,4.8909,4.8909,4.8909,4.8909,4.8909,4.8909,4.8909,4.8909,4.8909,4.8909,4.8909,4.8909,4.8909,4.8909,4.8909,4.9037,4.9268,4.9268,4.9461,4.0912,4.0912,0.0,3.9899,3.9336,0.0,3.8054,0.0,0.0,0.0,0.0,0.0,0.0,0.0,0.0,3.8002,3.7657,0.0,0.0,3.7598,0.0,0.0,0.0,0.0,0.0,0.0,4.487,4.5894,4.5712,0.0,0.0,0.0,5.1593,5.1953,5.3111,5.3568,5.33,5.339,5.342,5.343,5.3568,5.3667,5.3774,5.3793,5.3803,5.3803,5.3803,5.3636,5.333,5.281,5.2735,5.2865,5.2122,5.2429,5.3254,5.2772,5.2791,5.2995,5.2698,5.2419,5.1936,5.0553,4.9903,4.9569,4.9057,4.8909,4.8883,4.8759,4.8569,4.8374,4.8279,4.7963,4.7673,4.7673,4.7921,4.8142,4.8142,4.8532,4.8909,4.8909,4.8909,4.8909,4.8909,4.8909,4.8909,4.8909,4.8909,4.8909,4.8909,4.8909,4.8909,4.8909,4.8909,4.8909,4.8909,4.8909,4.8909,4.8909,4.8909,4.8909,4.8909,4.8909,4.8909,4.8909,4.8909,4.8909,4.8909,4.8909,4.9003,4.9195,4.9297,4.9548]}]]